[[{"header":{"parameterUnit":"m.s-1","parameterCategory":1,"la1":30.6,"la2":29.2853,"lo1":-89.7004,"lo2":-87.6739,"dy":0.0162,"dx":0.0183,"nx":112,"ny":82,"refTime":"2023-11-19T18:00:00:Z","depth":0,"parameterNumber":2,"parameterNumberName":"U-component_of_WINDS"},"data":[0.0,0.0,0.0,0.0,0.0,0.0,0.0,0.0,0.0,0.0,0.0,0.0,0.0,0.0,0.0,0.0,0.0,0.0,0.0,0.0,0.0,0.0,0.0,0.0,0.0,0.0,0.0,0.0,0.0,0.0,0.0,0.0,0.0,0.0,0.0,0.0,0.0,0.0,0.0,0.0,0.0,0.0,0.0,0.0,0.0,0.0,0.0,0.0,0.0,0.0,0.0,0.0,0.0,0.0,0.0,0.0,0.0,0.0,0.0,0.0,0.0,0.0,0.0,0.0,0.0,0.0,0.0,0.0,0.0,0.0,0.0,0.0,0.0,0.0,0.0,0.0,0.0,0.0,0.0,0.0,0.0,0.0,0.0,0.0,0.0,0.0,0.0,0.0,0.0,0.0,-4.1474,-4.1654,-4.3569,-4.5394,-4.6741,-4.6142,-4.4975,-4.326,0.0,0.0,0.0,0.0,0.0,0.0,0.0,0.0,0.0,0.0,0.0,0.0,0.0,0.0,0.0,0.0,0.0,0.0,0.0,0.0,0.0,0.0,0.0,0.0,0.0,0.0,0.0,0.0,0.0,0.0,0.0,0.0,0.0,0.0,0.0,0.0,0.0,0.0,0.0,0.0,0.0,0.0,0.0,0.0,0.0,0.0,0.0,0.0,0.0,0.0,0.0,0.0,0.0,0.0,0.0,0.0,0.0,0.0,0.0,0.0,0.0,0.0,0.0,0.0,0.0,0.0,0.0,0.0,0.0,0.0,0.0,0.0,0.0,0.0,0.0,0.0,0.0,0.0,0.0,0.0,0.0,0.0,0.0,0.0,0.0,0.0,0.0,0.0,0.0,0.0,0.0,0.0,0.0,0.0,0.0,0.0,0.0,0.0,0.0,0.0,0.0,0.0,0.0,0.0,-4.1803,-4.2871,-4.291,-4.3369,-4.4646,-4.3658,-4.286,-4.256,0.0,0.0,0.0,0.0,0.0,0.0,0.0,0.0,0.0,0.0,0.0,0.0,0.0,0.0,0.0,0.0,0.0,0.0,0.0,0.0,0.0,0.0,0.0,0.0,0.0,0.0,0.0,0.0,0.0,0.0,0.0,0.0,0.0,0.0,0.0,0.0,0.0,0.0,0.0,0.0,0.0,0.0,0.0,0.0,0.0,0.0,0.0,0.0,0.0,0.0,0.0,0.0,0.0,0.0,0.0,0.0,0.0,0.0,0.0,0.0,0.0,0.0,0.0,0.0,0.0,0.0,0.0,0.0,0.0,0.0,0.0,0.0,0.0,0.0,0.0,0.0,0.0,0.0,0.0,0.0,0.0,0.0,0.0,0.0,0.0,0.0,0.0,0.0,0.0,0.0,0.0,0.0,0.0,0.0,0.0,0.0,0.0,0.0,0.0,0.0,0.0,0.0,0.0,-4.0194,-4.0645,-4.193,-4.2248,-4.28,-4.3688,-4.291,-4.241,-4.241,-4.2381,0.0,0.0,0.0,0.0,0.0,0.0,0.0,0.0,0.0,0.0,0.0,0.0,0.0,0.0,0.0,0.0,0.0,0.0,0.0,0.0,0.0,0.0,0.0,0.0,0.0,0.0,0.0,0.0,0.0,0.0,0.0,0.0,0.0,0.0,0.0,0.0,0.0,0.0,0.0,0.0,0.0,0.0,0.0,0.0,0.0,0.0,0.0,0.0,0.0,0.0,0.0,0.0,0.0,0.0,0.0,0.0,0.0,0.0,0.0,0.0,0.0,0.0,0.0,0.0,0.0,0.0,0.0,0.0,0.0,0.0,0.0,0.0,0.0,0.0,0.0,0.0,0.0,0.0,0.0,0.0,0.0,0.0,0.0,0.0,0.0,0.0,0.0,0.0,0.0,0.0,0.0,0.0,0.0,0.0,0.0,0.0,0.0,0.0,0.0,0.0,0.0,0.0,-3.9944,-3.977,-4.0862,-4.1834,-4.262,-4.306,-4.2491,-4.2171,-4.2171,-4.1504,0.0,0.0,0.0,0.0,0.0,0.0,0.0,0.0,0.0,0.0,0.0,0.0,0.0,0.0,0.0,0.0,0.0,0.0,0.0,0.0,0.0,0.0,0.0,0.0,0.0,0.0,0.0,0.0,0.0,0.0,0.0,0.0,0.0,0.0,0.0,0.0,0.0,0.0,0.0,0.0,0.0,0.0,0.0,0.0,0.0,0.0,0.0,0.0,0.0,0.0,0.0,0.0,0.0,0.0,0.0,0.0,0.0,0.0,0.0,0.0,0.0,0.0,0.0,0.0,0.0,0.0,0.0,0.0,0.0,0.0,0.0,0.0,0.0,0.0,0.0,0.0,0.0,0.0,0.0,0.0,0.0,0.0,0.0,0.0,0.0,0.0,0.0,0.0,0.0,0.0,0.0,0.0,0.0,0.0,0.0,0.0,0.0,0.0,0.0,0.0,0.0,0.0,-4.0031,-4.0303,-4.092,-4.1834,-4.241,-4.247,-4.1871,-4.1444,-4.1444,-4.0816,0.0,0.0,0.0,0.0,0.0,0.0,0.0,0.0,0.0,0.0,0.0,0.0,0.0,0.0,0.0,0.0,0.0,0.0,0.0,0.0,0.0,0.0,0.0,0.0,0.0,0.0,0.0,0.0,0.0,0.0,0.0,0.0,0.0,0.0,0.0,0.0,0.0,0.0,0.0,0.0,0.0,0.0,0.0,0.0,0.0,0.0,0.0,0.0,0.0,0.0,0.0,0.0,0.0,0.0,0.0,0.0,0.0,0.0,0.0,0.0,0.0,0.0,0.0,0.0,0.0,0.0,0.0,0.0,0.0,0.0,0.0,0.0,0.0,0.0,0.0,0.0,0.0,0.0,0.0,0.0,0.0,0.0,0.0,0.0,0.0,0.0,0.0,0.0,0.0,0.0,0.0,0.0,0.0,0.0,0.0,0.0,0.0,0.0,0.0,0.0,0.0,0.0,-3.8421,-3.8546,0.0,-4.0423,-4.1351,-4.0979,-4.1237,-4.1422,-4.1422,0.0,0.0,0.0,0.0,0.0,0.0,0.0,0.0,0.0,0.0,0.0,0.0,0.0,0.0,0.0,0.0,0.0,0.0,0.0,0.0,0.0,0.0,0.0,0.0,0.0,0.0,0.0,0.0,0.0,0.0,0.0,0.0,0.0,0.0,0.0,0.0,0.0,0.0,0.0,0.0,0.0,0.0,0.0,0.0,0.0,0.0,0.0,0.0,0.0,0.0,0.0,0.0,0.0,0.0,0.0,0.0,0.0,0.0,0.0,0.0,0.0,0.0,0.0,0.0,0.0,0.0,0.0,0.0,0.0,0.0,0.0,0.0,0.0,0.0,0.0,0.0,0.0,0.0,0.0,0.0,0.0,0.0,0.0,0.0,0.0,0.0,0.0,0.0,0.0,0.0,0.0,0.0,0.0,0.0,0.0,0.0,0.0,0.0,0.0,0.0,0.0,0.0,-3.7039,-3.7338,-3.7489,0.0,-3.9756,-4.1076,-4.0448,-4.1015,-4.1422,-4.1422,0.0,0.0,0.0,0.0,0.0,0.0,0.0,0.0,0.0,0.0,0.0,0.0,0.0,0.0,0.0,0.0,0.0,0.0,0.0,0.0,0.0,0.0,0.0,0.0,0.0,0.0,0.0,0.0,0.0,0.0,0.0,0.0,0.0,0.0,0.0,0.0,0.0,0.0,0.0,0.0,0.0,0.0,0.0,0.0,0.0,0.0,0.0,0.0,0.0,0.0,0.0,0.0,0.0,0.0,0.0,0.0,0.0,0.0,0.0,0.0,0.0,0.0,0.0,0.0,0.0,0.0,0.0,0.0,0.0,0.0,0.0,0.0,0.0,0.0,0.0,0.0,0.0,0.0,0.0,0.0,0.0,0.0,0.0,0.0,0.0,0.0,0.0,0.0,0.0,0.0,0.0,0.0,0.0,0.0,0.0,0.0,0.0,0.0,0.0,0.0,0.0,0.0,-3.6455,-3.7066,-3.7446,-3.7416,-4.0152,-4.1703,-4.1065,-4.1242,-4.1384,0.0,0.0,0.0,0.0,0.0,0.0,0.0,0.0,0.0,0.0,0.0,0.0,0.0,0.0,0.0,0.0,0.0,0.0,0.0,0.0,0.0,0.0,0.0,0.0,0.0,0.0,0.0,0.0,0.0,0.0,0.0,0.0,0.0,0.0,0.0,0.0,0.0,0.0,0.0,0.0,0.0,0.0,0.0,0.0,0.0,0.0,0.0,0.0,0.0,0.0,0.0,0.0,0.0,0.0,0.0,0.0,0.0,0.0,0.0,0.0,0.0,0.0,0.0,0.0,0.0,0.0,0.0,0.0,0.0,0.0,0.0,0.0,0.0,0.0,0.0,0.0,0.0,0.0,0.0,0.0,0.0,0.0,0.0,0.0,0.0,0.0,0.0,0.0,0.0,0.0,0.0,0.0,0.0,0.0,0.0,0.0,0.0,0.0,0.0,0.0,0.0,0.0,0.0,-3.6178,-3.6383,-3.669,-3.7096,-3.8863,-4.0052,-4.0066,-4.0723,-4.1175,-4.1376,0.0,0.0,0.0,0.0,0.0,0.0,0.0,0.0,0.0,0.0,0.0,0.0,0.0,0.0,0.0,0.0,0.0,0.0,0.0,0.0,0.0,0.0,0.0,0.0,0.0,0.0,0.0,0.0,0.0,0.0,0.0,0.0,0.0,0.0,0.0,0.0,0.0,0.0,0.0,0.0,0.0,0.0,0.0,0.0,0.0,0.0,0.0,0.0,0.0,0.0,0.0,0.0,0.0,0.0,0.0,0.0,0.0,0.0,0.0,0.0,0.0,0.0,0.0,0.0,0.0,0.0,0.0,0.0,0.0,0.0,0.0,0.0,0.0,0.0,0.0,0.0,0.0,0.0,0.0,0.0,0.0,0.0,0.0,0.0,0.0,0.0,0.0,0.0,0.0,0.0,0.0,0.0,0.0,0.0,0.0,0.0,0.0,0.0,0.0,0.0,0.0,0.0,-3.5738,-3.5966,-3.6332,-3.6933,-3.831,-3.9442,-3.9985,-4.0404,-4.0812,-4.1376,0.0,0.0,0.0,0.0,0.0,0.0,0.0,0.0,0.0,0.0,0.0,0.0,0.0,0.0,0.0,0.0,0.0,0.0,0.0,0.0,0.0,0.0,0.0,0.0,0.0,0.0,0.0,0.0,0.0,0.0,0.0,0.0,0.0,0.0,0.0,0.0,0.0,0.0,0.0,0.0,0.0,0.0,0.0,0.0,0.0,0.0,0.0,0.0,0.0,0.0,0.0,0.0,0.0,0.0,0.0,0.0,0.0,0.0,0.0,0.0,0.0,0.0,0.0,0.0,0.0,0.0,0.0,0.0,0.0,0.0,0.0,0.0,0.0,0.0,0.0,0.0,0.0,0.0,0.0,0.0,0.0,0.0,0.0,0.0,0.0,0.0,0.0,0.0,0.0,0.0,0.0,0.0,0.0,0.0,0.0,0.0,0.0,0.0,0.0,0.0,0.0,0.0,-3.5286,-3.5809,-3.6358,-3.7011,-3.8247,-3.9475,-4.0389,-4.0224,-4.0373,-4.1232,0.0,0.0,0.0,0.0,0.0,0.0,0.0,0.0,0.0,0.0,0.0,0.0,0.0,0.0,0.0,0.0,0.0,0.0,0.0,0.0,0.0,0.0,0.0,0.0,0.0,0.0,0.0,0.0,0.0,0.0,0.0,0.0,0.0,0.0,0.0,0.0,0.0,0.0,0.0,0.0,0.0,0.0,0.0,0.0,0.0,0.0,0.0,0.0,0.0,0.0,0.0,0.0,0.0,0.0,0.0,0.0,0.0,0.0,0.0,0.0,-5.0854,0.0,0.0,0.0,0.0,0.0,0.0,0.0,0.0,0.0,0.0,0.0,0.0,0.0,0.0,0.0,0.0,0.0,0.0,0.0,0.0,0.0,0.0,0.0,0.0,0.0,0.0,0.0,0.0,0.0,0.0,0.0,0.0,0.0,0.0,0.0,0.0,0.0,0.0,0.0,0.0,0.0,-3.5809,-3.6044,-3.6515,-3.7586,-3.7978,-3.853,-3.9431,-4.0094,-4.0412,-4.0315,-4.0232,0.0,0.0,0.0,0.0,0.0,0.0,0.0,0.0,0.0,0.0,0.0,0.0,0.0,0.0,0.0,0.0,0.0,0.0,0.0,0.0,0.0,0.0,0.0,0.0,0.0,0.0,0.0,0.0,0.0,0.0,0.0,0.0,0.0,0.0,0.0,0.0,0.0,0.0,0.0,0.0,0.0,0.0,0.0,0.0,0.0,0.0,0.0,0.0,0.0,0.0,0.0,0.0,0.0,0.0,0.0,0.0,0.0,0.0,0.0,0.0,-5.045,0.0,0.0,0.0,0.0,0.0,0.0,0.0,0.0,0.0,0.0,0.0,0.0,0.0,0.0,0.0,0.0,0.0,0.0,0.0,0.0,0.0,0.0,0.0,0.0,0.0,0.0,0.0,0.0,0.0,0.0,0.0,0.0,0.0,0.0,0.0,0.0,0.0,0.0,0.0,0.0,-3.6358,-3.6279,-3.6567,-3.7769,-3.79,-3.8258,-3.9121,-3.9766,-4.0207,-4.0474,-4.0415,0.0,0.0,0.0,0.0,0.0,0.0,0.0,0.0,0.0,0.0,0.0,0.0,0.0,0.0,0.0,0.0,0.0,0.0,0.0,0.0,0.0,0.0,0.0,0.0,0.0,0.0,0.0,0.0,0.0,0.0,0.0,0.0,0.0,0.0,0.0,0.0,0.0,0.0,0.0,0.0,0.0,0.0,0.0,0.0,0.0,0.0,0.0,0.0,0.0,0.0,0.0,0.0,0.0,-4.936,-4.9263,-5.0524,-5.0121,-4.9919,-4.9939,-5.0533,-5.0462,-4.9844,0.0,0.0,0.0,0.0,0.0,0.0,0.0,0.0,0.0,0.0,0.0,0.0,0.0,0.0,0.0,0.0,0.0,0.0,0.0,0.0,0.0,0.0,0.0,0.0,0.0,-4.1875,-4.1059,0.0,0.0,0.0,0.0,0.0,0.0,0.0,0.0,0.0,0.0,0.0,0.0,-3.6671,-3.6488,-3.6671,-3.7795,-3.79,-3.8194,-3.8926,-3.9314,-3.983,-4.0519,-4.0373,-4.0531,0.0,0.0,0.0,0.0,0.0,0.0,0.0,0.0,0.0,0.0,0.0,0.0,0.0,0.0,0.0,0.0,0.0,0.0,0.0,0.0,0.0,0.0,0.0,0.0,0.0,0.0,0.0,0.0,0.0,0.0,0.0,0.0,-4.8957,-4.8524,0.0,0.0,0.0,0.0,0.0,0.0,0.0,0.0,0.0,0.0,0.0,0.0,0.0,-4.8627,-4.9796,-4.9343,-4.9191,-4.9429,-5.0093,-5.0296,-5.0033,-5.048,-5.0419,-4.9923,-5.0988,0.0,-5.0533,-4.9796,0.0,0.0,0.0,0.0,0.0,0.0,0.0,0.0,0.0,0.0,0.0,0.0,0.0,0.0,0.0,0.0,0.0,0.0,0.0,0.0,0.0,0.0,-4.0963,-4.0821,-4.0275,-3.9961,0.0,-4.0804,-4.0941,-4.0558,-3.9799,0.0,0.0,0.0,0.0,0.0,0.0,0.0,-3.6201,-3.6619,-3.7142,-3.7821,-3.79,-3.7946,-3.8057,-3.8827,-3.9104,-3.8699,-3.952,-3.9829,-3.9324,-3.9365,0.0,0.0,0.0,0.0,0.0,0.0,0.0,0.0,0.0,0.0,0.0,0.0,0.0,0.0,0.0,0.0,0.0,0.0,0.0,0.0,0.0,0.0,0.0,0.0,0.0,0.0,0.0,0.0,0.0,-4.7521,-4.8221,-4.7578,-4.8336,-4.8397,0.0,0.0,0.0,0.0,0.0,0.0,0.0,0.0,0.0,-4.8807,-4.8412,-4.8687,-4.9855,-4.9383,-4.9557,-5.0498,-5.0707,-5.1178,-5.1884,-5.2145,-5.2459,-5.2825,-5.2981,-5.2776,-5.2085,-5.043,-4.9293,-4.8324,0.0,0.0,0.0,0.0,-4.5076,-4.5235,-4.611,-4.6332,0.0,-4.7742,0.0,0.0,0.0,0.0,0.0,0.0,0.0,0.0,0.0,0.0,0.0,-4.1644,-4.1589,-4.1507,-4.1428,-4.0777,-4.0274,0.0,-4.0312,-3.9694,-3.8592,0.0,0.0,0.0,0.0,-3.5887,-3.6515,-3.6854,-3.7246,-3.7848,-3.79,-3.79,-3.79,-3.8729,-3.9102,-3.8813,-3.9911,-4.0601,-4.0688,-4.0926,-4.1025,0.0,0.0,0.0,0.0,0.0,0.0,0.0,0.0,0.0,0.0,0.0,0.0,0.0,0.0,0.0,0.0,0.0,0.0,0.0,0.0,0.0,0.0,0.0,0.0,0.0,0.0,0.0,0.0,-4.6861,-4.7731,-4.6633,-4.8234,-4.8648,0.0,0.0,0.0,0.0,0.0,0.0,-4.8018,-4.7841,-4.8041,-4.8616,-4.8616,-4.9165,-5.0315,-5.008,-5.0498,-5.1596,-5.1492,-5.2067,-5.3164,-5.3321,-5.3766,-5.4419,-5.4131,-5.3687,-5.3008,-5.0969,-4.9453,-4.825,-4.6259,-4.5111,-4.4491,-4.4233,-4.4015,-4.41,-4.5503,-4.5787,-4.5902,-4.8001,0.0,-4.6833,-4.5313,0.0,0.0,0.0,0.0,-4.1036,-4.1395,-4.1987,-4.2519,-4.2628,-4.2988,-4.3238,-4.2811,-4.1391,-4.0283,0.0,-4.0306,-3.9607,-3.8478,0.0,0.0,0.0,0.0,-3.6227,-3.6907,-3.7142,-3.7403,-3.7848,-3.79,-3.79,-3.79,-3.8504,-3.8944,-3.921,-4.0266,-4.1151,-4.1744,-4.2179,-4.2171,-4.1692,0.0,0.0,0.0,0.0,0.0,0.0,0.0,0.0,0.0,0.0,0.0,0.0,0.0,0.0,0.0,0.0,0.0,0.0,0.0,0.0,0.0,0.0,0.0,0.0,0.0,0.0,0.0,0.0,0.0,-4.512,-4.7376,0.0,0.0,0.0,0.0,-4.6511,-4.7529,-4.8184,-4.821,-4.8728,-4.9244,-4.9793,-4.9793,-5.0368,-5.1492,-5.2067,-5.2067,-5.1596,-5.272,-5.3008,-5.2563,-5.3138,-5.3112,-5.2668,-5.3191,-5.3086,-5.2459,-5.123,-5.008,-4.893,-4.7354,-4.6042,-4.5055,-4.4948,-4.4592,-4.4263,-4.491,-4.5417,-4.6055,-4.827,-4.8499,-4.7356,-4.4363,-4.2515,0.0,0.0,-4.0597,-4.0789,-4.0296,-4.172,-4.3157,-4.2863,-4.3546,-4.4209,-4.4228,-4.292,-4.1376,0.0,-3.8312,-3.7363,-3.7815,0.0,-3.7004,-3.6959,-3.7429,-3.7586,-3.7063,-3.7508,-3.7874,-3.79,-3.79,-3.79,-3.79,-3.7946,-3.8304,-3.9166,-4.0074,-4.0745,-4.1024,-4.1912,-4.2381,-4.2351,-4.1085,0.0,0.0,0.0,0.0,0.0,0.0,0.0,0.0,0.0,0.0,0.0,0.0,0.0,0.0,0.0,0.0,0.0,0.0,0.0,0.0,0.0,0.0,0.0,0.0,0.0,0.0,0.0,0.0,-4.71,-4.9505,0.0,-4.778,-4.7911,-4.8303,-4.8643,-4.9061,-4.9766,-5.089,-5.0786,-5.0969,-5.1544,-5.157,-5.1753,-5.2171,-5.2772,-5.2955,-5.2746,-5.2798,-5.3086,-5.3583,-5.306,-5.3086,-5.3556,-5.3034,-5.2694,-5.2433,-5.1622,-5.1073,-5.0629,-4.9482,-4.8463,-4.7529,-4.7112,-4.6577,-4.5993,-4.5699,-4.6097,-4.6948,-4.848,-4.8427,-4.7425,-4.5817,-4.437,-4.3061,-4.2047,-4.2005,-4.2292,-4.2616,-4.3677,-4.4633,-4.4408,-4.4897,-4.522,-4.4481,-4.3529,-4.2408,-4.0857,-3.923,-3.8057,-3.7926,-3.7403,-3.7011,-3.7011,-3.7194,-3.7246,-3.7037,-3.7534,-3.79,-3.79,-3.79,-3.8148,-3.8684,-3.8747,-3.9149,-4.0043,-4.0986,-4.1357,-4.1036,-4.1912,-4.1991,-4.1115,-4.0636,-4.0516,0.0,0.0,0.0,0.0,0.0,0.0,0.0,0.0,0.0,0.0,0.0,0.0,0.0,0.0,0.0,0.0,0.0,0.0,0.0,0.0,0.0,0.0,0.0,0.0,0.0,0.0,-4.9584,-4.8616,-5.1204,-5.2171,-4.9871,-5.0185,-5.0603,-5.076,-5.1126,-5.1779,-5.2746,-5.2589,-5.2589,-5.2798,-5.2798,-5.2798,-5.2798,-5.3373,-5.3478,-5.3086,-5.3086,-5.3269,-5.3609,-5.306,-5.3086,-5.3583,-5.2825,-5.238,-5.2171,-5.1753,-5.1596,-5.157,-5.0831,-4.9961,-4.8994,-4.8573,-4.7825,-4.7066,-4.6634,-4.711,-4.8,-4.8285,-4.8055,-4.744,-4.6523,-4.5605,-4.466,-4.3924,-4.4033,-4.4447,-4.4761,-4.5508,-4.616,-4.5798,-4.6138,-4.6315,-4.5482,-4.4367,-4.3178,-4.1864,-4.031,-3.8945,-3.805,-3.756,-3.7377,-3.756,-3.7586,-3.7586,-3.7586,-3.7926,-3.8221,-3.833,-3.8349,-3.8684,-3.9607,-3.9694,-3.9976,-4.0703,-4.1328,-4.1517,-4.1155,-4.195,-4.1991,-4.1085,-4.0846,-4.0636,-4.0397,0.0,0.0,0.0,0.0,0.0,0.0,0.0,0.0,0.0,0.0,0.0,0.0,0.0,0.0,0.0,0.0,0.0,0.0,0.0,0.0,0.0,0.0,0.0,-4.6473,-4.9479,-5.0995,-4.9401,-5.2171,-5.3347,-5.1126,-5.2433,-5.3191,-5.2589,-5.3583,-5.3975,-5.3478,-5.3922,-5.3949,-5.3452,-5.3426,-5.3426,-5.3426,-5.3949,-5.3661,-5.2627,-5.3661,-5.3609,-5.2601,-5.3112,-5.3034,-5.2485,-5.2485,-5.2145,-5.1596,-5.1659,-5.1659,-5.1596,-5.1246,-5.0421,-4.9412,-4.9106,-4.83,-4.7313,-4.7612,-4.8382,-4.8995,-4.772,-4.7466,-4.7489,-4.6344,-4.6029,-4.6,-4.5951,-4.6518,-4.7003,-4.653,-4.6986,-4.7503,-4.6986,-4.7096,-4.7339,-4.7309,-4.5561,-4.369,-4.2871,-4.1384,-3.9816,-3.8188,-3.7972,-3.8155,-3.8679,-3.8757,0.0,-3.8778,-3.8778,-3.8912,-3.9247,-3.9282,-3.9651,-4.0589,-4.0646,-4.0773,-4.1036,-4.1018,-4.1155,-4.1414,-4.2021,-4.2381,-4.2381,-4.1752,-4.1085,-4.0457,0.0,0.0,0.0,0.0,0.0,0.0,0.0,0.0,0.0,0.0,0.0,0.0,0.0,0.0,0.0,0.0,0.0,0.0,0.0,0.0,0.0,0.0,-4.8198,-4.8355,-5.0237,-5.1753,-5.2171,-5.3766,-5.4445,-5.3373,-5.3687,-5.3922,-5.3739,-5.4027,-5.4341,-5.4628,-5.4367,-5.4131,-5.3975,-5.3975,-5.3975,-5.3975,-5.455,-5.4905,-5.5102,-5.4484,-5.4311,-5.4432,-5.3271,-5.2642,-5.2485,-5.204,-5.1753,-5.1659,-5.2596,-5.2964,-5.2903,-5.1846,-5.0903,-5.0104,-5.0724,-5.0317,-4.9529,-4.9737,-4.9723,-4.9687,-5.0119,-4.9997,-4.9553,-4.8587,-4.8275,-4.8182,-4.7559,-4.76,-4.7772,-4.7932,-4.8172,-4.8243,-4.7969,-4.797,-4.7878,-4.7399,-4.6407,-4.5355,-4.4457,-4.3514,-4.1936,-3.8972,-3.905,-3.9607,-3.9723,-4.0331,0.0,-4.0129,-4.0074,-4.0316,-4.0872,-4.0944,-4.1293,-4.2265,-4.1904,-4.1756,-4.1981,-4.1546,-4.1335,-4.1384,-4.1602,-4.1692,-4.1692,-4.1991,-4.2051,0.0,0.0,0.0,0.0,0.0,0.0,0.0,0.0,0.0,0.0,0.0,0.0,0.0,0.0,0.0,0.0,0.0,0.0,0.0,0.0,0.0,0.0,-4.8237,-4.9584,-5.008,-5.1596,-5.2955,-5.3635,-5.455,-5.4968,-5.4602,-5.4576,-5.4576,-5.4576,-5.4576,-5.4733,-5.5072,-5.4994,-5.4811,-5.4576,-5.4785,-5.4811,-5.4576,-5.5485,-5.5981,-5.6106,-5.5942,-5.5798,-5.5695,-5.463,-5.3963,0.0,-5.3369,-5.3342,-5.368,-5.4134,-5.4488,0.0,0.0,0.0,0.0,0.0,-5.107,-5.0848,-5.0509,-5.0335,-5.031,-5.0856,-5.0814,-5.0567,-5.0028,-4.995,-4.995,-4.9435,-4.9337,-4.9397,-4.9626,-4.9475,-4.9174,-4.879,-4.8476,-4.8117,-4.7459,-4.68,-4.5994,-4.5069,-4.4385,0.0,-4.105,-4.0968,-4.1276,-4.1452,-4.1976,-4.2193,-4.1827,-4.1531,-4.1677,-4.248,-4.2324,-4.2797,-4.4272,-4.3519,0.0,0.0,0.0,-4.1422,-4.1422,-4.1692,0.0,0.0,0.0,-4.241,-4.241,0.0,0.0,0.0,-4.2671,-4.2701,0.0,0.0,0.0,0.0,0.0,0.0,0.0,0.0,0.0,0.0,0.0,0.0,0.0,0.0,0.0,0.0,-4.9035,-5.0577,-5.1727,-5.3347,-5.4341,-5.421,-5.4733,-5.5099,-5.5099,-5.5151,-5.5203,-5.5203,-5.5203,-5.5203,-5.5203,0.0,0.0,0.0,0.0,-5.582,-5.5377,-5.6578,-5.7013,-5.6648,-5.7707,-5.7612,-5.6606,-5.6514,-5.6145,-5.5496,-5.5496,-5.5864,-5.6342,-5.5812,-5.6072,-5.6613,-5.5556,-5.457,-5.3472,-5.1612,-5.1309,-5.1795,-5.0796,0.0,0.0,-5.0762,-5.0769,-5.087,-5.087,-5.1011,-5.1229,-5.1229,-5.1229,-5.1229,-5.1229,-5.0674,-5.0016,-4.9404,-4.882,-4.8117,-4.7459,-4.68,-4.6066,-4.5288,-4.469,-4.4226,-4.3987,-4.3336,-4.3036,-4.35,-4.3675,-4.3692,-4.3607,-4.3154,-4.3152,-4.4079,0.0,0.0,-4.6237,-4.5125,-4.4317,-4.4317,-4.2551,-4.1542,-4.1542,-4.2171,-4.25,-4.25,-4.25,-4.25,-4.25,-4.25,-4.2761,-4.329,-4.2731,-4.2791,0.0,0.0,0.0,0.0,0.0,0.0,0.0,0.0,0.0,0.0,0.0,0.0,0.0,0.0,0.0,-4.8433,-5.0577,-5.238,-5.353,-5.4785,-5.5229,-5.4314,-5.4733,-5.5099,-5.5099,-5.5491,-5.5752,-5.5752,-5.5752,-5.5752,-5.5752,-5.5857,-5.5857,-5.5752,-5.6327,-5.6871,-5.7366,-5.7601,-5.8317,-5.9348,0.0,0.0,-5.7801,-5.7293,-5.6732,-5.6201,-5.6201,-5.6257,-5.6432,-5.6738,-5.7528,-5.8254,-5.511,-5.4317,-5.4717,-5.2785,-5.3107,-5.4309,-5.304,-5.2662,-5.2647,-5.2043,-5.1506,-5.1105,-5.1105,-5.1182,0.0,-5.1229,-5.1229,-5.1229,-5.1229,-5.0674,-5.0016,-4.9404,-4.882,-4.8117,-4.7459,-4.68,-4.6386,-4.6764,-4.6721,-4.6797,-4.7274,-4.5741,-4.4456,-4.4527,-4.5201,-4.5529,-4.501,-4.4832,-4.5023,-4.5756,-4.5739,-4.602,-4.6997,-4.5394,-4.4317,-4.4317,-4.297,-4.2201,-4.2201,-4.2791,-4.315,-4.315,-4.315,-4.315,-4.315,-4.315,-4.317,-4.329,-4.317,-4.317,0.0,0.0,0.0,0.0,0.0,0.0,0.0,0.0,0.0,0.0,0.0,-4.4785,-4.5485,0.0,-4.7911,-4.9662,-5.1126,-5.2459,-5.3635,-5.4785,-5.5282,-5.4733,-5.5151,-5.5517,-5.5517,-5.5752,-5.604,-5.6327,-5.6353,-5.6353,-5.6353,-5.6641,-5.6641,-5.6379,-5.6928,-5.7456,-5.7922,-5.8612,-5.9451,-6.0584,-6.0584,-6.0297,-5.9669,-5.9655,-5.8958,-5.7768,-5.8464,-5.8754,-5.8783,-5.906,-5.9118,-5.8901,-5.6694,-5.5946,-5.5984,-5.3987,-5.387,-5.4551,-5.3533,-5.3174,-5.3084,-5.2426,-5.1977,-5.1648,-5.1319,-5.1229,-5.1229,-5.1229,-5.1229,-5.1229,-5.1229,-5.0913,-5.0481,-4.9494,-4.906,-4.8506,-4.7519,-4.704,-4.692,-4.7249,-4.7578,-4.7908,-4.8237,-4.7614,-4.6978,-4.6609,-4.6678,-4.6681,-4.6352,-4.6292,-4.6441,-4.677,-4.68,-4.707,-4.7728,-4.6591,-4.5394,-4.4377,-4.4018,-4.3688,-4.3359,-4.3958,-4.4317,-4.4317,-4.4317,-4.4317,-4.4317,-4.3947,-4.3798,-4.3768,-4.3439,-4.329,0.0,0.0,0.0,0.0,0.0,0.0,0.0,0.0,-4.3365,-4.3782,-4.4774,-4.6003,-4.7414,-4.8146,-4.9035,-5.0681,-5.1413,-5.2197,-5.34,-5.4445,-5.5099,-5.5099,-5.5674,-5.604,-5.5909,-5.6363,-5.6841,-5.7315,-5.7367,-5.7367,-5.7367,-5.7607,-5.7451,-5.6981,-5.7529,-5.8096,-5.8642,-5.9718,-6.0745,-6.17,-6.2644,-6.245,-6.1313,-6.1732,-6.1104,-5.9757,-6.0835,-6.1164,-6.0924,-6.0924,-6.0206,-5.9039,-5.8381,-5.7782,-5.7064,-5.5269,-5.4521,-5.4311,-5.3773,-5.3414,-5.3084,-5.2576,-5.2217,-5.1917,-5.1379,-5.1229,-5.1229,-5.1229,-5.1229,-5.1229,-5.1229,-5.1229,-5.093,-4.9733,-4.9419,-4.9,-4.7802,-4.7532,-4.7489,-4.7532,-4.8161,-4.8656,-4.8656,-4.9105,-4.9224,-4.8566,-4.8027,-4.7698,-4.7698,-4.7698,-4.7698,-4.7698,-4.7698,-4.7788,-4.8087,-4.7608,-4.6501,-4.4616,-4.5005,-4.5065,-4.4526,-4.5005,-4.5304,-4.5304,-4.5304,-4.5304,-4.5304,-4.4766,-4.4496,-4.4496,-4.3958,-4.3529,-4.4086,-4.3475,-4.3545,-4.4897,-4.3761,-4.3108,0.0,0.0,-4.5564,-4.663,-4.778,-4.8669,-4.8852,-4.9322,-5.0106,-5.1309,-5.2014,-5.2798,-5.3949,-5.468,-5.5099,-5.5099,-5.6066,-5.6484,-5.5961,-5.7998,-5.9359,-5.944,-5.944,-5.944,-5.944,-5.8345,-5.7704,-5.7625,-5.8131,-5.9376,-6.1324,-6.1519,-6.2268,-6.3711,-6.326,-6.269,-6.1972,-6.1463,-6.1433,-6.1762,-6.1912,-6.1313,-6.0206,-6.0206,-5.9757,-5.9039,-5.8381,-5.8082,-5.7842,-5.6466,-5.5598,-5.5059,-5.4999,-5.4192,-5.3174,-5.3084,-5.2276,-5.1319,-5.1229,-5.1229,-5.1229,-5.1229,-5.1229,-5.1229,-5.1229,-5.1229,-5.0973,-5.0255,-4.9673,-4.9134,-4.8591,-4.8309,-4.8265,-4.841,-4.9299,-4.9986,-4.9986,-5.0046,-4.9912,-4.9299,-4.9149,-4.909,-4.909,-4.909,-4.909,-4.909,-4.909,-4.8596,-4.7519,-4.7339,-4.6711,-4.5274,-4.5244,-4.5274,-4.5185,-4.5244,-4.5304,-4.5304,-4.5304,-4.5304,-4.5304,-4.5214,-4.5185,-4.5185,-4.5095,-4.4436,-4.5001,-4.4545,-4.4432,-4.4864,-4.5059,-4.5527,-4.7081,-4.7264,-4.7427,-4.8647,-4.9541,-5.0296,-5.105,-5.1276,-5.2103,0.0,-5.4294,-5.4746,-5.6314,-5.7068,-5.7451,-5.7451,-5.8778,-5.8819,-5.6621,-5.8455,-5.9955,-6.0213,-6.1051,-6.1185,-6.0335,-5.9747,-5.9014,-5.8227,-5.8392,-5.9579,-6.1809,-6.1781,-6.2503,-6.4006,-6.3737,-6.3079,-6.2121,-6.257,-6.2929,-6.3169,-6.2421,-6.1762,-6.1224,-6.0835,-6.0296,-5.9608,-5.8949,-5.8471,-5.8022,-5.7064,-5.6316,-5.5777,-5.5777,-5.5149,-5.4381,-5.4564,-5.3887,-5.2972,-5.3216,-5.254,-5.1935,-5.2467,-5.2064,-5.1523,-5.2131,-5.195,-5.1498,-5.0834,-5.0442,-5.0125,-4.9563,-4.9367,-4.9279,-4.9191,-4.9855,-5.0379,-5.0242,-5.0495,-5.072,-5.0451,-4.9763,-4.9299,-4.9299,-4.9613,-4.9823,-4.9823,-4.9494,-4.894,-4.7967,-4.7878,-4.7489,-4.6531,-4.6471,-4.6471,-4.6471,-4.6471,-4.6471,-4.6471,-4.6471,-4.6471,-4.6471,-4.6082,-4.5903,-4.5873,-4.5484,-4.5005,-4.4933,-4.4835,-4.4921,-4.5045,-4.6243,-4.7496,-4.8109,-4.8455,-4.9019,-5.0191,-5.1016,-5.188,-5.2956,-5.3347,-5.4213,-5.6297,-5.6204,-5.6541,-5.8244,-5.8564,-5.8699,-5.9098,-6.0181,-6.0134,-5.7866,-5.9827,-6.1342,-6.1785,-6.2773,-6.2773,-6.1301,-6.0825,-5.9958,-5.8497,-5.885,-6.0046,-6.2062,-6.2425,-6.3318,-6.4545,-6.4545,-6.3887,-6.266,-6.3408,-6.3558,-6.3169,-6.2421,-6.2002,-6.1762,-6.1104,-6.0535,-6.0027,-5.9368,-5.88,-5.8351,-5.7842,-5.7124,-5.6406,-5.6278,-5.5921,-5.5579,-5.5678,-5.5084,-5.4389,-5.4604,-5.3675,-5.2624,-5.3375,-5.2898,-5.2252,-5.2866,-5.2639,-5.2093,-5.1425,-5.1122,-5.0893,-5.0465,-5.033,-5.0241,-5.0108,-5.0517,-5.0833,-5.0649,-5.0947,-5.1229,-5.1229,-5.0421,-4.9793,-4.9793,-5.0212,-5.0465,-5.0465,-4.9912,-4.9344,-4.8865,-4.8656,-4.8267,-4.7608,-4.7578,-4.7489,-4.7309,-4.7309,-4.7309,-4.7309,-4.7309,-4.7309,-4.7309,-4.683,-4.6591,-4.6591,-4.6082,-4.5843,-4.2688,-4.3148,-4.4076,-4.5801,-4.6818,-4.7865,-4.9633,-5.0017,-5.0271,-5.1443,-5.2594,-5.3646,-5.4338,-5.5446,-5.6507,-5.7189,-5.7242,-5.7664,-5.8992,-5.8086,-5.7744,-5.8924,-5.9058,-5.9186,0.0,-6.2835,-6.4723,-6.4752,-6.4816,-6.421,-6.2773,-6.1369,-5.9958,-5.8497,-5.982,-6.1301,-6.2745,-6.4117,-6.5191,-6.5951,-6.5951,-6.5233,-6.3917,-6.3378,-6.2421,-6.1224,-6.1822,-6.1732,-6.1104,-6.0416,-6.0116,-6.0027,-5.9368,-5.9099,-5.9069,-5.9069,-5.8201,-5.6974,-5.6376,-5.6345,-5.6467,-5.5916,-5.5238,-5.4715,-5.4684,-5.3979,-5.3193,-5.3495,-5.3592,-5.3459,-5.3108,-5.2973,-5.2791,-5.2123,-5.1455,-5.1045,-5.1222,-5.1119,-5.0984,-5.1222,-5.141,-5.1542,-5.1542,-5.1339,-5.1229,-5.1229,-5.1199,-5.1169,-5.1169,-5.1169,-5.1199,-5.1199,-5.0554,-5.0166,-5.0136,-4.9613,-4.9,-4.8297,-4.8267,-4.7967,-4.7339,-4.7309,-4.7309,-4.7309,-4.7309,-4.7309,-4.7309,-4.7279,-4.7279,-4.7279,-4.7249,-4.7249,-4.3206,-4.4536,-4.6342,-4.7768,-4.8897,-5.007,-5.1516,-5.2267,-5.2738,-5.3097,-5.3434,-5.3892,-5.4486,-5.5195,-5.6275,-5.8195,-5.9596,-6.0863,-6.217,-6.2378,-6.2231,-6.1791,-6.2054,0.0,0.0,0.0,0.0,-6.4851,-6.5731,-6.5668,-6.4303,-6.284,-6.184,-6.1369,-6.0825,-6.1746,-6.4146,-6.4688,-6.5283,-6.6011,-6.5114,-6.4665,-6.4635,-6.3558,-6.3049,-6.2989,-6.2361,-6.1732,-6.1074,-6.0386,-6.0086,-6.0027,-5.9368,-5.9099,-5.9159,-5.9608,-5.9189,-5.8368,-5.8075,-5.7771,-5.7532,-5.7713,-5.7197,-5.6482,-5.6482,-5.5494,-5.454,-5.5287,-5.4818,-5.4135,-5.4126,-5.3775,-5.3285,-5.2611,-5.2611,-5.281,-5.2901,-5.3193,-5.3438,-5.3392,-5.3436,-5.3401,-5.3213,-5.2976,-5.2587,-5.1947,-5.1498,-5.1229,-5.1229,-5.1229,-5.1229,-5.1229,-5.102,-5.0674,-5.0226,-4.9986,-4.9643,-4.903,-4.8536,-4.8177,-4.7967,-4.7549,-4.7309,-4.7309,-4.7309,-4.7309,-4.7309,-4.7309,-4.7309,-4.7309,-4.7309,-4.7309,-4.4047,-4.5825,-4.7964,-4.941,-5.0753,-5.2076,-5.3334,-5.3823,-5.4051,-5.4025,-5.388,-5.3866,-5.4269,-5.4996,-5.6177,-5.8053,-5.9497,-6.0969,-6.2647,-6.2735,-6.2676,-6.2647,-6.3236,-6.3588,0.0,0.0,0.0,-6.4901,-6.6209,-6.6295,-6.4624,-6.3902,-6.33,-6.284,-6.2375,-6.3009,-6.488,-6.5182,-6.5394,-6.5652,-6.5024,-6.4814,-6.4994,-6.3677,-6.3169,-6.3258,-6.1942,-6.1134,-6.0685,-6.0027,-5.9877,-6.0082,-6.0066,-6.0046,-6.0106,-6.053,-6.0493,-6.016,-5.9767,-5.9482,-5.9283,-5.9529,-5.9168,-5.8641,-5.8246,-5.6994,-5.5865,-5.6568,-5.5993,-5.5061,-5.4759,-5.4576,-5.4206,-5.3283,-5.3591,-5.4145,-5.436,-5.476,-5.5021,-5.488,-5.4816,-5.466,-5.4226,-5.3832,-5.3423,-5.278,-5.2234,-5.1738,-5.1289,-5.1229,-5.1229,-5.1229,-5.1229,-5.105,-5.0584,-5.0554,-5.0301,-4.9643,-4.9224,-4.8865,-4.87,-4.8237,-4.7908,-4.7668,-4.7668,-4.7549,-4.7309,-4.7309,-4.7309,-4.7309,-4.7309,-4.7309,-4.511,-4.688,-4.8913,-5.0731,-5.2296,-5.3647,-5.4805,-5.4732,-5.4279,-5.411,-5.3885,-5.3685,0.0,0.0,-5.6346,-5.6892,-5.7319,-5.8406,-6.0607,-5.9538,-5.9452,0.0,0.0,0.0,0.0,0.0,0.0,-6.5024,0.0,-6.6088,-6.4135,-6.4624,-6.4303,-6.3037,-6.421,-6.4944,-6.5007,-6.57,-6.5652,-6.4994,-6.5652,-6.5622,-6.4994,-6.3677,-6.272,-6.2061,-6.0685,-6.0057,-5.9997,-5.9368,-5.9542,-6.0276,-6.1347,-6.1822,-6.1875,-6.1958,-6.2083,-6.2136,-6.1503,-6.1388,-6.1488,-6.1195,-6.1096,-6.0863,-5.9833,-5.84,-5.7162,-5.7412,-5.7021,-5.6322,-5.5161,-5.5378,-5.5595,-5.4252,-5.4484,-5.5146,-5.5748,-5.5933,-5.5995,-5.5933,-5.5773,-5.5446,-5.4772,-5.4175,-5.3791,-5.3682,-5.3428,-5.2755,-5.1468,-5.1319,-5.1319,-5.1259,-5.1259,-5.1259,-5.1229,-5.1229,-5.096,-5.0285,-5.0196,-4.9972,-4.9389,-4.9329,-4.903,-4.8356,-4.8327,-4.8027,-4.7399,-4.7399,-4.7399,-4.7369,-4.7369,-4.7339,-4.667,-4.8644,-5.0632,-5.113,-5.2426,-5.3597,-5.3928,-5.5085,-5.5701,-5.4192,-5.3935,-5.3495,0.0,0.0,0.0,-5.506,-5.8258,0.0,-6.0904,-6.0983,0.0,-6.2518,0.0,-6.3263,-6.3919,-6.4635,0.0,0.0,-6.5802,-6.6279,-6.6209,-6.5392,-6.5227,-6.5919,-6.5261,-6.5416,-6.6446,-6.6158,-6.5413,-6.4276,-6.4934,-6.5203,-6.4994,-6.3677,-6.2989,-6.272,-6.0894,-5.9817,-5.9338,-5.9189,-5.9999,-6.14,-6.1717,-6.226,-6.3091,-6.3716,-6.3344,-6.2689,-6.4126,-6.3544,-6.2181,-6.2505,-6.2142,-6.1326,-6.0377,-5.9252,-5.8366,-5.8416,-5.8435,-5.8311,-5.7479,-5.7997,-5.8453,-5.7632,-5.8155,-5.8766,-5.8421,-5.9175,-5.9741,-5.9238,-5.9096,-5.8781,-5.7871,-5.6994,-5.5986,-5.4545,-5.4296,-5.3898,-5.2833,-5.2665,-5.2486,-5.2007,-5.1947,-5.1738,-5.1259,-5.1386,-5.1326,-5.099,-5.0649,-5.0335,-5.0002,-4.9523,-4.9239,-4.906,-4.906,-4.897,-4.882,-4.882,-4.8506,-4.8027,-4.8027,-4.7788,-4.805,-4.9834,-5.1578,-5.2244,-5.3298,-5.422,-5.4272,-5.5207,-5.5386,-5.2984,-5.2454,-5.1857,-4.9995,-5.2614,-5.4719,0.0,0.0,0.0,-5.9935,-6.0385,-6.1098,0.0,-6.3524,0.0,-6.4845,-6.5233,-6.5592,0.0,-6.6221,-6.646,-6.655,-6.6112,-6.6198,-6.6999,-6.626,-6.5932,-6.6131,-6.6041,-6.5323,-6.4006,-6.4994,-6.5144,-6.4545,-6.3528,-6.275,-6.2121,0.0,-5.9458,-5.9099,-5.9099,-5.9978,-6.139,-6.2188,-6.318,-6.4188,-6.4737,-6.4529,-6.4093,-6.5095,-6.4649,-6.3734,-6.4376,-6.3979,-6.3153,-6.252,-6.1488,-6.0563,-6.0563,-6.044,-6.0206,-5.9503,-5.9987,-6.0465,-5.9794,-6.0309,-6.0956,-6.086,-6.1421,-6.1869,-6.1453,-6.1134,-6.0814,-6.0259,-5.9236,-5.8022,-5.6682,-5.5925,-5.517,-5.4359,-5.3631,-5.3025,-5.2665,-5.2366,-5.2157,-5.2097,-5.194,-5.191,-5.2067,-5.188,-5.155,-5.1109,-5.075,-5.0301,-4.9703,-4.9673,-4.9553,-4.9299,-4.9299,-4.912,-4.876,-4.876,-4.8741,-4.9427,-5.0843,-5.2246,-5.3554,-5.4461,-5.5059,-5.502,-5.5021,-5.4237,-5.1558,-5.0672,-4.9956,-4.8446,-5.0955,-5.3212,-5.3136,0.0,-5.6792,-5.8597,-5.9058,-5.9977,-6.1844,-6.4322,-6.5949,-6.6131,-6.6131,-6.637,-6.6939,-6.6999,-6.6759,-6.6161,-6.667,-6.6999,-6.6999,-6.6999,-6.637,-6.5054,-6.5682,-6.5293,-6.3887,-6.5323,-6.5293,-6.3977,-6.3438,-6.254,-6.1283,0.0,0.0,-5.9368,-5.9279,-5.9917,-6.1165,-6.2883,-6.4122,-6.5058,-6.5451,-6.5666,-6.5765,-6.5312,-6.5304,-6.5603,-6.6234,-6.5913,-6.5291,-6.5013,-6.41,-6.3098,-6.3098,-6.2737,-6.2256,-6.1585,-6.2,-6.2448,-6.173,-6.2097,-6.2711,-6.3283,-6.3446,-6.3459,-6.3499,-6.2932,-6.2353,-6.2158,-6.1084,-6.0012,-5.9318,-5.8102,-5.7009,-5.6382,-5.4647,-5.3414,-5.3324,-5.2815,-5.2636,-5.3025,-5.2654,-5.2594,-5.3025,-5.3193,-5.2983,-5.2366,-5.2336,-5.1798,-5.0614,-5.0584,-5.0301,-4.9689,-4.9689,-4.9644,-4.9599,-4.9599,-5.0042,-5.1026,-5.2379,-5.3664,-5.3919,-5.4695,-5.5265,-5.4689,-5.4453,0.0,-5.2368,-5.1194,-5.0239,-4.9399,-5.0782,-5.2139,-5.2591,-5.4583,-5.6737,-5.8643,-5.936,-6.0709,0.0,-6.445,-6.5584,-6.6697,-6.6819,0.0,0.0,0.0,-6.6939,-6.6819,-6.6939,-6.6999,-6.6999,-6.6999,-6.637,-6.5054,-6.5682,-6.5084,-6.3258,-6.5114,-6.5293,-6.4006,-6.3887,-6.3438,-6.263,-6.0745,0.0,-6.0715,-6.0146,-6.0886,-6.2553,-6.3743,-6.4668,-6.5404,-6.6498,-6.6656,-6.634,-6.6464,-6.6482,-6.6558,-6.6693,-6.6076,-6.5281,-6.5246,-6.4905,-6.4557,-6.4557,-6.5022,-6.5433,-6.4706,-6.569,-6.6657,-6.5951,-6.6146,-6.6555,-6.6733,-6.6766,-6.6829,-6.6987,-6.6235,-6.5234,-6.4057,-6.2978,-6.2017,-6.1092,-6.0764,-6.0374,-5.9902,-5.6917,-5.464,-5.4102,-5.3922,-5.3443,-5.2456,-5.2978,-5.3086,-5.2396,-5.3098,-5.3387,-5.3025,-5.3025,-5.2905,-5.2665,-5.2665,-5.2336,-5.1708,-5.1708,-5.1528,-5.1216,-5.1216,-5.1401,-5.1972,-5.333,-5.4781,-5.5602,-5.5896,-5.5795,-5.4737,0.0,0.0,-5.0454,-4.9803,-4.939,-4.8578,-5.0338,-5.1915,-5.2051,-5.4009,-5.636,-5.862,-5.9757,-6.1409,-6.412,-6.5367,-6.626,0.0,-6.6999,-6.6999,0.0,0.0,-6.6999,-6.6999,-6.6999,-6.6999,-6.6999,-6.6999,-6.652,-6.5533,-6.5503,-6.5024,-6.4096,-6.4695,-6.4455,-6.3528,-6.3528,-6.2989,-6.2002,-6.1044,0.0,-6.1104,-6.0745,-6.1461,-6.2893,-6.4086,-6.4848,-6.5419,-6.6857,-6.7026,-6.6574,-6.7167,-6.7117,-6.7015,-6.8199,-6.7695,-6.6742,-6.7144,-6.6901,-6.6476,-6.6476,-6.6823,-6.711,-6.6742,-6.755,-6.8538,-6.8571,-6.8728,-6.892,-6.8965,-6.8965,-6.9088,-6.9566,-6.8661,-6.7579,-6.692,-6.5293,-6.3863,-6.3019,-6.2347,-6.1713,-6.1128,-5.9317,-5.766,-5.6644,-5.5441,-5.461,-5.4281,-5.4021,-5.389,-5.3743,-5.4171,-5.425,-5.3743,-5.3713,-5.3563,-5.3204,-5.3174,-5.3025,-5.2725,-5.287,-5.3031,-5.3205,-5.2956,-5.3377,-5.2762,-5.4147,-5.5665,-5.686,-5.7026,-5.6433,-5.4732,-5.3281,0.0,-4.8925,-4.8662,-4.8795,-4.8362,-4.9864,-5.132,-5.171,-5.3043,-5.5124,-5.8167,-5.983,-6.1697,0.0,-6.6055,0.0,-6.6999,-6.6999,0.0,0.0,0.0,0.0,-6.6969,-6.6849,-6.6789,-6.6789,-6.664,-6.6251,-6.5592,-6.5203,-6.4874,-6.4605,-6.4336,-6.3827,-6.3079,-6.3199,-6.263,-6.1523,-6.1373,0.0,0.0,-6.1373,-6.1785,-6.271,-6.4326,-6.4991,-6.5378,-6.7179,-6.7526,-6.7165,-6.792,-6.7895,-6.7793,-6.9417,-6.9011,-6.8064,-6.9045,-6.8876,-6.8402,-6.8402,-6.8504,-6.8605,-6.8436,-6.8977,-6.9688,-7.0094,-7.0297,-7.0432,-7.0432,-7.0567,-7.0838,-7.1447,-7.0601,-6.9755,-6.9586,-6.7892,-6.6268,-6.5447,-6.4494,-6.3499,-6.2606,-6.1975,-6.1184,-6.0014,-5.7503,-5.6073,-5.6515,-5.548,-5.4999,-5.5388,-5.5538,-5.5359,-5.485,-5.475,-5.447,-5.3931,-5.383,-5.3729,-5.3609,-5.4013,-5.4493,-5.5069,-5.4961,-5.5643,-5.3464,-5.49,-5.6307,-5.6404,-5.7099,-5.7065,-5.4228,0.0,-5.1827,-5.024,-4.9398,-4.9379,-5.055,-4.9599,-4.9383,-5.1684,-5.1374,-5.232,-5.6683,-5.8966,-6.1145,-6.3771,0.0,0.0,-6.6999,0.0,0.0,0.0,0.0,0.0,-6.6969,-6.643,-6.6101,-6.6101,-6.5533,-6.4874,-6.4186,-6.4755,-6.4425,-6.3258,-6.4395,-6.4276,-6.3109,-6.3647,-6.3528,-6.2869,-6.2271,0.0,0.0,-6.2241,-6.2058,-6.2367,-6.4685,-6.5376,-6.5415,-6.7733,-6.8692,-6.8866,-6.8977,-6.9383,-6.9789,-6.935,-6.8605,-6.8166,-6.9654,-7.0026,-6.9992,-6.9992,-7.0466,-7.0838,-7.0161,-7.0534,-7.0973,-7.0331,-7.0703,-7.121,-7.121,-7.1718,-7.2225,-7.2293,-7.2191,-7.1887,-7.121,-7.0884,-7.0265,-6.8847,-6.8557,-6.7887,-6.6259,-6.5138,-6.4309,-6.3743,-6.0495,-5.817,-5.7636,-5.7111,-5.6615,-5.6158,-5.6615,-5.6885,-5.6825,-5.6543,-5.6365,-5.6304,-5.5951,-5.5444,-5.4837,-5.5703,-5.6165,-5.6252,-5.731,-5.8216,-5.4476,-5.6589,-5.8552,-5.847,-5.7858,-5.6697,-5.4634,-5.2503,-5.0676,-4.9661,-4.9187,-4.9297,-5.0289,-4.9292,-4.8781,-5.016,-4.976,-5.0415,-5.371,-5.5179,-5.7663,-6.2301,-6.3558,0.0,0.0,0.0,0.0,0.0,0.0,0.0,-6.5802,-6.5562,-6.5413,-6.5413,-6.5173,-6.4904,-6.4605,-6.4485,-6.4156,-6.3617,-6.3767,-6.3588,-6.3079,-6.3318,-6.3318,-6.3079,-6.281,0.0,0.0,-6.2952,-6.2976,-6.323,-6.5828,-6.6465,-6.6222,-6.8681,-6.9363,-6.9248,-7.0128,-7.0331,-7.0432,-7.1921,-7.1312,-6.9992,-7.0128,-7.05,-7.077,-7.0297,-7.0398,-7.0567,-7.0263,-7.1075,-7.1887,-7.1582,-7.1953,-7.2549,-7.316,-7.3371,-7.3527,-7.3667,-7.3003,-7.2157,-7.1447,-7.0939,-7.0432,-6.9857,-7.0128,-7.0016,-6.8847,-6.8104,-6.7376,-6.6763,-6.2906,-6.0045,-5.8985,-5.841,-5.7973,-5.773,-5.7308,-5.748,-5.8267,-5.7628,-5.7281,-5.7404,-5.7314,-5.6909,-5.6241,-5.6721,-5.7293,-5.7847,-5.8044,-5.8814,-5.477,-5.7069,-5.9304,-5.9223,-5.7988,-5.6359,-5.4668,-5.2266,-5.0135,-4.9187,-4.9018,-4.9221,-4.9965,-4.9326,-4.8813,-4.9236,-4.8891,-4.927,-5.1379,-5.2407,-5.476,0.0,0.0,-6.2151,0.0,0.0,0.0,0.0,0.0,0.0,-6.4485,-6.4455,-6.4545,-6.4725,-6.4545,-6.4455,-6.4455,-6.3977,-6.3707,-6.3707,-6.3288,-6.3079,-6.3079,-6.3079,-6.3079,-6.3079,0.0,0.0,0.0,-6.3424,-6.3595,-6.3906,-6.6554,-6.7264,-6.7113,-6.962,-7.0195,-6.9891,-7.0939,-7.1109,-7.1142,-7.3037,-7.2868,-7.1785,-7.0715,-7.0738,-7.1041,-7.0456,-7.0321,-7.0411,-7.05,-7.1447,-7.2394,-7.2394,-7.2785,-7.3353,-7.4283,-7.4262,-7.4234,-7.4708,-7.3945,-7.3114,-7.2699,-7.1988,-7.1413,-7.121,-7.1413,-7.1278,-7.0297,-6.9929,-6.9357,-6.8406,-6.5496,-6.2924,-6.1352,-6.0059,-5.9406,-5.9756,-5.8777,-5.8623,-5.9656,-5.8899,-5.843,-5.841,-5.8278,-5.7994,-5.7506,-5.7789,-5.8213,-5.8815,-5.8915,-5.9736,-5.4013,-5.5876,-5.7707,-5.7628,-5.7218,-5.6224,-5.4025,-5.2334,-5.0745,-4.9323,-4.9018,-4.9221,-4.9965,-4.9814,-4.956,-4.944,-4.9005,-4.9094,-5.0254,-5.1439,-5.3204,0.0,0.0,-5.9219,0.0,0.0,0.0,0.0,0.0,0.0,-6.3139,-6.3109,-6.3378,-6.3977,-6.3408,-6.3109,-6.3109,-6.3079,-6.3079,-6.3079,-6.3079,-6.3079,-6.3079,-6.3079,-6.3079,0.0,0.0,0.0,0.0,-6.3538,-6.3709,-6.4244,-6.6658,-6.7604,-6.7907,-7.0389,-7.1312,-7.1312,-7.1312,-7.1785,-7.2259,-7.1582,-7.2326,-7.3126,-7.1445,-7.0916,-7.087,-7.0561,-7.0699,-7.0961,-7.1222,-7.1853,-7.2394,-7.2394,-7.2785,-7.3306,-7.4046,-7.4023,-7.4079,-7.5108,-7.5291,-7.534,-7.5594,-7.5033,-7.4322,-7.3578,-7.2834,-7.1853,-7.0364,-7.0195,-6.9714,-6.8451,-6.8261,-6.7306,-6.5058,-6.2286,-6.1102,-6.2207,-6.1255,-6.0774,-6.1082,-6.0714,-6.0121,-5.942,-5.898,-5.8793,-5.8762,-5.9078,-5.9034,-5.8813,-6.0305,-6.1473,-5.3668,-5.5347,-5.6841,-5.583,-5.4628,-5.3416,-5.2198,-5.0777,-4.956,-4.912,-4.9018,-4.9221,-4.9965,-4.9409,-4.9326,-5.0687,-4.9609,-4.8897,0.0,0.0,0.0,-5.5858,-6.0116,-6.3169,0.0,0.0,0.0,0.0,0.0,0.0,-6.245,-6.2421,-6.269,-6.3348,-6.3169,-6.3079,-6.3079,-6.3079,-6.3079,-6.3079,-6.3079,-6.3194,-6.3367,-6.3367,0.0,0.0,0.0,0.0,0.0,-6.4019,-6.4188,-6.4493,-6.7002,-6.7971,-6.8221,-7.0469,-7.1312,-7.1379,-7.1887,-7.21,-7.2199,-7.2653,-7.2674,-7.2355,-7.1837,-7.1656,-7.1555,-7.0959,-7.0825,-7.1096,-7.183,-7.2225,-7.2665,-7.368,-7.3898,-7.4094,-7.5026,-7.5003,-7.4839,-7.4809,-7.4823,-7.4702,-7.4289,-7.4424,-7.4525,-7.4289,-7.4052,-7.3544,-7.2563,-7.1852,-7.1017,-6.9913,-6.924,-6.7963,-6.582,-6.485,-6.4284,-6.4095,-6.32,-6.296,-6.3483,-6.2165,-6.1427,-6.1358,-6.0597,-5.9932,-5.947,-5.9575,-5.9648,-5.9743,-6.0399,-6.1248,-5.2603,-5.4059,-5.5344,-5.4397,-5.3044,-5.1758,-5.1286,-5.0067,-4.9018,-4.9018,-4.8956,-4.906,-4.9499,-4.9179,-4.9127,-5.0146,-4.9373,-4.8954,0.0,0.0,0.0,-5.5777,0.0,0.0,0.0,0.0,0.0,0.0,0.0,0.0,-6.1762,-6.1972,-6.2391,-6.3049,-6.3079,-6.3079,-6.3079,-6.3079,-6.3137,-6.3252,-6.3252,-6.3424,-6.3709,-6.3709,0.0,0.0,0.0,0.0,0.0,-6.4326,-6.4437,-6.4771,-6.6722,-6.7719,-6.8271,-7.0029,-7.0961,-7.1334,-7.1728,-7.1727,-7.1702,-7.2312,-7.23,-7.1993,-7.1993,-7.1947,-7.1766,-7.1072,-7.132,-7.1837,-7.2269,-7.28,-7.3477,-7.439,-7.4607,-7.4801,-7.5417,-7.5373,-7.5094,-7.4944,-7.4891,-7.4722,-7.439,-7.4492,-7.4695,-7.4965,-7.4559,-7.4018,-7.3544,-7.2696,-7.1724,-7.0628,-6.9975,-6.9044,-6.757,-6.6549,-6.5965,-6.5908,-6.5045,-6.4723,-6.5016,-6.3581,-6.2622,-6.2319,-6.1328,-6.0578,-6.0178,-5.9901,-5.9961,-6.0202,-6.0401,-6.0954,0.0,-5.2131,-5.3247,-5.3179,-5.2097,-5.1016,-5.1016,-4.9999,0.0,-4.9018,-4.8894,-4.8803,-4.8837,-4.9054,-4.906,-4.8528,-4.8566,-4.915,-5.0479,-5.1161,0.0,0.0,-5.8082,0.0,0.0,0.0,0.0,0.0,0.0,0.0,-6.1074,-6.1613,-6.2241,-6.2957,-6.2987,-6.3017,-6.3077,-6.3047,-6.3162,-6.3448,-6.3508,-6.3709,-6.4049,-6.4049,0.0,0.0,0.0,0.0,0.0,-6.4437,-6.4635,-6.4998,-6.6089,-6.7208,-6.8221,-6.9313,-7.0402,-7.1267,-7.1007,-7.0916,-7.0916,-7.0916,-7.1387,-7.2039,-7.2107,-7.1955,-7.1714,-7.1228,-7.2094,-7.305,-7.2754,-7.3612,-7.4627,-7.4695,-7.5046,-7.5392,-7.5392,-7.5314,-7.5283,-7.5445,-7.5493,-7.5556,-7.5797,-7.527,-7.4999,-7.5676,-7.4525,-7.3578,-7.3578,-7.2868,-7.1941,-7.0729,-7.0549,-7.033,-6.9893,-6.7635,-6.6659,-6.7619,-6.6737,-6.6092,-6.5843,-6.4883,-6.3787,-6.2516,-6.1481,-6.0845,-6.0794,-6.0178,-6.0004,-6.0248,-6.0185,-6.0677,-4.9489,0.0,-5.0744,-5.0202,-4.9796,-4.9526,0.0,-4.9255,-4.8987,-4.8863,-4.8801,-4.8906,-4.935,-4.889,-4.8961,-5.0458,-4.9535,-4.93,-5.1231,-5.3529,0.0,-5.8141,-5.9727,0.0,0.0,0.0,0.0,0.0,0.0,-6.0586,-6.0656,-6.0586,-6.0976,-6.1859,-6.1665,-6.1935,-6.2642,-6.2642,-6.2781,-6.3062,-6.3607,-6.4019,-6.43,-6.43,0.0,0.0,0.0,0.0,-6.4777,-6.4777,-6.4832,-6.5046,-6.6357,-6.7368,-6.8256,-6.9616,-7.0625,-7.1267,-7.1007,-7.0916,-7.0916,-7.0916,-7.1558,-7.2404,-7.2979,-7.2868,-7.2686,-7.3326,-7.3306,-7.3386,-7.4614,-7.4762,-7.4762,-7.5303,-7.6,-7.6526,-7.6526,-7.6917,-7.7322,-7.7371,-7.7371,-7.7386,-7.7435,-7.686,-7.642,-7.6589,-7.5337,-7.4356,-7.4356,-7.3206,-7.2235,-7.1711,-7.1127,-7.0641,-7.0129,-6.9372,-6.8767,-6.8473,-6.8513,-6.8086,-6.6879,-6.6238,-6.5509,-6.4617,-6.2875,-6.1551,-6.0794,-6.064,-6.064,-6.0628,-6.0102,-6.0371,-4.9049,-4.9526,-4.9999,-4.9593,-4.9492,-4.9492,-4.9492,-4.9255,-4.8987,-4.8894,-4.8769,-4.8649,-4.8563,-4.8529,-4.8649,-4.9186,-4.912,-4.9916,-5.2527,0.0,-5.7334,-5.9308,0.0,0.0,0.0,0.0,0.0,0.0,0.0,-6.0141,-6.0306,-6.0196,-6.0551,-6.1489,-6.0751,-6.0932,-6.2061,-6.2363,-6.2708,-6.3152,-6.3853,-6.4356,-6.4635,-6.4635,-6.4721,0.0,0.0,0.0,-6.4888,-6.4888,-6.5187,-6.5723,-6.6497,-6.7598,-6.8927,-6.969,-7.0546,-7.1267,-7.1007,-7.0916,-7.0983,-7.1286,-7.2346,-7.3544,-7.4289,-7.4809,-7.5171,-7.4964,-7.5147,-7.5484,-7.6067,-7.6217,-7.6251,-7.6657,-7.7096,-7.7401,-7.7401,-7.7976,-7.8483,-7.8483,-7.8483,-7.8483,-7.8483,-7.7874,-7.7299,-7.6961,-7.5879,-7.4999,-7.4661,-7.3612,-7.281,-7.2544,-7.2161,-7.1652,-7.0944,-7.077,-7.0329,-6.9423,-6.9682,-6.9456,-6.845,-6.7675,-6.6595,-6.5154,-6.4045,-6.2802,-6.15,-6.15,-6.1226,-6.0794,-6.0424,-6.0546,-4.9154,-4.9668,-5.0146,-4.9841,-4.9777,-4.9747,-4.9774,-4.9268,-4.8861,-4.8892,-4.861,-4.813,-4.7635,-4.8064,-4.8166,-4.732,-4.8777,-5.1072,-5.4081,-5.6107,0.0,0.0,0.0,0.0,0.0,0.0,0.0,0.0,0.0,-5.9872,-5.9992,-5.9902,-6.0306,-6.1242,-6.0186,-6.0126,-6.1297,-6.2017,-6.2748,-6.3458,-6.4009,-6.4543,-6.4888,-6.4888,-6.4888,0.0,0.0,0.0,-6.4888,-6.4888,-6.5538,-6.6491,-6.6574,-6.7856,-6.9713,-6.9755,-7.0427,-7.1267,-7.1007,-7.0983,-7.1185,-7.1837,-7.3291,-7.4931,-7.5676,-7.6961,-7.7908,-7.6724,-7.7164,-7.7874,-7.7367,-7.7604,-7.7976,-7.7976,-7.8145,-7.8314,-7.8314,-7.8991,-7.96,-7.96,-7.96,-7.96,-7.9464,-7.8822,-7.8077,-7.7367,-7.6454,-7.5676,-7.5033,-7.4187,-7.3553,-7.3319,-7.3077,-7.2552,-7.1713,-7.1727,-7.1298,-7.0282,-7.0443,-7.0318,-6.9884,-6.8811,-6.726,-6.5183,-6.5053,-6.4174,-6.2534,-6.2369,-6.1853,-6.1052,-6.0845,-6.0794,-4.9763,-5.0259,-5.0215,-4.863,-4.8198,-4.8153,-4.8232,-4.813,-4.8161,-4.8515,-4.7999,-4.7733,-4.8524,-4.7746,-4.751,0.0,-5.1208,-5.3495,0.0,0.0,0.0,0.0,0.0,0.0,0.0,0.0,0.0,0.0,0.0,0.0,-5.9543,-5.9115,-5.9251,-6.0183,-6.0054,-6.013,-6.0577,-6.1248,-6.2326,-6.3732,-6.3824,-6.4248,-6.4888,-6.4888,-6.4888,0.0,0.0,-6.4888,-6.4888,-6.4888,-6.5538,-6.6533,-6.6804,-6.8046,-6.9741,-7.004,-7.0602,-7.1312,-7.1267,-7.1502,-7.1904,-7.2223,-7.3768,-7.5676,-7.6454,-7.7739,-7.9025,-7.9397,-7.8788,-7.8111,-7.8619,-7.8382,-7.7976,-7.7976,-7.8957,-7.987,-7.987,-8.0953,-8.19,-8.19,-8.19,-8.1697,-8.1054,-8.0344,-7.96,-7.8889,-7.7604,-7.6657,-7.6555,-7.5303,-7.4458,-7.4377,-7.2964,-7.1868,-7.1474,-7.1671,-7.134,-7.0369,-7.0664,-7.0625,-7.0185,-6.8736,-6.7401,-6.6204,-6.5565,-6.4715,-6.3561,-6.2729,-6.2221,-6.2022,-6.1175,-6.0794,-4.7773,-4.8134,-4.8302,-4.73,-4.8087,-4.9024,-4.8713,-4.8678,-4.8758,-4.896,-4.8994,-4.8984,0.0,0.0,-5.0025,-5.184,0.0,-5.4364,-5.5999,-5.6675,0.0,0.0,0.0,0.0,0.0,0.0,0.0,0.0,0.0,0.0,-5.9446,0.0,-5.9441,-6.0167,-6.0197,-6.0508,-6.1138,-6.1445,-6.2142,-6.3287,-6.4057,-6.458,-6.4888,-6.4888,-6.4888,-6.4888,0.0,-6.4888,-6.4888,-6.4888,-6.5884,-6.7362,-6.7548,-6.8794,-7.0654,-7.121,-7.1616,-7.1954,-7.236,-7.2877,-7.3574,-7.4512,-7.6048,-7.7739,-7.8923,-8.004,-8.0885,-8.0818,-8.0006,-7.9261,-7.96,-7.9431,-7.9295,-7.9667,-8.0276,-8.0885,-8.1291,-8.2238,-8.2983,-8.2983,-8.2983,-8.2881,-8.2543,-8.1866,-8.1021,-7.987,-7.9126,-7.8382,-7.7604,-7.686,-7.6284,-7.5912,-7.5075,-7.3887,-7.2333,-7.2923,-7.2792,-7.1512,-7.0697,-7.0561,-7.1379,-6.9402,-6.8327,-6.8462,-6.7278,-6.6002,-6.4584,-6.4124,-6.3356,-6.227,-6.1853,-6.1328,-4.6383,-4.6454,-4.6609,-4.6524,-4.777,-4.9054,-4.9215,-4.9005,-4.9037,-4.9681,-4.9967,-4.9957,0.0,-5.0681,0.0,-5.3717,-5.4371,0.0,0.0,0.0,0.0,0.0,0.0,0.0,0.0,0.0,0.0,0.0,0.0,0.0,0.0,0.0,-5.972,-6.0377,-6.0481,-6.0831,-6.1563,-6.1902,-6.2394,-6.3071,-6.4149,-6.4734,-6.4888,-6.4888,-6.5053,-6.5297,-6.5297,-6.5406,-6.5646,-6.5646,-6.6806,-6.847,-6.847,-6.9751,-7.165,-7.2191,-7.2541,-7.2858,-7.3603,-7.4229,-7.4969,-7.6365,-7.7899,-7.9398,-8.0508,-8.1457,-8.2069,-8.1663,-8.1021,-8.0445,-8.0445,-8.0581,-8.0851,-8.1426,-8.1663,-8.1968,-8.2543,-8.3253,-8.3761,-8.3761,-8.3761,-8.3693,-8.3524,-8.2807,-8.1754,-8.0475,-8.0104,-7.9532,-7.822,-7.82,-7.7976,-7.7232,-7.6935,-7.5838,-7.3592,-7.4083,-7.4006,-7.3003,-7.1031,-7.0434,-7.1553,-6.9448,-6.8606,-6.9456,-6.8116,-6.6879,-6.5823,-6.5565,-6.4784,-6.3532,-6.2851,-6.2123,-4.7571,-4.7045,-4.6471,-4.7029,-4.6385,-4.6265,-4.8497,-4.8043,-4.7914,-5.0542,-5.0022,-4.9495,0.0,-5.1244,-5.1893,-5.3098,0.0,0.0,0.0,0.0,0.0,0.0,0.0,0.0,0.0,0.0,0.0,0.0,0.0,0.0,0.0,0.0,0.0,-6.0346,-6.0638,-6.0824,-6.0886,-6.2117,-6.3071,-6.3749,-6.3841,-6.4241,-6.4888,-6.4888,-6.546,-6.6385,-6.6385,-6.693,-6.7903,-6.7903,-6.8519,-6.9571,-6.9571,-7.0697,-7.2326,-7.2394,-7.2971,-7.3912,-7.466,-7.5037,-7.5388,-7.6271,-7.7846,-7.9426,-7.9492,-8.0426,-8.1494,-8.2137,-8.1799,-8.119,-8.119,-8.1731,-8.2272,-8.2306,-8.2847,-8.3355,-8.3422,-8.3998,-8.4539,-8.4539,-8.4539,-8.4302,-8.3625,-8.2482,-8.1382,-8.0641,-7.989,-7.9194,-7.8398,-7.8705,-7.8754,-7.7976,-7.696,-7.5982,-7.4999,-7.4387,-7.4138,-7.4398,-7.21,-7.0304,-6.9394,-6.788,-6.7134,-6.7232,-6.6404,-6.6413,-6.7334,-6.6333,-6.6333,-6.7163,-6.4544,-6.3286,-4.5202,-4.5522,-4.583,-4.5437,-4.5247,-4.5673,-4.7555,-4.7967,-4.8385,-4.9846,-5.0914,-5.177,-5.2125,0.0,-5.2994,0.0,0.0,0.0,0.0,0.0,0.0,0.0,0.0,0.0,0.0,0.0,0.0,0.0,0.0,0.0,0.0,0.0,0.0,-6.0638,-6.0742,-6.0794,-6.0794,-6.1717,-6.2517,-6.3195,-6.4087,-6.4641,-6.4888,-6.4888,-6.5515,-6.6491,-6.6491,-6.7086,-6.8072,-6.8072,-6.8716,-6.9827,-7.0937,-7.1803,-7.2496,-7.3627,-7.458,-7.542,-7.6309,-7.7232,-7.8065,-7.8403,-7.9297,-8.0339,-8.1193,-8.1768,-8.2314,-8.2908,-8.3219,-8.3152,-8.2238,-8.2205,-8.2408,-8.2408,-8.2611,-8.2949,-8.3389,-8.3355,-8.3524,-8.4437,-8.4234,-8.3583,-8.2548,-8.199,-8.1005,-7.9037,-7.85,-7.8353,-7.837,-7.855,-7.867,-7.8655,-7.7244,-7.6269,-7.6223,-7.5305,-7.4555,-7.4254,-7.2495,-7.16,-7.1841,-6.9157,-6.798,-6.8696,-6.6809,-6.6368,-6.7499,-6.7095,-6.7109,-6.7558,-6.598,-6.4913,-4.403,-4.4257,-4.4591,-4.4227,-4.4117,-4.4626,-4.6533,-4.7643,-4.8546,-4.9904,-5.1568,-5.2652,-5.223,0.0,0.0,0.0,0.0,0.0,0.0,0.0,0.0,0.0,0.0,0.0,0.0,0.0,0.0,0.0,0.0,0.0,0.0,0.0,0.0,0.0,-6.0794,-6.0794,-6.0794,-6.1471,-6.2148,-6.2825,-6.4375,-6.5025,-6.4888,-6.5242,-6.5991,-6.7034,-6.7119,-6.7877,-6.9057,-6.886,-6.9324,-7.0363,-7.1816,-7.2529,-7.2947,-7.4432,-7.5489,-7.6445,-7.7943,-7.8801,-7.9265,-7.9812,-8.0204,-8.0626,-8.1722,-8.2213,-8.2544,-8.3577,-8.4065,-8.4031,-8.3016,-8.2746,-8.2746,-8.2746,-8.2746,-8.2949,-8.3693,-8.3456,-8.3422,-8.4437,-8.42,-8.3563,-8.274,-8.1956,-8.0738,-7.8672,-7.8016,-7.779,-7.7874,-7.808,-7.837,-7.8806,-7.8031,-7.7564,-7.7589,-7.6625,-7.5673,-7.4972,-7.3787,-7.2986,-7.2801,-6.9976,-6.8629,-6.9026,-6.7081,-6.6418,-6.7214,-6.7516,-6.7895,-6.8221,-6.7492,-6.6628,-4.472,-4.3591,-4.2782,-4.3741,-4.2949,-4.2682,-4.5627,-4.683,-4.8109,-5.1015,-5.1735,-5.1601,-5.0703,-5.1041,0.0,0.0,0.0,0.0,0.0,0.0,0.0,0.0,0.0,0.0,0.0,0.0,0.0,0.0,0.0,0.0,0.0,0.0,0.0,0.0,-6.0794,-6.0794,-6.0794,-6.1471,-6.2148,-6.2879,-6.4664,-6.5249,-6.4943,-6.6045,-6.7086,-6.8139,-6.8478,-6.9628,-7.1244,-7.05,-7.0635,-7.1379,-7.2124,-7.2834,-7.3624,-7.4602,-7.5662,-7.6883,-7.9424,-7.933,-7.8374,-7.9983,-8.0183,-7.996,-8.0592,-8.1163,-8.199,-8.3995,-8.4065,-8.349,-8.349,-8.349,-8.349,-8.349,-8.349,-8.3693,-8.4437,-8.4606,-8.4606,-8.464,-8.4553,-8.4553,-8.4553,-8.2458,-8.054,-7.9886,-7.8691,-7.7615,-7.6859,-7.7324,-7.7874,-7.837,-7.9477,-7.9904,-7.916,-7.8416,-7.7671,-7.6961,-7.6149,-7.4353,-7.1435,-6.9969,-6.8711,-6.7662,-6.6891,-6.6491,-6.6544,-6.7599,-6.8618,-6.9666,-6.9031,-6.8301,-4.4884,-4.4256,-4.3773,-4.3492,-4.3682,-4.4136,-4.4911,-4.5897,-4.7387,-5.0322,-5.0182,-4.977,-5.0475,-5.0285,0.0,0.0,0.0,0.0,0.0,0.0,0.0,0.0,0.0,0.0,0.0,0.0,0.0,0.0,0.0,0.0,0.0,0.0,0.0,0.0,-6.15,-6.1853,-6.1853,-6.2724,-6.3562,-6.4215,-6.4752,-6.5376,-6.6045,-6.7137,-6.7912,-6.8478,-6.8564,-6.9328,-7.0534,-7.0838,-7.1109,-7.1379,-7.2124,-7.2959,-7.3934,-7.4912,-7.6279,-7.7753,-7.9132,-7.9601,-7.9654,-7.9585,-7.9412,-7.9286,-7.9408,-8.0191,-8.1262,-8.2222,-8.2986,-8.3253,-8.2205,-8.1934,-8.1934,-8.1934,-8.234,-8.2813,-8.3016,-8.3084,-8.3389,-8.4437,-8.42,-8.3361,-8.1985,-8.086,-7.943,-7.7294,-7.5897,-7.5216,-7.5378,-7.6297,-7.7297,-7.8304,-7.873,-7.8968,-7.906,-7.8416,-7.7671,-7.6961,-7.6149,-7.5051,-7.37,-7.2465,-7.1242,-6.9877,-6.8895,-6.8132,-6.765,-6.7921,-6.8618,-6.9666,-6.8937,-6.8923,-4.5348,-4.4764,-4.4428,-4.4038,-4.4176,-4.458,-4.5182,-4.6226,-4.7812,-5.0316,-4.9596,-4.8804,-4.987,-4.9704,0.0,0.0,0.0,0.0,0.0,0.0,0.0,0.0,0.0,0.0,0.0,0.0,0.0,0.0,0.0,0.0,0.0,0.0,0.0,0.0,-6.1846,-6.2516,-6.2923,-6.3514,-6.4153,-6.4785,-6.5245,-6.5948,-6.6914,-6.7574,-6.8006,-6.8208,-6.8923,-6.9424,-6.9823,-7.0872,-7.1312,-7.1379,-7.2124,-7.2802,-7.3583,-7.4912,-7.6302,-7.7731,-7.9211,-7.9955,-8.0235,-7.9808,-7.9364,-7.9036,-7.9531,-8.0231,-8.1056,-8.2444,-8.3161,-8.3219,-8.2035,-8.1494,-8.1291,-8.1291,-8.1866,-8.2475,-8.278,-8.3084,-8.3558,-8.4437,-8.4268,-8.3583,-8.2381,-8.1246,-7.9722,-7.7366,-7.5305,-7.4035,-7.4089,-7.5379,-7.6457,-7.6902,-7.7401,-7.8131,-7.9139,-7.7859,-7.714,-7.7447,-7.579,-7.4772,-7.4765,-7.4016,-7.2856,-7.1271,-7.0305,-6.9269,-6.8072,-6.8519,-6.909,-6.9713,-6.969,-6.9632,-4.6004,-4.5211,-4.4755,-4.5026,-4.4569,-4.4497,-4.6137,-4.7369,-4.8716,-5.0571,0.0,-4.8566,-4.9269,-4.9359,0.0,0.0,0.0,0.0,0.0,0.0,0.0,0.0,0.0,0.0,0.0,0.0,0.0,0.0,0.0,0.0,0.0,0.0,0.0,-6.1374,-6.2185,-6.302,-6.3937,-6.4031,-6.4402,0.0,-6.5969,-6.6787,-6.7451,-6.7584,-6.7617,-6.7629,-6.93,-6.9654,-6.9214,-7.0635,-7.1244,-7.1379,-7.2056,-7.2542,-7.3039,-7.4707,-7.604,-7.7297,-7.9586,-8.0326,-8.0301,-8.0295,-7.9716,-7.9161,-8.0171,-8.062,-8.1239,-8.3452,-8.3737,-8.3219,-8.2408,-8.1697,-8.119,-8.119,-8.1799,-8.2577,-8.3253,-8.4031,-8.464,-8.464,-8.464,-8.4606,-8.4539,-8.2962,-8.1012,-7.8939,-7.6137,-7.394,-7.3138,-7.4496,-7.5346,-7.4834,-7.588,-7.7418,-7.9351,-7.714,-7.6452,-7.8291,-7.5244,-7.3824,-7.4808,-7.4649,-7.3802,-7.218,-7.1516,-7.0221,-6.8319,-6.9334,-6.9779,-6.9713,-7.0699,-7.0364,-4.65,-4.5442,-4.4621,-4.5201,-4.5285,-4.5695,-4.7442,-4.7698,-4.7788,-4.8716,-4.8985,-4.9254,-4.9912,0.0,0.0,0.0,0.0,0.0,0.0,0.0,0.0,0.0,0.0,0.0,0.0,0.0,0.0,0.0,0.0,0.0,0.0,0.0,0.0,-6.2357,-6.3858,-6.4753,-6.4979,-6.5767,-6.6215,0.0,-6.6589,-6.6819,-6.7021,-6.82,-6.8402,-6.7829,-6.8215,-6.8673,-6.918,-7.006,-7.077,-7.1312,-7.1671,-7.2676,-7.399,-7.46,-7.6162,-7.8282,-7.9888,-8.0326,-8.0301,-8.0295,-7.9716,-7.888,-7.8056,-7.919,-8.069,-8.0051,-8.1203,-8.234,-8.1021,-8.0547,-8.0445,-8.0445,-8.146,-8.2441,-8.2611,-8.3693,-8.464,-8.464,-8.464,-8.4437,-8.3828,-8.3029,-8.1287,-7.786,-7.673,-7.5493,-7.3324,-7.3324,-7.3939,-7.4743,-7.588,-7.7418,-7.9351,-7.7899,-7.735,-7.8345,-7.5734,-7.3998,-7.3651,-7.3983,-7.407,-7.4026,-7.3858,-7.261,-7.0237,-7.0431,-7.0262,-6.9713,-6.9935,-7.0322,-4.7261,-4.6792,-4.6475,-4.6372,-4.6826,-4.7476,-4.8024,-4.8377,-4.8544,-4.8648,-4.8503,-4.8536,0.0,0.0,0.0,0.0,0.0,0.0,0.0,0.0,0.0,0.0,0.0,0.0,0.0,0.0,0.0,0.0,0.0,0.0,0.0,-6.0275,-6.105,-6.2207,-6.3595,-6.465,-6.5483,-6.5986,-6.644,-6.6812,-6.6812,-6.6812,-6.6846,-6.7624,-6.776,-6.7387,-6.776,-6.8368,-6.9147,-6.9891,-7.0635,-7.1312,-7.1412,-7.2393,-7.384,-7.4693,-7.6392,-7.8569,-7.9922,-8.0374,-8.0255,-7.9886,-7.9183,-7.8375,-7.765,-7.8374,-7.9432,-7.9537,-8.0245,-8.0953,-8.0817,-8.0445,-8.0209,-8.0209,-8.1054,-8.1866,-8.1866,-8.305,-8.4065,-8.4065,-8.437,-8.4403,-8.3625,-8.2193,-8.0507,-7.842,-7.687,-7.5383,-7.4028,-7.3385,-7.3262,-7.3874,-7.482,-7.6155,-7.8111,-7.6714,-7.6438,-7.8046,-7.5087,-7.348,-7.393,-7.3251,-7.3135,-7.3797,-7.3242,-7.251,-7.1587,-7.1032,-7.0633,-7.0436,-7.0436,-7.0482,-4.7919,-4.8146,-4.8452,-4.7938,-4.827,-4.8631,-4.8293,-4.8809,-4.9287,-4.8905,-4.8226,0.0,0.0,0.0,0.0,0.0,0.0,0.0,0.0,0.0,0.0,0.0,0.0,0.0,0.0,0.0,0.0,0.0,0.0,0.0,-5.9987,-6.0193,-6.0792,-6.207,-6.2903,-6.4069,-6.5493,-6.5493,-6.5865,-6.6609,-6.6745,-6.6812,-6.6812,-6.6812,-6.6812,-6.6846,-6.7455,-6.8166,-6.8944,-6.9688,-7.0476,-7.1187,-7.1334,-7.2223,-7.3543,-7.4819,-7.6633,-7.8615,-7.9931,-8.0356,-8.0124,-7.9484,-7.8583,-7.7775,-7.7465,-7.7556,-7.798,-7.9357,-7.9661,-7.9708,-8.0573,-8.0462,-8.0209,-8.0209,-8.075,-8.1325,-8.146,-8.2543,-8.3524,-8.3659,-8.42,-8.4437,-8.3795,-8.1738,-8.0073,-7.9724,-7.7374,-7.5486,-7.5125,-7.4149,-7.3448,-7.3324,-7.4035,-7.5091,-7.6606,-7.534,-7.5403,-7.7585,-7.4314,-7.2982,-7.4325,-7.2652,-7.1998,-7.2653,-7.1871,-7.165,-7.2288,-7.1342,-7.1037,-7.1312,-7.1312,-7.0791,-4.7986,-4.7923,-4.8003,-4.9117,-4.807,-4.7167,0.0,0.0,-4.7539,0.0,0.0,0.0,0.0,0.0,0.0,0.0,0.0,0.0,0.0,0.0,0.0,0.0,0.0,0.0,0.0,0.0,0.0,0.0,0.0,0.0,-6.0465,-6.1117,-6.2022,-6.3222,-6.4004,-6.4525,-6.4749,-6.4749,-6.5121,-6.5831,-6.6508,-6.6812,-6.6812,-6.6812,-6.6812,-6.6812,-6.6914,-6.7387,-6.8132,-6.891,-6.9785,-7.0673,-7.1572,-7.2927,-7.4459,-7.4841,-7.641,-7.8637,-8.0084,-8.009,-7.9452,-7.95,-7.8391,-7.693,-7.577,-7.612,-7.6978,-7.655,-7.795,-7.9393,-7.8923,-7.9492,-8.0209,-8.0209,-8.075,-8.146,-8.2137,-8.2915,-8.3693,-8.4336,-8.4539,-8.4606,-8.4505,-8.3655,-8.2388,-8.0695,-7.9551,-7.8255,-7.6573,-7.581,-7.5226,-7.4627,-7.5638,-7.6326,-7.6063,-7.6263,-7.661,-7.6983,-7.4936,-7.3569,-7.3231,-7.2366,-7.188,-7.1751,-7.1992,-7.2045,-7.1866,-7.172,-7.1537,-7.1312,-7.1312,-7.1222,-4.9864,-5.0128,-5.0076,0.0,-4.9988,-4.9479,-4.9015,0.0,-4.8016,0.0,0.0,0.0,0.0,0.0,0.0,0.0,0.0,0.0,0.0,0.0,0.0,0.0,0.0,0.0,0.0,0.0,0.0,0.0,0.0,-5.8601,-5.9731,-6.0625,-6.1361,-6.2015,-6.2505,-6.3159,-6.4005,-6.4005,-6.4546,-6.5696,-6.644,-6.6812,-6.6812,-6.6812,-6.6812,-6.6812,-6.6812,-6.7218,-6.7963,-6.8774,-6.965,-7.058,-7.146,-7.2952,-7.4665,-7.5131,-7.6641,-7.8603,-8.012,-8.0238,-7.9795,-7.9845,-7.9284,-7.8107,-7.6085,-7.5801,-7.631,-7.6231,-7.7018,-7.8124,-7.9146,-8.0088,-8.0818,-8.0818,-8.1359,-8.2103,-8.2847,-8.3287,-8.3727,-8.4471,-8.4302,-8.3998,-8.3998,-8.3389,-8.2589,-8.1778,-8.0401,-7.9341,-7.8913,-7.6734,-7.5434,-7.5908,-7.5523,-7.5278,-7.5372,-7.5278,-7.5558,-7.6337,-7.4561,-7.363,-7.4091,-7.2737,-7.1778,-7.1201,-7.1034,-7.1137,-7.1462,-7.0455,-7.0496,-7.1579,-7.1192,-7.1337,-5.082,0.0,-5.152,-5.1489,-5.1539,-5.1195,0.0,0.0,0.0,0.0,0.0,0.0,0.0,0.0,0.0,0.0,0.0,0.0,0.0,0.0,0.0,0.0,0.0,0.0,0.0,0.0,0.0,0.0,0.0,-5.796,-5.9303,-6.0035,-6.0561,-6.0998,-6.139,-6.2009,-6.2956,-6.3497,-6.4241,-6.5155,-6.6068,-6.6542,-6.6542,-6.6542,-6.6643,-6.6812,-6.6812,-6.7117,-6.7692,-6.8759,-6.9601,-7.0395,-7.1435,-7.2815,-7.439,-7.5028,-7.6286,-7.7926,-7.9488,-7.9945,-7.9886,-7.9919,-7.9716,-7.901,-7.6715,-7.6005,-7.6087,-7.6467,-7.6846,-7.7456,-7.9288,-8.0512,-8.1325,-8.1528,-8.2137,-8.2847,-8.3389,-8.3659,-8.3964,-8.4505,-8.4167,-8.3795,-8.3795,-8.3186,-8.2678,-8.2678,-8.1322,-8.0455,-8.1021,-7.8405,-7.6769,-7.7305,-7.6087,-7.5118,-7.4738,-7.4584,-7.4799,-7.5446,-7.4091,-7.3691,-7.4707,-7.3137,-7.1813,-7.0921,-7.0398,-7.037,-7.077,-6.9432,-6.967,-7.1375,-7.1143,-7.1475,-4.9251,-5.0008,0.0,-5.2481,-5.1494,0.0,0.0,0.0,0.0,0.0,0.0,0.0,0.0,0.0,0.0,0.0,0.0,0.0,0.0,0.0,0.0,0.0,0.0,0.0,0.0,0.0,0.0,0.0,0.0,-5.7802,-5.967,-5.9843,-6.0256,-6.1226,-6.1975,-6.2042,-6.1434,-6.3497,-6.4241,-6.3632,-6.5053,-6.5764,-6.5764,-6.5764,-6.6136,-6.6812,-6.6812,-6.6846,-6.6981,-6.8693,-6.9552,-7.0012,-7.1619,-7.2768,-7.361,-7.3826,-7.4747,-7.6083,-7.7891,-7.8754,-7.9117,-7.9202,-7.9046,-7.8499,-7.6961,-7.6573,-7.654,-7.6565,-7.7401,-7.8358,-7.8465,-7.9876,-8.146,-8.2171,-8.2915,-8.3456,-8.349,-8.4065,-8.4573,-8.4553,-8.4606,-8.4573,-8.4573,-8.393,-8.3422,-8.3422,-8.2761,-8.2236,-8.2304,-8.1676,-8.0556,-7.8791,-7.8668,-7.7403,-7.431,-7.5199,-7.5384,-7.4184,-7.3999,-7.3968,-7.403,-7.3322,-7.2306,-7.0921,-7.0859,-7.0435,-6.9588,-6.9501,-6.9721,-7.0209,-7.1242,-7.177,0.0,0.0,0.0,-5.242,-5.2341,-5.1701,-5.1405,0.0,0.0,0.0,0.0,0.0,0.0,0.0,0.0,0.0,0.0,0.0,0.0,0.0,0.0,0.0,0.0,0.0,0.0,0.0,0.0,0.0,0.0,0.0,-5.8136,-5.8757,-5.9515,-6.052,-6.0791,-6.1264,-6.2009,-6.326,-6.3768,-6.3531,-6.4512,-6.4986,-6.4986,-6.4986,-6.5392,-6.6102,-6.6102,-6.6373,-6.6948,-6.8659,-6.9561,-6.9943,-7.1662,-7.2811,-7.3498,-7.355,-7.4513,-7.5901,-7.7571,-7.8716,-7.9614,-8.0173,-8.0374,-8.0027,-7.8298,-7.773,-7.773,-7.773,-7.8056,-7.8671,-7.9943,-8.1117,-8.2306,-8.3524,-8.4031,-8.4234,-8.4234,-8.4437,-8.464,-8.464,-8.464,-8.4471,-8.3998,-8.4065,-8.4065,-8.3558,-8.3287,-8.3287,-8.3761,-8.2139,-8.0748,-8.0106,-7.8598,-7.6837,-7.4803,-7.4676,-7.4522,-7.403,-7.3599,-7.3537,-7.3968,-7.3353,-7.2337,-7.0921,-7.089,-7.0299,-6.9126,-6.8691,-6.9158,-7.0445,-7.0396,-7.0889,-5.0997,0.0,0.0,0.0,-5.3032,-5.2652,0.0,0.0,0.0,0.0,0.0,0.0,0.0,0.0,0.0,0.0,0.0,0.0,0.0,0.0,0.0,0.0,0.0,0.0,0.0,0.0,0.0,0.0,0.0,0.0,-5.7763,-5.8451,-5.9186,-6.008,-6.0114,-6.0723,-6.2009,-6.3024,-6.3396,-6.3159,-6.3903,-6.4241,-6.4241,-6.4478,-6.4986,-6.5696,-6.605,-6.6592,-6.7286,-6.888,-6.9816,-7.0319,-7.185,-7.2725,-7.312,-7.312,-7.4003,-7.5389,-7.6976,-7.8469,-7.98,-8.0584,-8.1036,-8.102,-7.947,-7.9027,-7.906,-7.9294,-7.9394,-7.9786,-8.1576,-8.2983,-8.4167,-8.5148,-8.5384,-8.5317,-8.508,-8.4809,-8.464,-8.464,-8.464,-8.4471,-8.3964,-8.4302,-8.4437,-8.3964,-8.3862,-8.4065,-8.4573,-8.3053,-8.1658,-8.0879,-7.9276,-7.7457,-7.5482,-7.4707,-7.4245,-7.3999,-7.3353,-7.3199,-7.363,-7.3229,-7.2337,-7.0921,-7.089,-7.0244,-6.8889,-6.8458,-6.8834,-7.001,-6.9958,-7.077,0.0,0.0,0.0,0.0,0.0,0.0,-5.3156,0.0,0.0,0.0,0.0,0.0,0.0,0.0,0.0,0.0,0.0,0.0,0.0,0.0,0.0,0.0,0.0,0.0,0.0,0.0,0.0,0.0,0.0,-5.6704,-5.8634,-5.8883,-5.9336,-6.0047,-6.0114,-6.052,-6.1298,-6.2753,-6.3125,-6.2415,-6.3125,-6.3497,-6.3497,-6.4241,-6.4952,-6.5737,-6.6758,-6.7463,-6.8005,-6.9296,-7.0251,-7.1003,-7.2226,-7.2544,-7.2331,-7.2288,-7.3117,-7.4411,-7.6017,-7.7775,-7.9473,-8.0372,-8.0935,-8.1122,-8.0412,-8.0209,-8.0344,-8.1088,-8.1291,-8.1629,-8.3152,-8.5182,-8.6873,-8.6907,-8.6907,-8.6704,-8.596,-8.5182,-8.464,-8.464,-8.464,-8.464,-8.464,-8.464,-8.464,-8.464,-8.464,-8.464,-8.464,-8.464,-8.3619,-8.1095,-8.0799,-7.9518,-7.6289,-7.5415,-7.4738,-7.403,-7.3383,-7.3014,-7.2983,-7.2983,-7.2337,-7.1012,-7.0921,-7.0244,-6.8979,-6.8948,-6.8889,-6.8948,-7.0035,-7.136,-5.1508,0.0,0.0,0.0,0.0,0.0,-5.2396,-5.2081,0.0,0.0,0.0,0.0,0.0,0.0,0.0,0.0,0.0,0.0,0.0,0.0,0.0,0.0,0.0,0.0,0.0,0.0,0.0,0.0,-5.3859,-5.5031,-5.6896,-5.827,-5.9099,-5.9302,-6.0385,-6.1061,-6.1298,-6.2245,-6.2584,-6.2381,-6.2618,-6.2685,-6.2719,-6.3463,-6.4288,-6.5196,-6.6602,-6.7672,-6.847,-6.959,-7.0427,-7.1224,-7.231,-7.2544,-7.2356,-7.2775,-7.343,-7.4582,-7.7025,-7.8176,-7.891,-8.078,-8.1003,-8.0479,-8.0242,-8.0209,-8.0344,-8.1088,-8.1291,-8.1765,-8.3795,-8.5215,-8.623,-8.6771,-8.6907,-8.6704,-8.596,-8.5621,-8.5317,-8.4742,-8.464,-8.464,-8.464,-8.464,-8.464,-8.464,-8.464,-8.464,-8.464,-8.464,-8.3619,-8.1095,-8.0799,-7.9518,-7.6289,-7.5846,-7.523,-7.4061,-7.3814,-7.3506,-7.3014,-7.2983,-7.3013,-7.3006,-7.1619,-7.0937,-7.0934,-6.9542,-6.8889,-6.8917,-6.9008,-6.9346,-5.161,-5.1586,-5.1643,0.0,0.0,0.0,-5.1818,-5.1855,-5.1787,0.0,0.0,0.0,0.0,0.0,0.0,0.0,0.0,0.0,0.0,0.0,0.0,0.0,0.0,0.0,0.0,0.0,0.0,-5.2365,-5.2922,-5.4134,-5.6309,-5.7697,-5.8492,-5.8558,-5.9708,-6.0351,-6.0351,-6.14,-6.1941,-6.1941,-6.2245,-6.2629,-6.3007,-6.3752,-6.4585,-6.5607,-6.6882,-6.7961,-6.8802,-6.9838,-7.0595,-7.1309,-7.2276,-7.2586,-7.2562,-7.3058,-7.368,-7.4605,-7.7407,-7.8283,-7.856,-8.0799,-8.1139,-8.0648,-8.0648,-8.0885,-8.1257,-8.2002,-8.2678,-8.3524,-8.5148,-8.6129,-8.6907,-8.7651,-8.7347,-8.6805,-8.6332,-8.5757,-8.5182,-8.4708,-8.464,-8.464,-8.464,-8.464,-8.464,-8.464,-8.464,-8.464,-8.464,-8.464,-8.3838,-8.1828,-8.1095,-7.9797,-7.7399,-7.6477,-7.5569,-7.4491,-7.4153,-7.3691,-7.3014,-7.3477,-7.3803,-7.3818,-7.2363,-7.1315,-7.0521,-6.9395,-6.8889,-6.8917,-6.8437,-6.8926,-5.1633,-5.1899,-5.1858,-5.1946,-5.2361,0.0,-5.1429,-5.1538,-5.1549,0.0,0.0,0.0,0.0,0.0,0.0,0.0,0.0,0.0,0.0,0.0,0.0,0.0,0.0,0.0,0.0,-5.0157,-5.0418,-5.1189,-5.2094,-5.3761,-5.6315,-5.7171,-5.7663,-5.7915,-5.8626,-5.9032,-5.9032,-6.052,-6.1298,-6.1298,-6.2081,-6.2837,-6.3713,-6.4568,-6.5437,-6.6354,-6.7444,-6.8245,-6.887,-7.0037,-7.0788,-7.1343,-7.231,-7.2713,-7.2774,-7.3378,-7.3871,-7.4639,-7.7475,-7.8371,-7.8646,-8.0885,-8.1597,-8.1597,-8.1597,-8.1969,-8.2543,-8.3287,-8.4539,-8.5824,-8.6602,-8.7279,-8.7922,-8.8666,-8.7854,-8.6907,-8.6805,-8.5723,-8.4742,-8.464,-8.464,-8.464,-8.464,-8.464,-8.464,-8.464,-8.464,-8.464,-8.464,-8.464,-8.4089,-8.2661,-8.1447,-8.0231,-7.8817,-7.7111,-7.5784,-7.5046,-7.443,-7.3783,-7.3014,-7.4176,-7.4604,-7.4088,-7.3467,-7.1907,-6.9418,-6.9096,-6.8858,-6.8766,-6.8181,-6.9346,0.0,0.0,0.0,0.0,0.0,0.0,-5.1714,-5.1393,-5.1064,0.0,0.0,0.0,0.0,0.0,0.0,0.0,0.0,0.0,0.0,0.0,0.0,0.0,0.0,0.0,0.0,-5.0273,-5.0598,-5.0795,-5.2101,-5.3678,-5.5482,-5.6362,-5.7163,-5.7881,-5.8626,-5.9032,-5.9032,-6.052,-6.1298,-6.1298,-6.2198,-6.2756,-6.2965,-6.4449,-6.5362,-6.5872,-6.7834,-6.8538,-6.8423,-7.0463,-7.136,-7.156,-7.236,-7.2713,-7.2843,-7.3963,-7.4282,-7.4707,-7.8122,-7.9652,-8.0484,-8.2672,-8.3395,-8.3395,-8.3395,-8.292,-8.2543,-8.3287,-8.4133,-8.5046,-8.579,-8.6095,-8.6399,-8.7144,-8.711,-8.6738,-8.6129,-8.5757,-8.5384,-8.4742,-8.464,-8.464,-8.464,-8.464,-8.464,-8.464,-8.464,-8.464,-8.464,-8.464,-8.3729,-8.1388,-8.0977,-7.9867,-7.7572,-7.7023,-7.6308,-7.5076,-7.4892,-7.4245,-7.3045,-7.4176,-7.5178,-7.5999,-7.5788,-7.4571,-7.2504,-7.0063,-6.8612,-6.812,-6.7966,-6.8426,0.0,0.0,0.0,-5.0981,0.0,0.0,0.0,-5.0363,-5.0209,0.0,0.0,0.0,0.0,0.0,0.0,0.0,0.0,0.0,0.0,0.0,0.0,0.0,0.0,0.0,0.0,-4.9989,-5.0328,-5.0667,-5.1449,-5.286,-5.5166,-5.5716,-5.6542,-5.7845,-5.8254,-5.8457,-5.8457,-5.9945,-6.0689,-6.0723,-6.2067,-6.314,-6.4045,-6.4991,-6.5941,-6.6892,-6.8028,-6.859,-6.8808,-7.0325,-7.0946,-7.105,-7.2264,-7.2713,-7.2877,-7.4231,-7.4518,-7.4707,-7.8354,-7.9775,-8.0455,-8.3031,-8.3845,-8.3914,-8.4328,-8.3993,-8.3592,-8.3964,-8.4336,-8.4809,-8.5587,-8.579,-8.5993,-8.6738,-8.6636,-8.623,-8.5858,-8.5486,-8.508,-8.4708,-8.464,-8.464,-8.464,-8.464,-8.464,-8.464,-8.464,-8.464,-8.464,-8.464,-8.4089,-8.283,-8.1563,-8.026,-7.9035,-7.7734,-7.6585,-7.5569,-7.5199,-7.4553,-7.3537,-7.4932,-7.5926,-7.643,-7.638,-7.5161,-7.2832,-7.0757,-6.9568,-6.9257,-6.9257,-6.9713,0.0,0.0,0.0,0.0,0.0,-5.0305,0.0,0.0,0.0,0.0,0.0,0.0,0.0,0.0,0.0,0.0,0.0,0.0,0.0,0.0,0.0,0.0,0.0,0.0,0.0,-4.9978,-5.0237,-5.0863,-5.1095,-5.2387,-5.5134,-5.5474,-5.627,-5.7845,-5.7881,-5.7881,-5.7881,-5.9235,-5.9979,-6.019,-6.1771,-6.3426,-6.5128,-6.5495,-6.648,-6.7911,-6.8187,-6.8704,-6.9365,-7.0251,-7.0603,-7.0776,-7.2133,-7.2644,-7.2636,-7.4248,-7.4665,-7.4878,-7.8313,-7.972,-8.0443,-8.2893,-8.3845,-8.4176,-8.482,-8.4797,-8.464,-8.464,-8.464,-8.4776,-8.5384,-8.5554,-8.5723,-8.6332,-8.5993,-8.5554,-8.5554,-8.508,-8.464,-8.464,-8.464,-8.464,-8.464,-8.464,-8.464,-8.464,-8.464,-8.464,-8.464,-8.4505,-8.4224,-8.3893,-8.187,-8.0491,-8.0078,-7.8216,-7.6677,-7.5877,-7.5292,-7.4645,-7.3845,-7.5619,-7.6736,-7.7052,-7.6886,-7.5776,-7.36,-7.2185,-7.1282,-7.0933,-7.0711,-7.1342,0.0,0.0,0.0,0.0,-4.9959,0.0,0.0,0.0,-4.9873,-4.9682,0.0,0.0,0.0,0.0,0.0,0.0,0.0,0.0,0.0,0.0,0.0,0.0,0.0,0.0,0.0,0.0,-5.1172,-5.1736,-5.2492,-5.3624,-5.5215,-5.6034,-5.6882,-5.7881,-5.7881,-5.7881,-5.7881,-5.8727,-5.9546,-6.0377,-6.1487,-6.2871,-6.4534,-6.5451,-6.6324,-6.7187,-6.8566,-6.9187,-6.9405,-7.081,-7.1361,-7.1459,-7.234,-7.2257,-7.1912,-7.3903,-7.4875,-7.5493,-7.7679,-8.0207,-8.2479,-8.2824,-8.3776,-8.487,-8.5019,-8.489,-8.464,-8.464,-8.464,-8.464,-8.4742,-8.4776,-8.4776,-8.4877,-8.4809,-8.4776,-8.4776,-8.4674,-8.464,-8.464,-8.464,-8.464,-8.464,-8.464,-8.464,-8.464,-8.464,-8.464,-8.464,-8.4031,-8.2992,-8.1381,-8.0366,-7.9195,-7.7543,-7.7212,-7.6461,-7.5199,-7.5046,-7.443,-7.3137,-7.5364,-7.761,-7.9736,-7.9095,-7.8606,-7.8337,-7.5834,-7.3724,-7.21,-7.1099,-7.1723,0.0,0.0,0.0,0.0,0.0,0.0,-4.9772,0.0,-4.9888,0.0,0.0,0.0,0.0,0.0,0.0,0.0,0.0,0.0,0.0,0.0,0.0,0.0,0.0,0.0,0.0,0.0,0.0,0.0,0.0,-5.3825,-5.5345,-5.576,-5.6363,-5.7203,-5.7273,-5.7273,-5.7273,-5.8423,-5.9516,-6.0449,-6.1456,-6.3011,-6.5122,-6.5662,-6.6531,-6.7669,-6.8325,-6.8842,-6.9371,-7.0438,-7.1166,-7.1658,-7.2862,-7.2875,-7.2469,-7.5011,-7.5696,-7.5663,-7.8074,-8.0056,-8.1672,-8.2949,-8.4397,-8.5508,-8.498,-8.4747,-8.464,-8.464,-8.464,-8.464,-8.464,-8.464,-8.464,-8.464,-8.464,-8.4742,-8.5215,-8.5317,-8.5418,-8.5858,-8.5587,-8.5317,-8.5317,-8.4911,-8.464,-8.464,-8.464,-8.464,-8.464,-8.3964,-8.3087,-8.205,-8.0594,-7.928,-7.8217,-7.7442,-7.7064,-7.7276,-7.7176,-7.6525,-7.5161,-7.6701,-7.8266,-7.9516,-7.9261,-7.8889,-7.845,-7.6223,-7.5035,-7.4954,-7.3331,-7.305,-4.9999,0.0,0.0,0.0,0.0,0.0,0.0,0.0,0.0,0.0,0.0,0.0,0.0,0.0,0.0,0.0,0.0,0.0,0.0,0.0,0.0,0.0,0.0,0.0,0.0,0.0,0.0,0.0,-5.3203,-5.419,-5.5416,-5.5709,-5.6251,-5.7103,-5.7103,-5.7205,-5.7408,-5.8457,-5.9617,-6.0789,-6.1763,-6.3388,-6.5602,-6.6041,-6.6876,-6.8118,-6.8325,-6.8898,-6.9693,-7.0391,-7.1296,-7.2332,-7.358,-7.3904,-7.3845,-7.61,-7.6487,-7.6278,-7.8584,-7.9849,-8.0762,-8.3075,-8.4414,-8.5052,-8.4788,-8.4694,-8.464,-8.464,-8.464,-8.464,-8.464,-8.464,-8.464,-8.464,-8.4776,-8.508,-8.5655,-8.596,-8.6196,-8.6535,-8.6163,-8.5723,-8.5486,-8.5012,-8.464,-8.464,-8.464,-8.464,-8.464,-8.3964,-8.3235,-8.2498,-8.0786,-7.9575,-7.9151,-7.8154,-7.8026,-7.906,-7.8683,-7.812,-7.7451,-7.8046,-7.8707,-7.9381,-7.9397,-7.916,-7.8585,-7.6793,-7.6358,-7.7164,-7.5006,-7.4189,0.0,0.0,0.0,-4.9018,0.0,0.0,0.0,0.0,-5.0067,0.0,0.0,0.0,0.0,0.0,-5.1238,-5.0234,0.0,0.0,0.0,0.0,0.0,0.0,0.0,0.0,0.0,0.0,0.0,-5.3485,-5.4257,-5.4965,-5.5459,-5.6331,-5.7101,-5.7814,-5.7848,-5.822,-5.893,-5.8998,-5.9889,-6.1609,-6.2514,-6.3901,-6.5602,-6.6557,-6.7359,-6.8152,-6.8911,-6.9697,-7.0429,-7.1162,-7.2357,-7.3816,-7.4586,-7.5343,-7.6148,-7.672,-7.7179,-7.7746,-7.9026,-7.9815,-8.0614,-8.3108,-8.3277,-8.285,-8.4569,-8.4853,-8.464,-8.464,-8.464,-8.464,-8.464,-8.464,-8.464,-8.464,-8.5182,-8.5757,-8.579,-8.6366,-8.667,-8.596,-8.579,-8.5554,-8.4776,-8.464,-8.464,-8.464,-8.464,-8.464,-8.464,-8.3964,-8.3033,-8.1746,-8.0492,-7.9704,-7.9677,-7.9149,-7.9122,-7.9709,-7.8467,-7.8224,-7.9384,-7.8776,-7.8941,-8.0175,-8.0175,-8.0141,-8.0141,-7.8653,-7.7942,-7.7908,-7.5239,-7.4588,0.0,0.0,-4.9018,-4.9018,0.0,0.0,0.0,0.0,0.0,0.0,0.0,0.0,0.0,0.0,-5.1586,-5.0335,-5.0164,0.0,0.0,0.0,0.0,0.0,0.0,0.0,0.0,0.0,0.0,-5.2943,-5.3618,-5.4296,0.0,-5.5643,-5.619,-5.6461,-5.6934,-5.7543,-5.8254,-5.8761,-6.0126,-6.2319,-6.2787,-6.4175,-6.6323,-6.6798,-6.7394,-6.8118,-6.8394,-6.8933,-6.9658,-7.0416,-7.1922,-7.3873,-7.461,-7.6391,-7.8492,-7.8252,-7.8264,-7.8614,-8.013,-8.1122,-8.1866,-8.3189,-8.3712,-8.3964,-8.4577,-8.4694,-8.464,-8.464,-8.464,-8.464,-8.464,-8.464,-8.464,-8.464,-8.5215,-8.5926,-8.6433,-8.6738,-8.6974,-8.7211,-8.6467,-8.5689,-8.5452,-8.4979,-8.464,-8.464,-8.42,-8.4065,-8.4573,-8.3558,-8.2696,-8.2366,-8.1529,-8.0828,-8.0469,-8.1023,-8.0919,-7.9853,-8.0883,-8.0934,-7.9558,-8.002,-8.0291,-8.0209,-8.0209,-8.0209,-8.0209,-7.9228,-7.872,-7.8686,-7.7327,-7.6283,-4.8951,-4.9018,0.0,-4.9018,-4.956,0.0,-5.0101,0.0,0.0,0.0,0.0,0.0,0.0,0.0,0.0,-4.9932,-4.9757,0.0,0.0,-5.027,0.0,0.0,0.0,0.0,0.0,0.0,-5.2814,-5.2318,-5.2932,-5.3616,0.0,0.0,-5.5547,-5.6089,-5.6562,-5.7408,-5.866,-5.9167,-6.0532,-6.2727,-6.3469,-6.4688,-6.6323,-6.7074,-6.7635,-6.8083,-6.8083,-6.867,-6.9636,-7.0413,-7.2089,-7.4301,-7.5324,-7.7573,-8.0105,-7.9707,-7.9899,-8.0556,-8.1459,-8.2038,-8.2543,-8.3253,-8.3828,-8.4268,-8.4539,-8.464,-8.464,-8.464,-8.464,-8.464,-8.464,-8.464,-8.464,-8.464,-8.5215,-8.5993,-8.6738,-8.711,-8.7347,-8.7583,-8.6839,-8.6027,-8.5452,-8.4945,-8.464,-8.464,-8.42,-8.3964,-8.42,-8.3625,-8.3004,-8.2619,-8.2212,-8.185,-8.1472,-8.2661,-8.2855,-8.1572,-8.2757,-8.26,-8.0582,-8.1031,-8.119,-8.0987,-8.0479,-8.0445,-8.0987,-7.9735,-7.9126,-7.9092,-7.8077,-7.7063]},{"header":{"parameterUnit":"m.s-1","parameterCategory":1,"la1":30.6,"la2":29.2853,"lo1":-89.7004,"lo2":-87.6739,"dy":0.0162,"dx":0.0183,"nx":112,"ny":82,"refTime":"2023-11-19T18:00:00:Z","depth":0,"parameterNumber":3,"parameterNumberName":"V-component_of_WINDS"},"data":[0.0,0.0,0.0,0.0,0.0,0.0,0.0,0.0,0.0,0.0,0.0,0.0,0.0,0.0,0.0,0.0,0.0,0.0,0.0,0.0,0.0,0.0,0.0,0.0,0.0,0.0,0.0,0.0,0.0,0.0,0.0,0.0,0.0,0.0,0.0,0.0,0.0,0.0,0.0,0.0,0.0,0.0,0.0,0.0,0.0,0.0,0.0,0.0,0.0,0.0,0.0,0.0,0.0,0.0,0.0,0.0,0.0,0.0,0.0,0.0,0.0,0.0,0.0,0.0,0.0,0.0,0.0,0.0,0.0,0.0,0.0,0.0,0.0,0.0,0.0,0.0,0.0,0.0,0.0,0.0,0.0,0.0,0.0,0.0,0.0,0.0,0.0,0.0,0.0,0.0,3.4801,3.4951,3.6558,3.809,3.922,3.8718,3.7739,3.638,0.0,0.0,0.0,0.0,0.0,0.0,0.0,0.0,0.0,0.0,0.0,0.0,0.0,0.0,0.0,0.0,0.0,0.0,0.0,0.0,0.0,0.0,0.0,0.0,0.0,0.0,0.0,0.0,0.0,0.0,0.0,0.0,0.0,0.0,0.0,0.0,0.0,0.0,0.0,0.0,0.0,0.0,0.0,0.0,0.0,0.0,0.0,0.0,0.0,0.0,0.0,0.0,0.0,0.0,0.0,0.0,0.0,0.0,0.0,0.0,0.0,0.0,0.0,0.0,0.0,0.0,0.0,0.0,0.0,0.0,0.0,0.0,0.0,0.0,0.0,0.0,0.0,0.0,0.0,0.0,0.0,0.0,0.0,0.0,0.0,0.0,0.0,0.0,0.0,0.0,0.0,0.0,0.0,0.0,0.0,0.0,0.0,0.0,0.0,0.0,0.0,0.0,0.0,0.0,3.5077,3.6053,3.6006,3.631,3.7462,3.6634,3.5884,3.5633,0.0,0.0,0.0,0.0,0.0,0.0,0.0,0.0,0.0,0.0,0.0,0.0,0.0,0.0,0.0,0.0,0.0,0.0,0.0,0.0,0.0,0.0,0.0,0.0,0.0,0.0,0.0,0.0,0.0,0.0,0.0,0.0,0.0,0.0,0.0,0.0,0.0,0.0,0.0,0.0,0.0,0.0,0.0,0.0,0.0,0.0,0.0,0.0,0.0,0.0,0.0,0.0,0.0,0.0,0.0,0.0,0.0,0.0,0.0,0.0,0.0,0.0,0.0,0.0,0.0,0.0,0.0,0.0,0.0,0.0,0.0,0.0,0.0,0.0,0.0,0.0,0.0,0.0,0.0,0.0,0.0,0.0,0.0,0.0,0.0,0.0,0.0,0.0,0.0,0.0,0.0,0.0,0.0,0.0,0.0,0.0,0.0,0.0,0.0,0.0,0.0,0.0,0.0,3.5095,3.541,3.661,3.6003,3.5834,3.6659,3.6006,3.5508,3.5508,3.5483,0.0,0.0,0.0,0.0,0.0,0.0,0.0,0.0,0.0,0.0,0.0,0.0,0.0,0.0,0.0,0.0,0.0,0.0,0.0,0.0,0.0,0.0,0.0,0.0,0.0,0.0,0.0,0.0,0.0,0.0,0.0,0.0,0.0,0.0,0.0,0.0,0.0,0.0,0.0,0.0,0.0,0.0,0.0,0.0,0.0,0.0,0.0,0.0,0.0,0.0,0.0,0.0,0.0,0.0,0.0,0.0,0.0,0.0,0.0,0.0,0.0,0.0,0.0,0.0,0.0,0.0,0.0,0.0,0.0,0.0,0.0,0.0,0.0,0.0,0.0,0.0,0.0,0.0,0.0,0.0,0.0,0.0,0.0,0.0,0.0,0.0,0.0,0.0,0.0,0.0,0.0,0.0,0.0,0.0,0.0,0.0,0.0,0.0,0.0,0.0,0.0,0.0,3.5966,3.5809,3.6873,3.6126,3.5683,3.6132,3.5655,3.5307,3.5307,3.4826,0.0,0.0,0.0,0.0,0.0,0.0,0.0,0.0,0.0,0.0,0.0,0.0,0.0,0.0,0.0,0.0,0.0,0.0,0.0,0.0,0.0,0.0,0.0,0.0,0.0,0.0,0.0,0.0,0.0,0.0,0.0,0.0,0.0,0.0,0.0,0.0,0.0,0.0,0.0,0.0,0.0,0.0,0.0,0.0,0.0,0.0,0.0,0.0,0.0,0.0,0.0,0.0,0.0,0.0,0.0,0.0,0.0,0.0,0.0,0.0,0.0,0.0,0.0,0.0,0.0,0.0,0.0,0.0,0.0,0.0,0.0,0.0,0.0,0.0,0.0,0.0,0.0,0.0,0.0,0.0,0.0,0.0,0.0,0.0,0.0,0.0,0.0,0.0,0.0,0.0,0.0,0.0,0.0,0.0,0.0,0.0,0.0,0.0,0.0,0.0,0.0,0.0,3.6044,3.6209,3.6925,3.6126,3.5508,3.5558,3.5056,3.4776,3.4776,3.4248,0.0,0.0,0.0,0.0,0.0,0.0,0.0,0.0,0.0,0.0,0.0,0.0,0.0,0.0,0.0,0.0,0.0,0.0,0.0,0.0,0.0,0.0,0.0,0.0,0.0,0.0,0.0,0.0,0.0,0.0,0.0,0.0,0.0,0.0,0.0,0.0,0.0,0.0,0.0,0.0,0.0,0.0,0.0,0.0,0.0,0.0,0.0,0.0,0.0,0.0,0.0,0.0,0.0,0.0,0.0,0.0,0.0,0.0,0.0,0.0,0.0,0.0,0.0,0.0,0.0,0.0,0.0,0.0,0.0,0.0,0.0,0.0,0.0,0.0,0.0,0.0,0.0,0.0,0.0,0.0,0.0,0.0,0.0,0.0,0.0,0.0,0.0,0.0,0.0,0.0,0.0,0.0,0.0,0.0,0.0,0.0,0.0,0.0,0.0,0.0,0.0,0.0,3.7756,3.7796,0.0,3.7122,3.6264,3.5859,3.5142,3.468,3.468,0.0,0.0,0.0,0.0,0.0,0.0,0.0,0.0,0.0,0.0,0.0,0.0,0.0,0.0,0.0,0.0,0.0,0.0,0.0,0.0,0.0,0.0,0.0,0.0,0.0,0.0,0.0,0.0,0.0,0.0,0.0,0.0,0.0,0.0,0.0,0.0,0.0,0.0,0.0,0.0,0.0,0.0,0.0,0.0,0.0,0.0,0.0,0.0,0.0,0.0,0.0,0.0,0.0,0.0,0.0,0.0,0.0,0.0,0.0,0.0,0.0,0.0,0.0,0.0,0.0,0.0,0.0,0.0,0.0,0.0,0.0,0.0,0.0,0.0,0.0,0.0,0.0,0.0,0.0,0.0,0.0,0.0,0.0,0.0,0.0,0.0,0.0,0.0,0.0,0.0,0.0,0.0,0.0,0.0,0.0,0.0,0.0,0.0,0.0,0.0,0.0,0.0,3.8355,3.8664,3.8736,0.0,3.7892,3.6985,3.634,3.5341,3.468,3.468,0.0,0.0,0.0,0.0,0.0,0.0,0.0,0.0,0.0,0.0,0.0,0.0,0.0,0.0,0.0,0.0,0.0,0.0,0.0,0.0,0.0,0.0,0.0,0.0,0.0,0.0,0.0,0.0,0.0,0.0,0.0,0.0,0.0,0.0,0.0,0.0,0.0,0.0,0.0,0.0,0.0,0.0,0.0,0.0,0.0,0.0,0.0,0.0,0.0,0.0,0.0,0.0,0.0,0.0,0.0,0.0,0.0,0.0,0.0,0.0,0.0,0.0,0.0,0.0,0.0,0.0,0.0,0.0,0.0,0.0,0.0,0.0,0.0,0.0,0.0,0.0,0.0,0.0,0.0,0.0,0.0,0.0,0.0,0.0,0.0,0.0,0.0,0.0,0.0,0.0,0.0,0.0,0.0,0.0,0.0,0.0,0.0,0.0,0.0,0.0,0.0,0.0,3.7833,3.8383,3.8777,3.8915,3.827,3.7632,3.7056,3.5615,3.4726,0.0,0.0,0.0,0.0,0.0,0.0,0.0,0.0,0.0,0.0,0.0,0.0,0.0,0.0,0.0,0.0,0.0,0.0,0.0,0.0,0.0,0.0,0.0,0.0,0.0,0.0,0.0,0.0,0.0,0.0,0.0,0.0,0.0,0.0,0.0,0.0,0.0,0.0,0.0,0.0,0.0,0.0,0.0,0.0,0.0,0.0,0.0,0.0,0.0,0.0,0.0,0.0,0.0,0.0,0.0,0.0,0.0,0.0,0.0,0.0,0.0,0.0,0.0,0.0,0.0,0.0,0.0,0.0,0.0,0.0,0.0,0.0,0.0,0.0,0.0,0.0,0.0,0.0,0.0,0.0,0.0,0.0,0.0,0.0,0.0,0.0,0.0,0.0,0.0,0.0,0.0,0.0,0.0,0.0,0.0,0.0,0.0,0.0,0.0,0.0,0.0,0.0,0.0,3.9222,3.9618,3.9865,4.0395,4.0069,3.9273,3.8021,3.6909,3.5872,3.4796,0.0,0.0,0.0,0.0,0.0,0.0,0.0,0.0,0.0,0.0,0.0,0.0,0.0,0.0,0.0,0.0,0.0,0.0,0.0,0.0,0.0,0.0,0.0,0.0,0.0,0.0,0.0,0.0,0.0,0.0,0.0,0.0,0.0,0.0,0.0,0.0,0.0,0.0,0.0,0.0,0.0,0.0,0.0,0.0,0.0,0.0,0.0,0.0,0.0,0.0,0.0,0.0,0.0,0.0,0.0,0.0,0.0,0.0,0.0,0.0,0.0,0.0,0.0,0.0,0.0,0.0,0.0,0.0,0.0,0.0,0.0,0.0,0.0,0.0,0.0,0.0,0.0,0.0,0.0,0.0,0.0,0.0,0.0,0.0,0.0,0.0,0.0,0.0,0.0,0.0,0.0,0.0,0.0,0.0,0.0,0.0,0.0,0.0,0.0,0.0,0.0,0.0,3.9518,3.9944,4.035,4.1018,4.0813,4.0049,3.8782,3.7431,3.6108,3.4796,0.0,0.0,0.0,0.0,0.0,0.0,0.0,0.0,0.0,0.0,0.0,0.0,0.0,0.0,0.0,0.0,0.0,0.0,0.0,0.0,0.0,0.0,0.0,0.0,0.0,0.0,0.0,0.0,0.0,0.0,0.0,0.0,0.0,0.0,0.0,0.0,0.0,0.0,0.0,0.0,0.0,0.0,0.0,0.0,0.0,0.0,0.0,0.0,0.0,0.0,0.0,0.0,0.0,0.0,0.0,0.0,0.0,0.0,0.0,0.0,0.0,0.0,0.0,0.0,0.0,0.0,0.0,0.0,0.0,0.0,0.0,0.0,0.0,0.0,0.0,0.0,0.0,0.0,0.0,0.0,0.0,0.0,0.0,0.0,0.0,0.0,0.0,0.0,0.0,0.0,0.0,0.0,0.0,0.0,0.0,0.0,0.0,0.0,0.0,0.0,0.0,0.0,3.9189,3.977,4.0379,4.1105,4.0925,4.0346,3.9431,3.751,3.5955,3.4906,0.0,0.0,0.0,0.0,0.0,0.0,0.0,0.0,0.0,0.0,0.0,0.0,0.0,0.0,0.0,0.0,0.0,0.0,0.0,0.0,0.0,0.0,0.0,0.0,0.0,0.0,0.0,0.0,0.0,0.0,0.0,0.0,0.0,0.0,0.0,0.0,0.0,0.0,0.0,0.0,0.0,0.0,0.0,0.0,0.0,0.0,0.0,0.0,0.0,0.0,0.0,0.0,0.0,0.0,0.0,0.0,0.0,0.0,0.0,0.0,4.4207,0.0,0.0,0.0,0.0,0.0,0.0,0.0,0.0,0.0,0.0,0.0,0.0,0.0,0.0,0.0,0.0,0.0,0.0,0.0,0.0,0.0,0.0,0.0,0.0,0.0,0.0,0.0,0.0,0.0,0.0,0.0,0.0,0.0,0.0,0.0,0.0,0.0,0.0,0.0,0.0,0.0,3.977,4.0031,4.0554,4.1744,4.1811,4.1409,4.0389,3.9229,3.7767,3.5903,3.4514,0.0,0.0,0.0,0.0,0.0,0.0,0.0,0.0,0.0,0.0,0.0,0.0,0.0,0.0,0.0,0.0,0.0,0.0,0.0,0.0,0.0,0.0,0.0,0.0,0.0,0.0,0.0,0.0,0.0,0.0,0.0,0.0,0.0,0.0,0.0,0.0,0.0,0.0,0.0,0.0,0.0,0.0,0.0,0.0,0.0,0.0,0.0,0.0,0.0,0.0,0.0,0.0,0.0,0.0,0.0,0.0,0.0,0.0,0.0,0.0,4.6128,0.0,0.0,0.0,0.0,0.0,0.0,0.0,0.0,0.0,0.0,0.0,0.0,0.0,0.0,0.0,0.0,0.0,0.0,0.0,0.0,0.0,0.0,0.0,0.0,0.0,0.0,0.0,0.0,0.0,0.0,0.0,0.0,0.0,0.0,0.0,0.0,0.0,0.0,0.0,0.0,4.0379,4.0292,4.0612,4.1947,4.2092,4.166,4.0689,3.9507,3.8155,3.6603,3.49,0.0,0.0,0.0,0.0,0.0,0.0,0.0,0.0,0.0,0.0,0.0,0.0,0.0,0.0,0.0,0.0,0.0,0.0,0.0,0.0,0.0,0.0,0.0,0.0,0.0,0.0,0.0,0.0,0.0,0.0,0.0,0.0,0.0,0.0,0.0,0.0,0.0,0.0,0.0,0.0,0.0,0.0,0.0,0.0,0.0,0.0,0.0,0.0,0.0,0.0,0.0,0.0,0.0,5.1002,5.1799,5.3241,5.2816,5.3649,5.5221,5.1987,5.0023,4.8981,0.0,0.0,0.0,0.0,0.0,0.0,0.0,0.0,0.0,0.0,0.0,0.0,0.0,0.0,0.0,0.0,0.0,0.0,0.0,0.0,0.0,0.0,0.0,0.0,0.0,4.5499,4.471,0.0,0.0,0.0,0.0,0.0,0.0,0.0,0.0,0.0,0.0,0.0,0.0,4.0728,4.0525,4.0728,4.1976,4.2092,4.1773,4.093,3.9572,3.838,3.7537,3.5484,3.4464,0.0,0.0,0.0,0.0,0.0,0.0,0.0,0.0,0.0,0.0,0.0,0.0,0.0,0.0,0.0,0.0,0.0,0.0,0.0,0.0,0.0,0.0,0.0,0.0,0.0,0.0,0.0,0.0,0.0,0.0,0.0,0.0,4.6357,4.5847,0.0,0.0,0.0,0.0,0.0,0.0,0.0,0.0,0.0,0.0,0.0,0.0,0.0,5.0026,5.1341,5.2798,5.3683,5.3942,5.5028,5.5372,5.5083,5.5574,5.5629,5.5445,5.601,0.0,5.1987,4.9363,0.0,0.0,0.0,0.0,0.0,0.0,0.0,0.0,0.0,0.0,0.0,0.0,0.0,0.0,0.0,0.0,0.0,0.0,0.0,0.0,0.0,0.0,4.5694,4.5138,4.4632,4.4284,0.0,4.3186,4.2027,4.1363,3.9196,0.0,0.0,0.0,0.0,0.0,0.0,0.0,4.0205,4.067,4.125,4.2005,4.2092,4.2051,4.1897,4.0916,4.0053,3.9466,3.7176,3.5626,3.5253,3.3844,0.0,0.0,0.0,0.0,0.0,0.0,0.0,0.0,0.0,0.0,0.0,0.0,0.0,0.0,0.0,0.0,0.0,0.0,0.0,0.0,0.0,0.0,0.0,0.0,0.0,0.0,0.0,0.0,0.0,4.6496,4.8011,4.6046,4.6779,4.6941,0.0,0.0,0.0,0.0,0.0,0.0,0.0,0.0,0.0,5.1208,5.1689,5.2554,5.3815,5.4248,5.5039,5.6084,5.6316,5.6839,5.7623,5.7913,5.8261,5.8668,5.8842,5.7974,5.6222,5.3492,5.1717,5.059,0.0,0.0,0.0,0.0,4.8444,4.8403,4.8167,4.7354,0.0,4.4911,0.0,0.0,0.0,0.0,0.0,0.0,0.0,0.0,0.0,0.0,0.0,4.6658,4.6392,4.6098,4.6011,4.4598,4.3094,0.0,4.1112,4.013,3.9789,0.0,0.0,0.0,0.0,3.9857,4.0554,4.0931,4.1366,4.2034,4.2092,4.2092,4.2092,4.117,4.0491,4.028,3.7957,3.6637,3.6716,3.5264,3.4424,0.0,0.0,0.0,0.0,0.0,0.0,0.0,0.0,0.0,0.0,0.0,0.0,0.0,0.0,0.0,0.0,0.0,0.0,0.0,0.0,0.0,0.0,0.0,0.0,0.0,0.0,0.0,0.0,4.842,4.9751,4.6837,4.8551,4.9075,0.0,0.0,0.0,0.0,0.0,0.0,5.0934,5.2324,5.3355,5.3994,5.3994,5.4604,5.5881,5.562,5.6084,5.7303,5.7187,5.7826,5.9045,5.9219,5.9713,6.0438,6.0119,5.9626,5.8871,5.6607,5.4923,5.3588,5.2172,5.1101,5.0398,5.0884,5.0969,5.0844,5.0647,4.9968,4.8902,4.7067,0.0,4.3768,4.2534,0.0,0.0,0.0,0.0,4.3718,4.4879,4.5821,4.6605,4.7033,4.681,4.6367,4.5909,4.4776,4.3673,0.0,4.2474,4.1737,4.0547,0.0,0.0,0.0,0.0,4.0234,4.0989,4.125,4.1541,4.2034,4.2092,4.2092,4.2092,4.1381,4.0859,4.0603,3.8715,3.7543,3.7586,3.6264,3.5307,3.4906,0.0,0.0,0.0,0.0,0.0,0.0,0.0,0.0,0.0,0.0,0.0,0.0,0.0,0.0,0.0,0.0,0.0,0.0,0.0,0.0,0.0,0.0,0.0,0.0,0.0,0.0,0.0,0.0,0.0,4.9783,5.2272,0.0,0.0,0.0,0.0,5.1317,5.2555,5.3279,5.3308,5.3999,5.4691,5.53,5.53,5.5939,5.7187,5.7826,5.7826,5.7303,5.8552,5.8871,5.8377,5.9016,5.8987,5.8493,5.9074,5.8958,5.8261,5.6897,5.562,5.4342,5.3289,5.2155,5.115,5.2279,5.2326,5.194,5.2466,5.1561,5.004,4.9119,4.6835,4.4353,4.3691,4.3547,0.0,0.0,4.4498,4.5902,4.5347,4.5429,4.5477,4.4678,4.3737,4.3067,4.2991,4.3202,4.3506,0.0,4.2457,4.1314,4.1906,0.0,4.1007,4.1047,4.157,4.1744,4.1163,4.1657,4.2063,4.2092,4.2092,4.2092,4.2092,4.2051,4.1619,4.0646,3.964,3.8497,3.7101,3.6034,3.5483,3.5458,3.4474,0.0,0.0,0.0,0.0,0.0,0.0,0.0,0.0,0.0,0.0,0.0,0.0,0.0,0.0,0.0,0.0,0.0,0.0,0.0,0.0,0.0,0.0,0.0,0.0,0.0,0.0,0.0,0.0,5.231,5.4981,0.0,5.3065,5.321,5.3646,5.4023,5.4487,5.5271,5.652,5.6403,5.6607,5.7245,5.7274,5.7477,5.7942,5.861,5.8813,5.8581,5.8639,5.8958,5.951,5.8929,5.8958,5.948,5.89,5.8523,5.8232,5.7332,5.6723,5.6229,5.5683,5.5019,5.4436,5.4436,5.4535,5.457,5.3744,5.2679,5.1235,4.8692,4.646,4.4906,4.5221,4.5448,4.5675,4.6189,4.6754,4.7073,4.6304,4.6329,4.6118,4.4311,4.3928,4.3764,4.2955,4.2589,4.25,4.2867,4.2625,4.2266,4.2121,4.1541,4.1105,4.1105,4.1308,4.1366,4.1134,4.1686,4.2092,4.2092,4.2092,4.1814,4.1212,4.1099,4.0717,3.9782,3.881,3.7896,3.703,3.6034,3.5157,3.45,3.4098,3.3997,0.0,0.0,0.0,0.0,0.0,0.0,0.0,0.0,0.0,0.0,0.0,0.0,0.0,0.0,0.0,0.0,0.0,0.0,0.0,0.0,0.0,0.0,0.0,0.0,0.0,0.0,5.5068,5.3994,5.6868,5.7942,5.5387,5.5736,5.62,5.6374,5.6781,5.7507,5.8581,5.8406,5.8406,5.8639,5.8639,5.8639,5.8639,5.9277,5.9393,5.8958,5.8958,5.9161,5.9539,5.8929,5.8958,5.951,5.8668,5.8174,5.7942,5.7477,5.7303,5.7274,5.7202,5.672,5.6113,5.5754,5.5627,5.5351,5.3765,5.2092,5.0251,4.839,4.6508,4.5117,4.6118,4.6206,4.6146,4.6794,4.7013,4.6838,4.6049,4.5807,4.5262,4.3556,4.3024,4.2719,4.1951,4.1373,4.1153,4.1773,4.2201,4.2408,4.2167,4.1715,4.1512,4.1715,4.1744,4.1744,4.1744,4.2121,4.217,4.1647,4.1577,4.1212,4.0216,4.013,3.9628,3.8541,3.787,3.7137,3.6251,3.575,3.5157,3.4474,3.4274,3.4098,3.3897,0.0,0.0,0.0,0.0,0.0,0.0,0.0,0.0,0.0,0.0,0.0,0.0,0.0,0.0,0.0,0.0,0.0,0.0,0.0,0.0,0.0,0.0,0.0,5.1614,5.4952,5.6636,5.4865,5.7942,5.9248,5.6781,5.8232,5.9074,5.8406,5.951,5.9945,5.9393,5.9887,5.9916,5.9364,5.9335,5.9335,5.9335,5.9916,5.9597,5.832,5.9597,5.9539,5.8291,5.8987,5.89,5.829,5.829,5.7913,5.7303,5.7247,5.7247,5.7303,5.7669,5.6991,5.585,5.6118,5.5319,5.395,5.2532,4.9774,4.7108,4.8454,4.7053,4.5066,4.6243,4.5729,4.4811,4.4861,4.5119,4.5291,4.4543,4.3719,4.2866,4.2214,4.085,3.9722,3.9697,3.9519,3.9685,4.0683,4.1204,4.1592,4.2042,4.208,4.2283,4.2863,4.295,0.0,4.2878,4.2878,4.228,4.073,4.0589,4.0173,3.9282,3.9166,3.8523,3.703,3.6933,3.6251,3.4751,3.5182,3.5483,3.5483,3.4956,3.4474,3.3947,0.0,0.0,0.0,0.0,0.0,0.0,0.0,0.0,0.0,0.0,0.0,0.0,0.0,0.0,0.0,0.0,0.0,0.0,0.0,0.0,0.0,0.0,5.353,5.3704,5.5794,5.7477,5.7942,5.9713,6.0467,5.9277,5.9626,5.9887,5.9684,6.0003,6.0351,6.0671,6.038,6.0119,5.9945,5.9945,5.9945,5.9945,6.0584,6.005,5.832,5.9589,5.927,5.761,5.8263,5.8464,5.829,5.7797,5.7477,5.7247,5.628,5.5934,5.5992,5.7078,5.7032,5.6384,5.4873,5.2792,5.0511,4.909,4.7704,4.6435,4.6026,4.5116,4.4325,4.5209,4.5314,4.5128,4.5727,4.5967,4.5732,4.4308,4.3756,4.3153,4.1333,4.061,4.0174,3.9772,3.9373,3.934,4.0293,4.0224,4.0586,4.2437,4.2152,4.1737,4.1951,4.1311,0.0,4.0304,4.0249,4.0228,4.0165,4.0148,3.9789,3.8813,3.8398,3.7515,3.6014,3.5562,3.5147,3.4726,3.4831,3.4906,3.4906,3.5157,3.5207,0.0,0.0,0.0,0.0,0.0,0.0,0.0,0.0,0.0,0.0,0.0,0.0,0.0,0.0,0.0,0.0,0.0,0.0,0.0,0.0,0.0,0.0,5.2756,5.5068,5.562,5.7303,5.8813,5.9568,6.0584,6.1048,6.0642,6.0613,6.0613,6.0613,6.0613,6.0787,6.1164,6.1077,6.0874,6.0613,6.0845,6.0874,6.0613,6.0419,5.9639,5.8226,5.8438,5.7655,5.606,5.6448,5.6493,0.0,5.5872,5.5844,5.5953,5.4967,5.4726,0.0,0.0,0.0,0.0,0.0,5.0186,4.7938,4.71,4.6022,4.5002,4.4502,4.4075,4.3764,4.4261,4.4289,4.4289,4.4805,4.4913,4.4673,4.3713,4.3293,4.2746,4.1213,4.0676,4.0375,3.9823,3.927,3.9196,4.0138,3.979,0.0,4.2139,4.1781,4.1367,4.1633,4.116,4.0657,4.0304,4.0106,3.9897,3.9787,3.9554,3.9216,3.874,3.7998,0.0,0.0,0.0,3.468,3.468,3.4906,0.0,0.0,0.0,3.5508,3.5508,0.0,0.0,0.0,3.5805,3.583,0.0,0.0,0.0,0.0,0.0,0.0,0.0,0.0,0.0,0.0,0.0,0.0,0.0,0.0,0.0,0.0,5.4458,5.6171,5.7448,5.9248,6.0351,6.0206,6.0787,6.1193,6.1193,6.1251,6.1309,6.1309,6.1309,6.1309,6.1309,0.0,0.0,0.0,0.0,6.1858,6.1099,5.9882,5.8653,5.7645,5.6585,5.5393,5.4071,5.4337,5.41,5.3592,5.3592,5.3829,5.429,5.3545,5.3443,5.3724,5.3416,5.2582,5.13,4.9516,4.7846,4.633,4.6038,0.0,0.0,4.3836,4.3649,4.3351,4.3351,4.3184,4.2986,4.2986,4.2986,4.2986,4.2986,4.2615,4.2062,4.1455,4.0874,4.0375,3.9823,3.927,3.9171,4.0068,3.98,3.9908,4.1379,4.1214,4.1019,4.1551,4.1537,4.1463,4.1382,4.0952,4.0328,3.9429,0.0,0.0,3.8969,3.7864,3.7186,3.7186,3.5705,3.4781,3.4781,3.5307,3.5583,3.5583,3.5583,3.5583,3.5583,3.5583,3.5881,3.6405,3.5855,3.5906,0.0,0.0,0.0,0.0,0.0,0.0,0.0,0.0,0.0,0.0,0.0,0.0,0.0,0.0,0.0,5.3791,5.6171,5.8174,5.9451,6.0845,6.1338,6.0322,6.0787,6.1193,6.1193,6.1629,6.1919,6.1919,6.1919,6.1919,6.1919,6.2035,6.2035,6.1919,6.2558,6.2064,6.0319,6.004,5.819,5.4861,0.0,0.0,5.2849,5.4369,5.4786,5.4155,5.4155,5.4209,5.414,5.2563,5.1346,5.0639,5.1616,5.132,5.0029,4.8263,4.7088,4.618,4.52,4.468,4.4274,4.396,4.3507,4.3073,4.3073,4.3042,0.0,4.2986,4.2986,4.2986,4.2986,4.2615,4.2062,4.1455,4.0874,4.0375,3.9823,3.927,3.9095,3.9677,3.9728,3.988,4.0644,4.0558,4.0469,4.0623,3.999,3.9317,3.8783,3.863,3.8708,3.8993,3.8892,3.9045,3.9522,3.809,3.7186,3.7186,3.6056,3.5332,3.5332,3.5906,3.6207,3.6207,3.6207,3.6207,3.6207,3.6207,3.6304,3.6405,3.6304,3.6304,0.0,0.0,0.0,0.0,0.0,0.0,0.0,0.0,0.0,0.0,0.0,4.8554,5.0295,0.0,5.321,5.5155,5.6781,5.8261,5.9568,6.0845,6.1396,6.0787,6.1251,6.1658,6.1658,6.1919,6.2238,6.2558,6.2587,6.2587,6.2587,6.2906,6.2906,6.2616,6.3225,6.2428,6.0111,5.9384,5.7537,5.455,5.455,5.3581,5.187,5.3127,5.3086,5.2014,5.2526,5.2787,5.2696,5.1795,5.0715,4.9643,5.0049,4.9715,4.8666,4.7034,4.6213,4.5773,4.492,4.4618,4.4543,4.3991,4.3614,4.3338,4.3062,4.2986,4.2986,4.2986,4.2986,4.2986,4.2986,4.2816,4.2359,4.153,4.1075,4.0701,3.9873,3.9471,3.9371,3.9647,3.9923,4.0199,4.0475,4.0667,4.0747,4.0517,3.9778,3.917,3.8894,3.8843,3.8969,3.9245,3.927,3.9496,4.0049,3.9094,3.809,3.7236,3.6935,3.6659,3.6383,3.6885,3.7186,3.7186,3.7186,3.7186,3.7186,3.6958,3.6832,3.6807,3.6531,3.6405,0.0,0.0,0.0,0.0,0.0,0.0,0.0,0.0,4.6301,4.8306,4.9727,5.1091,5.2659,5.3471,5.4458,5.6287,5.71,5.7971,5.9306,6.0467,6.1193,6.1193,6.1832,6.2238,6.2093,6.2051,6.2303,6.2822,6.288,6.288,6.288,6.356,6.3806,6.3283,6.3893,6.2848,6.0066,5.8941,5.7143,5.4707,5.3503,5.2402,5.1448,5.18,5.1272,5.0142,5.1046,5.1322,5.1122,5.1122,5.0519,4.954,4.8987,4.8485,4.7883,4.6376,4.5748,4.5573,4.5121,4.4819,4.4543,4.4116,4.3815,4.3564,4.3112,4.2986,4.2986,4.2986,4.2986,4.2986,4.2986,4.2986,4.2735,4.1731,4.1376,4.1025,4.0022,3.9796,3.9848,3.9796,4.0322,4.0827,4.0827,4.1204,4.1304,4.0752,4.03,4.0023,4.0023,4.0023,4.0023,4.0023,4.0023,4.0099,4.035,3.9948,3.9019,3.7437,3.7764,3.7814,3.7362,3.7764,3.8015,3.8015,3.8015,3.8015,3.8015,3.7563,3.7337,3.7337,3.6885,3.6606,3.618,3.7213,3.938,4.2235,4.291,4.4059,0.0,0.0,5.0382,5.1788,5.3065,5.4052,5.4255,5.4778,5.5649,5.6984,5.7768,5.8639,5.9916,6.0729,6.1193,6.1193,6.2267,6.2732,6.2151,6.1924,6.1872,6.1957,6.1957,6.1957,6.1957,6.3255,6.3946,6.3859,6.4561,6.3257,5.987,5.9669,5.7686,5.3816,5.3199,5.2603,5.2,5.1574,5.1548,5.1825,5.195,5.1448,5.0519,5.0519,5.0142,4.954,4.8987,4.8736,4.8535,4.738,4.6652,4.62,4.615,4.5472,4.4618,4.4543,4.3865,4.3062,4.2986,4.2986,4.2986,4.2986,4.2986,4.2986,4.2986,4.2986,4.2866,4.2263,4.1681,4.1046,4.0234,4.0267,4.032,4.0084,4.1093,4.2037,4.2037,4.2087,4.1882,4.1275,4.115,4.11,4.11,4.11,4.11,4.11,4.11,4.0777,3.9873,3.9722,3.9195,3.799,3.7965,3.799,3.7914,3.7965,3.8015,3.8015,3.8015,3.8015,3.8015,3.7939,3.7914,3.7914,3.7839,3.7287,3.9032,3.9845,4.1073,4.3514,4.4765,4.6228,4.8967,5.0463,5.1644,5.2857,5.4421,5.5372,5.4624,5.5958,5.6736,0.0,5.6717,5.769,5.7808,5.8327,5.8718,5.8718,6.0206,6.1578,6.2608,6.2139,6.1949,6.2352,6.1586,6.1453,6.2342,6.296,6.3701,6.4526,6.4851,6.3334,5.9819,5.9792,5.7777,5.3708,5.3482,5.2929,5.2126,5.2503,5.2804,5.3005,5.2377,5.1825,5.1373,5.1046,5.0594,5.0017,4.9464,4.9063,4.8686,4.7883,4.7255,4.6803,4.6803,4.6276,4.5429,4.4284,4.4126,4.4252,4.3094,4.3119,4.3482,4.3637,4.3205,4.2756,4.2878,4.2729,4.2357,4.1811,4.1489,4.1136,4.0404,4.0335,4.0442,4.055,4.128,4.1993,4.2158,4.2464,4.2559,4.2333,4.1756,4.1275,4.1275,4.163,4.1806,4.1806,4.153,4.0974,4.0249,4.0174,3.9848,3.9044,3.8994,3.8994,3.8994,3.8994,3.8994,3.8994,3.8994,3.8994,3.8994,3.8668,3.8517,3.8492,3.8165,3.7764,4.0815,4.1901,4.2722,4.4557,4.6344,4.8017,4.9277,5.095,5.2566,5.3823,5.5189,5.5879,5.5078,5.6216,5.6632,5.4842,5.5716,5.6541,5.6369,5.6431,5.6685,5.6946,5.8243,5.9742,6.1513,6.1147,6.1075,6.1516,6.062,6.062,6.2109,6.2575,6.3459,6.4967,6.4647,6.2999,6.0063,5.9629,5.764,5.416,5.416,5.3607,5.2578,5.3206,5.3331,5.3005,5.2377,5.2026,5.1825,5.1272,5.0795,5.0368,4.9816,4.9339,4.8962,4.8535,4.7933,4.733,4.7118,4.6509,4.5512,4.3893,4.4012,4.4438,4.3046,4.3272,4.4059,4.4195,4.3606,4.2978,4.2905,4.2627,4.2184,4.1643,4.1397,4.1121,4.0593,4.0575,4.0684,4.0849,4.1458,4.1997,4.2218,4.2655,4.2986,4.2986,4.2308,4.1781,4.1781,4.2133,4.2439,4.2439,4.1882,4.1404,4.1003,4.0827,4.0501,3.9948,3.9923,3.9848,3.9697,3.9697,3.9697,3.9697,3.9697,3.9697,3.9697,3.9295,3.9094,3.9094,3.8668,3.8467,4.0421,4.2309,4.398,4.5901,4.7643,4.935,5.1173,5.2592,5.3909,5.5166,5.5423,5.5552,5.6024,5.5205,5.4569,5.4987,5.5157,5.5564,5.6719,5.5971,5.5762,5.6902,5.7157,5.753,0.0,5.8339,5.8533,5.856,5.8489,5.9096,6.062,6.2042,6.3459,6.4967,6.359,6.2109,6.0593,5.9139,5.7423,5.534,5.534,5.4737,5.3632,5.3181,5.2377,5.1373,5.1875,5.18,5.1272,5.0695,5.0444,5.0368,4.9816,4.959,4.9565,4.9565,4.8837,4.7807,4.7305,4.5933,4.4216,4.3588,4.306,4.2652,4.2628,4.3517,4.4535,4.4294,4.4178,4.397,4.3102,4.2897,4.2749,4.2209,4.1668,4.1243,4.0835,4.1027,4.1194,4.0835,4.1724,4.2488,4.2488,4.2793,4.2986,4.2986,4.2961,4.2936,4.2936,4.2936,4.2961,4.2961,4.2514,4.2187,4.2162,4.163,4.1025,4.0526,4.0501,4.0249,3.9722,3.9697,3.9697,3.9697,3.9697,3.9697,3.9697,3.9672,3.9672,3.9672,3.9647,3.9647,4.118,4.3291,4.5243,4.6635,4.8051,4.9419,5.0846,5.1587,5.2166,5.2636,5.274,5.2384,5.1368,5.2607,5.3286,5.1713,5.3778,5.5405,5.4883,5.4825,5.4696,5.4309,5.466,0.0,0.0,0.0,0.0,5.8392,5.7518,5.759,5.9052,6.0551,6.1571,6.2042,6.2575,6.1611,5.9166,5.863,5.7378,5.539,5.4637,5.426,5.4235,5.3331,5.2904,5.2854,5.2327,5.18,5.1247,5.067,5.0419,5.0368,4.9816,4.959,4.964,5.0017,4.9665,4.876,4.6714,4.5339,4.4245,4.2511,4.242,4.3047,4.3047,4.3748,4.4561,4.4571,4.4094,4.3448,4.2958,4.2583,4.2195,4.1662,4.1662,4.1725,4.161,4.1934,4.2317,4.2375,4.2696,4.3051,4.3284,4.3573,4.3737,4.3589,4.3212,4.2986,4.2986,4.2986,4.2986,4.2986,4.2811,4.2615,4.2238,4.2037,4.1656,4.105,4.0727,4.0425,4.0249,3.9898,3.9697,3.9697,3.9697,3.9697,3.9697,3.9697,3.9697,3.9697,3.9697,3.9697,4.2166,4.3868,4.5417,4.6786,4.764,4.8456,4.9626,5.0191,5.0404,5.0489,5.0244,4.9685,4.8544,4.9955,5.0804,4.9254,5.1948,5.4178,5.4219,5.3937,5.3767,5.398,5.3652,5.3356,0.0,0.0,0.0,5.7042,5.6548,5.6747,5.806,5.92,6.007,6.0551,6.1029,6.0318,5.8418,5.7669,5.6596,5.5089,5.4561,5.4386,5.4536,5.3432,5.3005,5.308,5.1975,5.1297,5.0921,5.0368,5.0243,5.0303,4.9404,4.9059,4.9109,4.9455,4.9315,4.8608,4.659,4.5231,4.4067,4.2266,4.2302,4.3096,4.3693,4.4429,4.5037,4.5097,4.4439,4.3602,4.2975,4.2639,4.2351,4.1629,4.187,4.2303,4.2471,4.2784,4.3084,4.3264,4.3408,4.3479,4.3521,4.3885,4.4136,4.3994,4.3733,4.3413,4.3037,4.2986,4.2986,4.2986,4.2986,4.2836,4.2539,4.2514,4.2208,4.1656,4.1304,4.1003,4.0774,4.0475,4.0199,3.9998,3.9998,3.9898,3.9697,3.9697,3.9697,3.9697,3.9697,3.9697,4.3089,4.4004,4.4625,4.6283,4.6472,4.6532,4.7641,4.8317,4.8766,4.8721,4.8094,4.7496,0.0,0.0,4.728,4.7844,5.0047,5.2473,5.4931,5.3726,5.3413,0.0,0.0,0.0,0.0,0.0,0.0,5.4561,0.0,5.6569,5.7494,5.806,5.9052,6.0345,5.9096,5.8347,5.8276,5.6361,5.5089,5.4536,5.5089,5.5064,5.4536,5.3432,5.2628,5.2076,5.0921,5.0393,5.0343,4.9816,4.9851,5.0131,4.8689,4.8084,4.8016,4.7973,4.7746,4.7356,4.6768,4.5425,4.3758,4.275,4.2482,4.2815,4.4375,4.5422,4.598,4.5667,4.5154,4.4401,4.3096,4.3072,4.3046,4.2101,4.2376,4.2988,4.3359,4.3503,4.3551,4.3503,4.3771,4.3808,4.3275,4.3772,4.4243,4.4252,4.4436,4.4267,4.3187,4.3062,4.3062,4.3011,4.3011,4.3011,4.2986,4.2986,4.276,4.2288,4.2213,4.1932,4.1351,4.13,4.105,4.0576,4.0551,4.03,3.9772,3.9772,3.9772,3.9747,3.9747,3.9722,4.3141,4.3992,4.4697,4.5137,4.4776,4.4477,4.4752,4.5006,4.4804,4.3688,4.4067,4.4294,0.0,0.0,0.0,4.8713,5.2111,0.0,5.7544,5.7744,0.0,5.6663,0.0,5.5237,5.3872,5.4235,0.0,0.0,5.5214,5.5861,5.6548,5.7727,5.8089,5.7303,5.7992,5.7876,5.675,5.5883,5.4888,5.3934,5.4486,5.4712,5.4536,5.3432,5.2854,5.2628,5.1096,5.0193,4.9791,4.9665,4.924,4.8622,4.8219,4.7451,4.6472,4.6612,4.6128,4.5234,4.3867,4.3266,4.2836,4.0882,4.0936,4.2148,4.3565,4.4954,4.5909,4.5845,4.4737,4.3345,4.263,4.1656,4.074,4.0074,4.177,4.3386,4.3131,4.3687,4.4105,4.3734,4.3729,4.3694,4.3411,4.4429,4.5135,4.4863,4.4858,4.4727,4.4234,4.4192,4.4041,4.3639,4.3589,4.3413,4.3011,4.2737,4.2687,4.2785,4.2218,4.1863,4.1957,4.1555,4.1225,4.1075,4.1075,4.1,4.0874,4.0874,4.0701,4.03,4.03,4.0099,4.3075,4.3416,4.3664,4.3355,4.2681,4.1887,4.1176,4.1038,4.0796,3.9836,4.034,4.0789,4.0305,4.3275,4.6119,0.0,0.0,0.0,5.7879,5.8313,5.8361,0.0,5.6947,0.0,5.4532,5.4737,5.5039,0.0,5.5566,5.5767,5.5842,5.684,5.704,5.6219,5.6968,5.681,5.5491,5.5415,5.4813,5.3708,5.4536,5.4662,5.416,5.3306,5.2653,5.2126,0.0,4.9891,4.959,4.959,4.8895,4.7748,4.7288,4.6219,4.4945,4.4909,4.4454,4.3639,4.2273,4.1884,4.1786,4.0717,4.0759,4.1602,4.317,4.396,4.4305,4.4305,4.341,4.2255,4.1761,4.1132,4.0497,3.9953,4.1353,4.2682,4.2615,4.3108,4.3422,4.313,4.2906,4.2681,4.2587,4.3933,4.4825,4.4385,4.5086,4.5579,4.521,4.4803,4.4493,4.4192,4.394,4.3765,4.3714,4.3294,4.3269,4.3689,4.3244,4.2969,4.2886,4.2585,4.2208,4.1706,4.1681,4.158,4.1275,4.1275,4.1125,4.0824,4.0824,4.0358,4.2872,4.2474,4.1932,4.128,4.0207,3.8912,3.7462,3.7112,3.7015,3.6691,3.6985,3.7559,3.8364,4.1355,4.3962,4.4785,0.0,5.4724,5.6959,5.7157,5.7667,5.9332,5.7284,5.5707,5.5491,5.5491,5.5691,5.6168,5.6219,5.6018,5.5516,5.5942,5.6219,5.6219,5.6219,5.5691,5.4587,5.5114,5.4787,5.3607,5.4813,5.4787,5.3683,5.3231,5.2477,5.1423,0.0,0.0,4.9816,4.9741,4.8846,4.7466,4.6425,4.5107,4.3676,4.3014,4.2542,4.2099,4.1209,4.0708,4.0596,4.0987,4.0987,4.1096,4.2827,4.2931,4.246,4.246,4.2018,4.1402,4.0859,4.0939,4.104,4.0568,4.1004,4.1705,4.2185,4.2293,4.2202,4.193,4.1654,4.1467,4.1337,4.2772,4.3802,4.3295,4.4785,4.5857,4.5454,4.5047,4.4819,4.4744,4.4317,4.4166,4.4493,4.4084,4.4034,4.4493,4.4535,4.436,4.394,4.3915,4.3463,4.2564,4.2539,4.2208,4.1601,4.1601,4.1472,4.116,4.116,4.0433,4.2438,4.12,3.9709,3.9626,3.7591,3.5462,3.484,3.4774,0.0,3.3684,3.4612,3.5918,3.6804,3.9054,4.2127,4.6019,4.9363,5.2793,5.6631,5.7574,5.7863,0.0,5.7903,5.7389,5.6214,5.6068,0.0,0.0,0.0,5.6168,5.6068,5.6168,5.6219,5.6219,5.6219,5.5691,5.4587,5.5114,5.4612,5.308,5.4637,5.4787,5.3708,5.3607,5.3231,5.2553,5.0971,0.0,5.0946,5.0469,4.9635,4.8543,4.7167,4.5281,4.3085,4.1452,4.0448,3.9763,3.9248,3.9063,3.9011,3.909,3.9899,4.0891,4.1167,4.2351,4.3442,4.3442,4.2529,4.1385,4.0925,4.0157,3.946,3.9042,4.0534,4.2095,4.2105,4.2126,4.1658,4.0051,4.0688,4.1259,4.0417,4.1585,4.2523,4.2282,4.2548,4.2965,4.3422,4.4971,4.5849,4.5397,4.5246,4.4844,4.4016,4.4061,4.4053,4.3966,4.4161,4.4303,4.4493,4.4493,4.4392,4.4192,4.4192,4.3915,4.3388,4.3388,4.2382,4.0466,4.0466,3.953,4.1899,4.0737,3.9437,3.9023,3.6997,3.4696,3.3134,0.0,0.0,3.1375,3.2111,3.3236,3.4411,3.7504,4.0652,4.3099,4.7365,5.1531,5.4784,5.5969,5.689,5.7861,5.7578,5.6968,0.0,5.6219,5.6219,0.0,0.0,5.6219,5.6219,5.6219,5.6219,5.6219,5.6219,5.5817,5.4988,5.4963,5.4561,5.3783,5.4285,5.4084,5.3306,5.3306,5.2854,5.2026,5.1222,0.0,5.1272,5.0971,5.0104,4.8807,4.7097,4.5091,4.2992,4.087,3.9679,3.9215,3.8975,3.875,3.8691,3.9375,3.9776,4.0004,4.0245,4.0797,4.1338,4.1338,4.0849,4.0224,4.0004,3.979,3.957,3.959,4.0484,4.1309,4.1234,4.1234,4.1103,4.0367,4.0444,4.0506,4.0011,4.08,4.1374,4.1023,4.1757,4.2414,4.2505,4.3692,4.4846,4.5563,4.5803,4.5824,4.5547,4.5128,4.4919,4.5095,4.5254,4.5219,4.5095,4.507,4.4945,4.4644,4.4618,4.4493,4.4242,4.4069,4.3136,4.1475,4.1095,3.9768,4.1408,4.0434,3.934,3.8715,3.6768,3.4329,3.1919,3.0762,0.0,2.9761,2.9966,3.0713,3.2314,3.5568,3.8409,3.9769,4.441,4.8877,5.1802,5.3283,5.4946,0.0,5.6666,0.0,5.6219,5.6219,0.0,0.0,0.0,0.0,5.6194,5.6093,5.6043,5.6043,5.5917,5.5591,5.5039,5.4712,5.4436,5.421,5.3984,5.3557,5.2929,5.303,5.2553,5.1624,5.1498,0.0,0.0,5.1498,5.0819,4.9547,4.7166,4.5296,4.3478,4.0866,3.9677,3.9366,3.9312,3.9199,3.9141,4.0078,3.9844,3.9297,3.9863,3.9766,3.9492,3.9492,3.9551,3.9609,3.9512,3.9824,4.0234,4.0469,4.0586,4.0664,4.0664,4.0742,4.0898,4.125,4.0762,4.0273,4.0176,4.0592,4.0709,4.0106,4.1186,4.193,4.1438,4.2099,4.3241,4.4916,4.574,4.6326,4.6588,4.6245,4.615,4.6476,4.6602,4.6451,4.6024,4.5839,4.5504,4.5053,4.4869,4.4686,4.4586,4.4033,4.3249,4.2065,4.1041,3.9507,4.1396,4.0071,3.8069,3.8135,3.5853,3.3113,3.1387,0.0,2.9998,2.9153,2.8736,2.9232,3.1664,3.221,3.394,3.877,4.0138,4.2462,4.7668,4.9808,5.1648,5.3867,0.0,0.0,5.6219,0.0,0.0,0.0,0.0,0.0,5.6194,5.5742,5.5465,5.5465,5.4988,5.4436,5.3858,5.4336,5.4059,5.308,5.4034,5.3934,5.2955,5.3406,5.3306,5.2754,5.2251,0.0,0.0,5.2226,5.1958,5.1526,4.8193,4.631,4.4958,4.1608,4.016,3.986,3.9824,4.0059,4.0293,4.0039,3.9609,3.9355,4.0215,4.043,4.041,4.041,4.0684,4.0898,4.0508,4.0723,4.0976,4.0605,4.082,4.1113,4.1113,4.1406,4.1699,4.1738,4.168,4.1504,4.1113,4.1131,4.0875,4.005,4.0081,3.9988,3.9518,4.0604,4.1763,4.2692,4.4662,4.5652,4.5131,4.6662,4.7506,4.7018,4.7506,4.7732,4.7682,4.6922,4.6463,4.6414,4.5612,4.4998,4.4505,4.3227,4.1845,4.0402,3.8747,3.7445,3.8857,3.835,3.7572,3.7699,3.5369,3.2734,3.1543,3.0312,2.9258,2.8672,2.8398,2.8677,2.9919,3.095,3.2671,3.6027,3.7753,4.0282,4.4769,4.6301,4.8385,5.2277,5.3331,0.0,0.0,0.0,0.0,0.0,0.0,0.0,5.5214,5.5013,5.4888,5.4888,5.4687,5.4461,5.421,5.411,5.3833,5.3381,5.3507,5.3356,5.2929,5.313,5.313,5.2929,5.2703,0.0,0.0,5.2473,5.226,5.1891,4.8157,4.6324,4.5301,4.1779,4.0249,3.998,4.0488,4.0605,4.0664,4.1523,4.1172,4.041,4.0488,4.0703,4.0859,4.0586,4.0644,4.0742,4.0566,4.1035,4.1504,4.1328,4.1857,4.2309,4.2345,4.2682,4.288,4.2639,4.2148,4.166,4.125,4.0957,4.0664,4.0332,4.0488,4.0526,4.005,4.0921,4.1592,4.1617,4.3436,4.494,4.5878,4.6357,4.6528,4.6333,4.7346,4.7383,4.6348,4.677,4.7009,4.6797,4.6412,4.5981,4.5441,4.4715,4.3075,4.0788,3.9613,3.8103,3.6856,3.7061,3.6967,3.7097,3.4929,3.2539,3.1562,3.0176,2.8945,2.8398,2.8301,2.8418,2.8848,3.0079,3.17,3.3602,3.5848,3.8581,4.2072,4.3587,4.5949,0.0,0.0,5.2151,0.0,0.0,0.0,0.0,0.0,0.0,5.411,5.4084,5.416,5.431,5.416,5.4084,5.4084,5.3683,5.3457,5.3457,5.3105,5.2929,5.2929,5.2929,5.2929,5.2929,0.0,0.0,0.0,5.2515,5.2308,5.1866,4.8022,4.6337,4.5589,4.2039,4.0527,4.0351,4.0957,4.1055,4.1074,4.2168,4.207,4.1445,4.1033,4.115,4.1326,4.1089,4.101,4.0857,4.0703,4.125,4.1797,4.1797,4.2447,4.31,4.3212,4.3635,4.3836,4.3568,4.3016,4.2425,4.1973,4.1562,4.123,4.1113,4.123,4.1152,4.0586,4.0986,4.1263,4.1102,4.2229,4.3753,4.5605,4.6085,4.6101,4.5646,4.6963,4.7155,4.5776,4.6432,4.6895,4.6983,4.6773,4.6441,4.605,4.5252,4.3867,4.1855,4.0208,3.8331,3.609,3.646,3.6059,3.6185,3.4465,3.2461,3.1191,3.0215,2.9372,2.8476,2.8301,2.8418,2.8848,2.9416,3.037,3.1954,3.4075,3.6494,3.9351,4.2121,4.4644,0.0,0.0,4.969,0.0,0.0,0.0,0.0,0.0,0.0,5.298,5.2955,5.3181,5.3683,5.3206,5.2955,5.2955,5.2929,5.2929,5.2929,5.2929,5.2929,5.2929,5.2929,5.2929,0.0,0.0,0.0,0.0,5.2377,5.2169,5.1446,4.7877,4.6463,4.6019,4.2503,4.1172,4.1172,4.1172,4.1445,4.1719,4.1328,4.1758,4.2326,4.1875,4.1773,4.185,4.2293,4.2062,4.1695,4.1327,4.1484,4.1797,4.1797,4.2447,4.318,4.3616,4.4039,4.4402,4.4353,4.435,4.4268,4.3754,4.332,4.291,4.248,4.2051,4.1484,4.0625,4.0527,4.0656,4.1028,4.1116,4.1853,4.3676,4.5984,4.6779,4.53,4.6579,4.7269,4.687,4.6064,4.6133,4.7159,4.6392,4.5934,4.591,4.4015,4.3286,4.352,3.982,3.7394,3.2486,3.3256,3.3649,3.3133,3.2018,3.084,3.0137,2.9316,2.8613,2.8359,2.8301,2.8418,2.8848,2.9104,3.0153,3.2759,3.4575,3.643,0.0,0.0,0.0,4.6767,5.0444,5.3005,0.0,0.0,0.0,0.0,0.0,0.0,5.2402,5.2377,5.2603,5.3155,5.3005,5.2929,5.2929,5.2929,5.2929,5.2929,5.2929,5.2792,5.2585,5.2585,0.0,0.0,0.0,0.0,0.0,5.1726,5.1516,5.1071,4.7462,4.6063,4.5692,4.2447,4.1172,4.1211,4.1504,4.1837,4.2211,4.2052,4.217,4.2408,4.221,4.2209,4.2149,4.2007,4.1927,4.1774,4.168,4.1699,4.1953,4.2539,4.3096,4.3536,4.3644,4.407,4.4194,4.3628,4.3526,4.3347,4.2891,4.2969,4.3027,4.2891,4.2754,4.2461,4.1894,4.1798,4.1832,4.2008,4.1913,4.2571,4.4083,4.4883,4.5012,4.4258,4.5393,4.5325,4.3631,4.4959,4.5766,4.5923,4.6603,4.6824,4.6463,4.5817,4.4948,4.3706,4.1221,3.9302,3.0294,3.1211,3.1953,3.1406,3.0625,2.9883,2.9685,2.8906,2.8301,2.8301,2.8408,2.854,2.8795,2.9186,3.0105,3.1793,3.4092,3.6224,0.0,0.0,0.0,4.6803,0.0,0.0,0.0,0.0,0.0,0.0,0.0,0.0,5.1825,5.2,5.2352,5.2904,5.2929,5.2929,5.2929,5.2929,5.2861,5.2723,5.2723,5.2515,5.2169,5.2169,0.0,0.0,0.0,0.0,0.0,5.1282,5.1141,5.0718,4.7922,4.6433,4.5617,4.3019,4.1695,4.1289,4.1621,4.1935,4.2131,4.2171,4.227,4.2407,4.2407,4.2486,4.2484,4.1969,4.2011,4.221,4.1935,4.2031,4.2422,4.2949,4.3509,4.3951,4.3982,4.4288,4.4454,4.3706,4.3566,4.3467,4.2949,4.3008,4.3125,4.3281,4.3047,4.2734,4.2461,4.2289,4.2249,4.2333,4.2358,4.283,4.3985,4.4257,4.4077,4.3314,4.4392,4.4172,4.2323,4.4313,4.5393,4.5278,4.6741,4.7329,4.7016,4.68,4.5699,4.3739,4.2589,4.1308,0.0,3.0098,3.0742,3.0703,3.0078,2.9528,2.9528,2.8867,0.0,2.8301,2.8514,2.8747,2.8767,2.9547,3.0064,2.9811,3.299,3.5956,3.7182,4.0787,0.0,0.0,4.8736,0.0,0.0,0.0,0.0,0.0,0.0,0.0,5.1247,5.1699,5.2226,5.271,5.2735,5.276,5.281,5.2785,5.2648,5.2302,5.2352,5.2169,5.1751,5.1751,0.0,0.0,0.0,0.0,0.0,5.1141,5.0954,5.0554,4.8792,4.7169,4.5692,4.3945,4.2406,4.125,4.1618,4.1773,4.1773,4.1773,4.205,4.2329,4.2368,4.2702,4.2877,4.2166,4.2467,4.2922,4.2111,4.25,4.3086,4.3125,4.3765,4.441,4.441,4.4696,4.49,4.4551,4.4469,4.4284,4.3872,4.3457,4.3301,4.3691,4.3027,4.248,4.248,4.207,4.1955,4.2393,4.239,4.2677,4.3462,4.4028,4.3808,4.2458,4.3547,4.3745,4.2555,4.3867,4.4768,4.5005,4.654,4.7431,4.7497,4.7016,4.5835,4.4075,4.4028,4.328,2.8501,0.0,2.9297,2.8984,2.875,2.8594,0.0,2.8437,2.8354,2.8568,2.8674,2.888,2.9433,2.9667,3.0077,3.0997,3.3648,3.6148,3.7478,4.2579,0.0,4.8786,5.0117,0.0,0.0,0.0,0.0,0.0,0.0,5.0613,5.0223,5.0613,5.0938,5.122,5.1514,5.174,5.1868,5.1868,5.1638,5.1294,5.1738,5.1726,5.1376,5.1376,0.0,0.0,0.0,0.0,5.0837,5.0837,5.0767,5.0364,4.7223,4.5977,4.55,4.2348,4.1187,4.125,4.1618,4.1773,4.1773,4.1773,4.1836,4.2013,4.2347,4.2923,4.3459,4.33,4.318,4.312,4.3187,4.3164,4.3164,4.3476,4.3989,4.4405,4.4405,4.4744,4.498,4.4895,4.4895,4.4791,4.4707,4.4375,4.4121,4.4219,4.3496,4.293,4.293,4.2266,4.1915,4.2347,4.2106,4.2236,4.3081,4.3559,4.3494,4.2787,4.2501,4.1928,4.0983,4.1793,4.2137,4.1862,4.4436,4.6382,4.7497,4.7377,4.7059,4.6627,4.6222,4.5287,2.8247,2.8594,2.8867,2.8633,2.8574,2.8574,2.8574,2.8437,2.8354,2.8514,2.8727,2.9159,3.0052,3.0768,3.1593,3.2556,3.5199,3.8129,4.0947,0.0,4.8109,4.9766,0.0,0.0,0.0,0.0,0.0,0.0,0.0,5.0353,5.0156,5.0287,5.0472,5.0687,5.0414,5.0564,5.1159,5.1408,5.1234,5.0685,5.1247,5.1306,5.0954,5.0954,5.0908,0.0,0.0,0.0,5.0696,5.0696,5.0246,4.9413,4.7432,4.5918,4.4548,4.2601,4.1555,4.125,4.1618,4.1773,4.1812,4.1991,4.2191,4.2461,4.2891,4.3628,4.4169,4.3827,4.3824,4.4021,4.4028,4.4004,4.4023,4.4258,4.4512,4.4687,4.4687,4.5019,4.5312,4.5312,4.5312,4.5312,4.5312,4.4961,4.4629,4.4433,4.3808,4.3301,4.3105,4.25,4.2249,4.2625,4.2506,4.2523,4.2944,4.3156,4.3203,4.296,4.2388,4.163,4.0724,4.1777,4.2324,4.211,4.3709,4.5211,4.6449,4.6449,4.6874,4.7497,4.7209,4.6669,2.8379,2.8893,2.9391,2.9139,2.9248,2.9376,2.91,2.8804,2.8495,2.8441,2.892,2.9711,3.0861,3.2267,3.357,3.4223,3.7175,4.0898,4.5178,4.7079,0.0,0.0,0.0,0.0,0.0,0.0,0.0,0.0,0.0,5.0127,5.0228,5.0152,5.0156,5.0372,4.9504,4.9454,5.0305,5.0783,5.0813,5.0364,5.0801,5.0882,5.0696,5.0696,5.0696,0.0,0.0,0.0,5.0696,5.0696,4.9723,4.8308,4.7927,4.6093,4.3456,4.3166,4.2213,4.125,4.1618,4.1812,4.1931,4.221,4.2742,4.3262,4.3691,4.4433,4.498,4.4297,4.4551,4.4961,4.4668,4.4805,4.5019,4.5019,4.5117,4.5215,4.5215,4.5605,4.5957,4.5957,4.5957,4.5957,4.5879,4.5508,4.5078,4.4668,4.4141,4.3691,4.332,4.2832,4.268,4.3081,4.3261,4.3379,4.3409,4.3311,4.3265,4.328,4.2641,4.1939,4.1062,4.2167,4.2952,4.3349,4.3262,4.3797,4.4914,4.521,4.5978,4.7165,4.7431,4.7497,2.873,3.0423,3.1683,3.0166,3.0779,3.1496,3.0066,2.9711,2.9513,2.9079,2.9775,3.0924,3.2423,3.3354,3.436,0.0,3.9204,4.2934,0.0,0.0,0.0,0.0,0.0,0.0,0.0,0.0,0.0,0.0,0.0,0.0,4.9302,4.8839,4.8734,4.8953,4.8739,4.8584,4.8401,4.8938,4.9466,5.0017,5.009,5.0309,5.0696,5.0696,5.0696,0.0,0.0,5.0696,5.0696,5.0696,4.9723,4.8118,4.6452,4.4826,4.3263,4.1566,4.1071,4.1172,4.125,4.1699,4.2249,4.2014,4.2698,4.3691,4.4141,4.4883,4.5625,4.584,4.5488,4.5098,4.5391,4.5254,4.5019,4.5019,4.5586,4.6113,4.6113,4.6738,4.7285,4.7285,4.7285,4.7168,4.6797,4.6387,4.5957,4.5547,4.4805,4.4258,4.4199,4.3476,4.2988,4.305,4.4058,4.4799,4.5206,4.4894,4.4686,4.4614,4.288,4.1497,4.0623,4.0085,4.0499,4.1772,4.1468,4.1926,4.3379,4.4641,4.5414,4.5685,4.6941,4.7497,2.8493,3.037,3.2122,3.2281,3.3204,3.3772,3.2703,3.1763,3.1063,3.0817,3.0764,3.1507,0.0,0.0,3.7271,4.0684,0.0,4.4715,4.6781,4.7556,0.0,0.0,0.0,0.0,0.0,0.0,0.0,0.0,0.0,0.0,4.9112,0.0,4.8565,4.8289,4.8313,4.8238,4.8197,4.8439,4.8879,4.9445,5.0046,5.0455,5.0696,5.0696,5.0696,5.0696,0.0,5.0696,5.0696,5.0696,4.9198,4.6949,4.5992,4.425,4.2139,4.1425,4.1348,4.1543,4.1777,4.2288,4.2799,4.3128,4.3906,4.4883,4.5566,4.6211,4.6699,4.666,4.6191,4.5762,4.5957,4.5859,4.5781,4.5996,4.6348,4.6699,4.6933,4.748,4.791,4.791,4.791,4.7851,4.7656,4.7266,4.6777,4.6113,4.5683,4.5254,4.4805,4.4375,4.4043,4.3828,4.4333,4.4946,4.5528,4.4578,4.3738,4.3288,4.29,4.2293,4.1211,4.1187,4.1157,4.0933,4.0325,4.0545,4.1841,4.2543,4.3747,4.5346,4.5978,4.6741,2.8077,3.0024,3.2183,3.3724,3.4866,3.5558,3.5267,3.4075,3.292,3.2728,3.2217,3.252,0.0,3.6907,0.0,4.4577,4.5623,0.0,0.0,0.0,0.0,0.0,0.0,0.0,0.0,0.0,0.0,0.0,0.0,0.0,0.0,0.0,4.8469,4.8026,4.7894,4.7955,4.8098,4.8363,4.8748,4.9277,5.0119,5.0576,5.0696,5.0696,5.0483,5.0104,5.0104,4.9961,4.958,4.958,4.7872,4.5319,4.5319,4.3691,4.1367,4.168,4.1776,4.1853,4.2281,4.3072,4.405,4.4758,4.5772,4.6769,4.7423,4.7504,4.7383,4.7148,4.6777,4.6445,4.6445,4.6523,4.668,4.7012,4.7148,4.7324,4.7656,4.8066,4.8359,4.8359,4.8359,4.832,4.8223,4.8291,4.8157,4.7403,4.7185,4.6848,4.6075,4.549,4.5019,4.459,4.4867,4.5343,4.5874,4.4623,4.3376,4.2148,4.3103,4.348,4.2994,4.3291,4.287,4.163,4.0827,4.0683,4.1131,4.1468,4.2677,4.4589,4.5142,4.6074,2.7604,2.9899,3.2313,3.3083,3.4637,3.6146,3.6962,3.6203,3.5132,3.4252,3.4459,3.4737,0.0,3.7659,4.1185,4.4161,0.0,0.0,0.0,0.0,0.0,0.0,0.0,0.0,0.0,0.0,0.0,0.0,0.0,0.0,0.0,0.0,0.0,4.8002,4.7696,4.7521,4.7569,4.8531,4.9277,4.9806,4.9878,5.0191,5.0696,5.0696,4.989,4.8453,4.8453,4.7631,4.6233,4.6233,4.5244,4.3684,4.3684,4.29,4.1758,4.1797,4.1812,4.1817,4.2241,4.409,4.6311,4.6739,4.8055,4.951,4.9552,4.8325,4.7051,4.7422,4.7226,4.6875,4.6875,4.7187,4.75,4.7519,4.7832,4.8125,4.8164,4.8496,4.8808,4.8808,4.8808,4.8672,4.8281,4.9682,5.073,5.0146,4.98,4.9366,4.887,4.6941,4.5469,4.5019,4.6357,4.7134,4.6865,4.637,4.521,4.317,4.3751,4.4789,4.6258,4.557,4.507,4.4923,4.4475,4.3542,4.2177,4.3593,4.3593,4.2376,4.4776,4.5875,2.716,2.8653,3.0478,3.256,3.3941,3.5444,3.8167,3.7899,3.7044,3.7053,3.6317,3.5914,3.6838,0.0,4.2248,0.0,0.0,0.0,0.0,0.0,0.0,0.0,0.0,0.0,0.0,0.0,0.0,0.0,0.0,0.0,0.0,0.0,0.0,4.7696,4.7563,4.7497,4.7497,4.8219,4.8844,4.9373,5.007,5.0503,5.0696,5.0696,4.9818,4.8308,4.8308,4.7411,4.5915,4.5915,4.4945,4.3421,4.2729,4.219,4.1855,4.2081,4.2303,4.2562,4.2735,4.459,4.7022,4.8045,4.9791,5.1429,5.1105,5.0477,4.9582,4.835,4.8047,4.8008,4.748,4.7461,4.7578,4.7578,4.7695,4.7891,4.8144,4.8125,4.8223,4.875,4.8633,4.8744,4.9723,5.049,5.111,5.1573,5.1467,5.0762,4.9209,4.8253,4.7153,4.564,4.6643,4.6967,4.546,4.6147,4.6248,4.517,4.4752,4.4416,4.4024,4.5126,4.5209,4.4187,4.443,4.3824,4.2281,4.2847,4.2753,4.2113,4.2848,4.3682,2.6456,2.7655,2.9235,3.1766,3.3169,3.4944,3.8615,3.8926,3.8615,3.9165,3.7811,3.7039,3.856,0.0,0.0,0.0,0.0,0.0,0.0,0.0,0.0,0.0,0.0,0.0,0.0,0.0,0.0,0.0,0.0,0.0,0.0,0.0,0.0,0.0,4.7497,4.7497,4.7497,4.8026,4.8555,4.9084,4.9508,5.0008,5.0696,5.0175,4.9054,4.7485,4.6888,4.5784,4.4419,4.4292,4.3635,4.2697,4.2092,4.1875,4.201,4.2326,4.2601,4.2812,4.3093,4.5152,4.7981,4.963,5.1712,5.3492,5.2818,5.2123,5.108,4.8985,4.8535,4.8516,4.793,4.7773,4.7773,4.7773,4.7773,4.7891,4.832,4.8183,4.8164,4.875,4.8613,4.8855,5.0085,5.1212,5.2182,5.2691,5.3244,5.309,5.1422,5.0464,4.9209,4.7001,4.7002,4.649,4.4909,4.57,4.6145,4.5718,4.4885,4.4398,4.4177,4.5443,4.5856,4.5256,4.5567,4.5222,4.4172,4.3637,4.3046,4.2526,4.2071,4.2345,2.543,2.7173,2.9061,3.0628,3.2512,3.4873,3.8116,3.9295,3.9835,4.0217,3.8897,3.8096,3.9347,4.0057,0.0,0.0,0.0,0.0,0.0,0.0,0.0,0.0,0.0,0.0,0.0,0.0,0.0,0.0,0.0,0.0,0.0,0.0,0.0,0.0,4.7497,4.7497,4.7497,4.8026,4.8555,4.9016,4.7958,4.8613,5.0625,4.8982,4.7411,4.5744,4.373,4.2252,4.1133,4.0703,4.0781,4.1211,4.1641,4.2051,4.24,4.2423,4.2373,4.2507,4.3236,4.6032,4.957,5.1694,5.4084,5.5859,5.4873,5.296,5.0861,4.9354,4.8535,4.8203,4.8203,4.8203,4.8203,4.8203,4.8203,4.832,4.875,4.8848,4.8848,4.8867,4.894,4.894,4.894,5.2027,5.4325,5.3757,5.5356,5.6391,5.5969,5.3766,5.1422,4.9209,4.7401,4.6133,4.5703,4.5273,4.4844,4.4433,4.3965,4.5008,4.7844,4.7084,4.7334,4.8822,4.8488,4.8308,4.8236,4.6677,4.5095,4.3532,4.2926,4.2472,2.5459,2.6988,2.8631,2.9891,3.2249,3.4872,3.7022,3.8342,3.9237,3.9582,3.868,3.819,3.9259,3.9375,0.0,0.0,0.0,0.0,0.0,0.0,0.0,0.0,0.0,0.0,0.0,0.0,0.0,0.0,0.0,0.0,0.0,0.0,0.0,0.0,4.6449,4.5978,4.5978,4.5051,4.4817,4.5382,4.5025,4.631,4.8982,4.7338,4.5592,4.373,4.3156,4.2069,4.0723,4.0898,4.1055,4.1211,4.1641,4.1911,4.1937,4.1953,4.2065,4.2546,4.409,4.6422,4.9291,5.2801,5.5347,5.6946,5.6641,5.5114,5.3024,5.1005,4.9372,4.8066,4.7461,4.7305,4.7305,4.7305,4.7539,4.7812,4.793,4.7969,4.8144,4.875,4.8613,4.8737,4.9749,5.2136,5.4082,5.4626,5.6289,5.6808,5.5017,5.3053,5.1162,4.9168,4.8482,4.7566,4.5876,4.5273,4.4844,4.4433,4.3965,4.3988,4.4502,4.5391,4.5715,4.5596,4.658,4.6936,4.6603,4.6137,4.5095,4.3532,4.3077,4.2133,2.5591,2.7431,2.9198,3.0337,3.2763,3.5381,3.7245,3.8617,3.9765,4.0654,3.9805,3.9169,4.0025,3.9981,0.0,0.0,0.0,0.0,0.0,0.0,0.0,0.0,0.0,0.0,0.0,0.0,0.0,0.0,0.0,0.0,0.0,0.0,0.0,0.0,4.5659,4.5005,4.4367,4.3448,4.3272,4.3801,4.3185,4.3961,4.5881,4.4832,4.3743,4.2621,4.2133,4.1303,4.0312,4.0918,4.1172,4.1211,4.1641,4.1715,4.1526,4.1631,4.1861,4.2424,4.4588,4.6745,4.9168,5.3452,5.596,5.7292,5.6468,5.54,5.3904,5.1018,4.923,4.8047,4.7363,4.7051,4.6933,4.6933,4.7266,4.7617,4.7793,4.7969,4.8242,4.875,4.8652,4.8744,4.9622,5.1386,5.3018,5.4047,5.6233,5.7195,5.5577,5.4016,5.2547,5.1263,5.0505,4.9297,4.7434,4.7362,4.704,4.6305,4.6103,4.5596,4.4702,4.4583,4.4537,4.4427,4.5222,4.5739,4.5915,4.5244,4.444,4.3456,4.2601,4.1943,2.5698,2.8045,3.0188,3.1381,3.3738,3.6356,3.8542,3.9747,4.0877,4.2434,0.0,4.0752,4.125,4.1326,0.0,0.0,0.0,0.0,0.0,0.0,0.0,0.0,0.0,0.0,0.0,0.0,0.0,0.0,0.0,0.0,0.0,0.0,0.0,4.4386,4.4664,4.423,4.2823,4.2683,4.2829,0.0,4.1925,4.143,4.1842,4.1924,4.1945,4.185,4.0821,4.0215,3.9961,4.0781,4.1133,4.1211,4.1601,4.1461,4.1218,4.1517,4.1609,4.2078,4.4798,4.6962,4.9209,5.3778,5.6207,5.7119,5.5487,5.4763,5.3771,5.0267,4.8712,4.8047,4.7578,4.7168,4.6875,4.6875,4.7226,4.7676,4.8066,4.8516,4.8867,4.8867,4.8867,4.8848,4.8808,5.0095,5.161,5.2995,5.5699,5.7509,5.7013,5.601,5.4994,5.437,5.2763,5.1121,4.9704,5.0335,5.0244,4.9041,4.945,4.8979,4.7315,4.4743,4.3799,4.4666,4.4255,4.4628,4.5757,4.4277,4.3497,4.3456,4.2062,4.1862,2.479,2.6834,2.9046,3.0921,3.428,3.7668,3.9721,4.0023,4.0099,4.0877,4.1103,4.1329,4.1882,0.0,0.0,0.0,0.0,0.0,0.0,0.0,0.0,0.0,0.0,0.0,0.0,0.0,0.0,0.0,0.0,0.0,0.0,0.0,0.0,4.2856,4.2166,4.1651,4.1297,4.0105,3.959,0.0,3.942,3.9261,3.938,4.0073,4.0191,3.9855,3.9582,3.9648,3.9941,4.0449,4.0859,4.1172,4.086,4.0909,4.1119,4.0821,4.1138,4.2062,4.4739,4.6962,4.9209,5.3778,5.6207,5.7573,5.8686,5.6878,5.4171,5.2734,5.0128,4.7539,4.6777,4.6504,4.6445,4.6445,4.7031,4.7598,4.7695,4.832,4.8867,4.8867,4.8867,4.875,4.8398,5.0136,5.2411,5.4772,5.5748,5.6373,5.6901,5.6773,5.597,5.4429,5.2763,5.1121,4.9704,4.9151,4.8923,4.8955,4.9772,4.9912,4.9096,4.6793,4.4947,4.3496,4.3397,4.3737,4.4531,4.4224,4.3905,4.3456,4.3172,4.2463,2.4602,2.6608,2.8971,3.2319,3.5286,3.7764,3.9325,3.9879,4.0106,4.0103,4.034,4.0727,0.0,0.0,0.0,0.0,0.0,0.0,0.0,0.0,0.0,0.0,0.0,0.0,0.0,0.0,0.0,0.0,0.0,0.0,0.0,4.1815,4.1861,4.0979,4.0417,3.9909,3.9444,3.8675,3.8359,3.8574,3.8574,3.8574,3.8594,3.9043,3.9121,3.8906,3.9121,3.9473,3.9922,4.0351,4.0781,4.1172,4.0919,4.0854,4.0825,4.0978,4.137,4.2106,4.4758,4.7344,5.0027,5.3757,5.6351,5.8127,5.8381,5.7073,5.4976,5.252,5.0264,4.8282,4.6895,4.6445,4.6308,4.6308,4.6797,4.7266,4.7266,4.7949,4.8535,4.8535,4.8711,4.873,4.8281,4.9631,5.1165,5.2646,5.4075,5.5273,5.5658,5.6438,5.6598,5.5668,5.4986,5.4071,5.2686,5.2724,5.2781,5.2643,5.2943,5.2776,5.2007,5.0109,4.7608,4.4341,4.5103,4.4652,4.3014,4.3849,4.3603,4.2427,4.2427,4.235,2.4088,2.6345,2.9185,3.3488,3.5637,3.698,3.8243,3.9349,4.0001,3.9603,3.9755,0.0,0.0,0.0,0.0,0.0,0.0,0.0,0.0,0.0,0.0,0.0,0.0,0.0,0.0,0.0,0.0,0.0,0.0,0.0,3.9236,4.041,4.0428,3.888,3.9021,3.8687,3.7812,3.7812,3.8027,3.8457,3.8535,3.8574,3.8574,3.8574,3.8574,3.8594,3.8945,3.9355,3.9805,4.0234,4.0587,4.0996,4.0977,4.0758,4.0556,4.1153,4.15,4.2021,4.4421,4.7451,5.0676,5.3235,5.6182,5.8474,5.7321,5.6736,5.5751,5.2153,5.0384,4.9204,4.7698,4.6806,4.6308,4.6308,4.6621,4.6953,4.7031,4.7656,4.8223,4.8301,4.8613,4.875,4.8379,4.8871,4.943,4.9696,5.1822,5.3596,5.3834,5.5496,5.6613,5.6518,5.7066,5.6972,5.5785,5.6773,5.7208,5.6498,5.651,5.6001,5.4998,5.3515,5.0883,4.6844,4.7683,4.6308,4.2368,4.3718,4.3319,4.1172,4.1172,4.1907,2.149,2.4682,2.8488,3.1517,3.3503,3.5222,0.0,0.0,3.8497,0.0,0.0,0.0,0.0,0.0,0.0,0.0,0.0,0.0,0.0,0.0,0.0,0.0,0.0,0.0,0.0,0.0,0.0,0.0,0.0,0.0,3.6872,3.7452,3.7543,3.7055,3.742,3.7535,3.7383,3.7383,3.7598,3.8008,3.8398,3.8574,3.8574,3.8574,3.8574,3.8574,3.8633,3.8906,3.9336,3.9785,3.9987,4.0086,4.0082,4.0216,4.0428,4.0214,4.0842,4.1812,4.2918,4.6123,5.013,5.1505,5.4763,5.8103,5.8272,5.723,5.5672,5.4728,5.2085,4.949,4.8839,4.7528,4.6308,4.6308,4.6621,4.7031,4.7422,4.7871,4.832,4.8691,4.8808,4.8848,4.8789,4.8542,4.8773,5.0058,5.0193,5.0698,5.1892,5.395,5.5158,5.4719,5.5587,5.5837,5.5137,5.5791,5.6045,5.5931,5.6983,5.7349,5.6702,5.6032,5.4289,5.1298,4.9595,4.7347,4.458,4.4815,4.3624,4.1172,4.1172,4.1327,2.1488,2.4111,2.7048,0.0,3.1236,3.275,3.5611,0.0,3.7011,0.0,0.0,0.0,0.0,0.0,0.0,0.0,0.0,0.0,0.0,0.0,0.0,0.0,0.0,0.0,0.0,0.0,0.0,0.0,0.0,3.7423,3.6424,3.6607,3.6596,3.6257,3.6269,3.6465,3.6953,3.6953,3.7266,3.793,3.8359,3.8574,3.8574,3.8574,3.8574,3.8574,3.8574,3.8809,3.9238,3.9707,3.9909,3.9932,4.0122,4.0334,4.054,4.0581,4.1073,4.1794,4.2601,4.5628,4.9138,4.9651,5.2477,5.5842,5.6428,5.609,5.5062,5.3625,5.2071,5.0251,4.8027,4.7058,4.666,4.666,4.6973,4.7402,4.7832,4.8086,4.834,4.8769,4.8672,4.8496,4.8496,4.8144,4.8044,4.8653,4.927,4.994,5.0759,5.3108,5.4806,5.5151,5.6268,5.6984,5.7055,5.6984,5.7196,5.7786,5.7472,5.7526,5.7886,5.6828,5.5452,5.402,5.2682,5.0275,4.6741,4.7411,4.6219,4.3329,4.2988,4.2441,2.1637,0.0,2.5267,2.7884,2.9085,3.0534,0.0,0.0,0.0,0.0,0.0,0.0,0.0,0.0,0.0,0.0,0.0,0.0,0.0,0.0,0.0,0.0,0.0,0.0,0.0,0.0,0.0,0.0,0.0,3.7192,3.6075,3.6073,3.603,3.5751,3.5622,3.5801,3.6348,3.666,3.709,3.7617,3.8144,3.8418,3.8418,3.8418,3.8476,3.8574,3.8574,3.875,3.9082,3.9498,3.9679,3.9625,4.0006,4.0258,4.0391,4.0525,4.099,4.1652,4.2376,4.5116,4.8238,4.8258,5.0663,5.3796,5.4091,5.4214,5.3897,5.2187,5.1347,5.0421,4.7641,4.6953,4.6953,4.707,4.7422,4.7832,4.8144,4.8301,4.8476,4.8789,4.8594,4.8379,4.8379,4.8027,4.7734,4.7734,4.8502,4.9182,4.9528,5.1895,5.3879,5.5014,5.6688,5.7901,5.8392,5.8271,5.844,5.8945,5.7886,5.7574,5.8367,5.7141,5.6107,5.5409,5.5001,5.2787,4.8753,4.964,4.8557,4.558,4.4779,4.38,2.1033,2.2134,0.0,2.5526,2.738,0.0,0.0,0.0,0.0,0.0,0.0,0.0,0.0,0.0,0.0,0.0,0.0,0.0,0.0,0.0,0.0,0.0,0.0,0.0,0.0,0.0,0.0,0.0,0.0,3.5161,3.5236,3.525,3.5317,3.5438,3.5781,3.582,3.5469,3.666,3.709,3.6738,3.7559,3.7969,3.7969,3.7969,3.8184,3.8574,3.8574,3.8594,3.8672,3.9063,3.9051,3.8708,3.919,3.9613,3.9863,3.9461,4.0058,4.1202,4.1634,4.4444,4.7773,4.7707,5.0115,5.2948,5.2155,5.1892,5.187,5.1765,5.0505,4.9082,4.8911,4.7876,4.7031,4.7441,4.7871,4.8183,4.8203,4.8535,4.8828,4.894,4.8848,4.8828,4.8828,4.8457,4.8164,4.8164,4.7903,4.7718,4.7758,4.9806,5.1815,5.3145,5.5726,5.7537,5.7797,5.8752,5.8897,5.7959,5.7814,5.779,5.7838,5.7285,5.6492,5.5409,5.5361,5.3803,5.0559,5.0611,4.9503,4.7357,4.5715,4.4956,0.0,0.0,0.0,2.382,2.4825,2.613,2.9084,0.0,0.0,0.0,0.0,0.0,0.0,0.0,0.0,0.0,0.0,0.0,0.0,0.0,0.0,0.0,0.0,0.0,0.0,0.0,0.0,0.0,0.0,0.0,3.4759,3.4784,3.4882,3.4941,3.5098,3.5371,3.5801,3.6523,3.6816,3.668,3.7246,3.7519,3.7519,3.7519,3.7754,3.8164,3.8164,3.832,3.8652,3.9044,3.8956,3.8671,3.9112,3.9533,3.9906,3.9727,4.0247,4.1211,4.1899,4.3633,4.5619,4.5822,4.7344,4.9281,4.9762,4.9998,4.9998,4.9998,4.9488,4.8802,4.7916,4.7544,4.7519,4.8223,4.8516,4.8633,4.8633,4.875,4.8867,4.8867,4.8867,4.8769,4.8496,4.8535,4.8535,4.8242,4.8086,4.8086,4.8359,4.9721,5.1442,5.3779,5.5419,5.6857,5.818,5.8343,5.8223,5.7838,5.7502,5.7454,5.779,5.7309,5.6516,5.5409,5.5385,5.4554,5.2684,5.2352,5.1408,4.9901,4.8949,4.7255,1.964,0.0,0.0,0.0,2.2921,2.4064,0.0,0.0,0.0,0.0,0.0,0.0,0.0,0.0,0.0,0.0,0.0,0.0,0.0,0.0,0.0,0.0,0.0,0.0,0.0,0.0,0.0,0.0,0.0,0.0,3.5224,3.4688,3.4516,3.4687,3.4707,3.5059,3.5801,3.6387,3.6601,3.6465,3.6894,3.709,3.709,3.7226,3.7519,3.793,3.7942,3.8253,3.8848,3.8971,3.8899,3.8878,3.9011,3.9281,3.9701,3.9701,4.0285,4.1253,4.2013,4.3272,4.4576,4.5014,4.5964,4.7013,4.7868,4.8073,4.8093,4.8235,4.8296,4.8177,4.7455,4.791,4.8594,4.916,4.9297,4.9258,4.9121,4.8965,4.8867,4.8867,4.8867,4.8769,4.8476,4.8672,4.875,4.8476,4.8418,4.8535,4.8828,4.9412,5.1025,5.4169,5.4996,5.6276,5.8708,5.8367,5.8007,5.7814,5.7309,5.7189,5.7526,5.7213,5.6516,5.5409,5.5385,5.488,5.3822,5.3485,5.2937,5.216,5.1178,4.8753,0.0,0.0,0.0,0.0,0.0,0.0,2.4928,0.0,0.0,0.0,0.0,0.0,0.0,0.0,0.0,0.0,0.0,0.0,0.0,0.0,0.0,0.0,0.0,0.0,0.0,0.0,0.0,0.0,0.0,3.6473,3.6639,3.5031,3.4258,3.4668,3.4707,3.4941,3.5391,3.623,3.6445,3.6035,3.6445,3.666,3.666,3.709,3.75,3.7858,3.7962,3.8461,3.9164,3.8709,3.8841,3.9256,3.8808,3.8877,3.9272,3.9351,4.0114,4.1247,4.2137,4.3556,4.5078,4.5472,4.6141,4.6836,4.6426,4.6308,4.6387,4.6816,4.6933,4.7129,4.8008,4.918,5.0156,5.0176,5.0176,5.0058,4.9629,4.918,4.8867,4.8867,4.8867,4.8867,4.8867,4.8867,4.8867,4.8867,4.8867,4.8867,4.8867,4.8867,5.0368,5.4058,5.4499,5.5809,5.9069,5.8921,5.8392,5.7838,5.7333,5.7045,5.7021,5.7021,5.6516,5.5356,5.5409,5.488,5.3771,5.3747,5.3822,5.3747,5.206,4.9274,2.016,0.0,0.0,0.0,0.0,0.0,2.4433,2.5543,0.0,0.0,0.0,0.0,0.0,0.0,0.0,0.0,0.0,0.0,0.0,0.0,0.0,0.0,0.0,0.0,0.0,0.0,0.0,0.0,3.9311,3.7998,3.6247,3.4839,3.4121,3.4238,3.4863,3.5254,3.5391,3.5937,3.6133,3.6016,3.6152,3.6191,3.6211,3.6641,3.693,3.7074,3.7682,3.8092,3.8345,3.8178,3.8438,3.8772,3.8651,3.8877,3.9389,3.9926,4.0598,4.1341,4.3136,4.4117,4.4645,4.5703,4.618,4.6465,4.6328,4.6308,4.6387,4.6816,4.6933,4.7207,4.8379,4.9199,4.9785,5.0098,5.0176,5.0058,4.9629,4.9433,4.9258,4.8926,4.8867,4.8867,4.8867,4.8867,4.8867,4.8867,4.8867,4.8867,4.8867,4.8867,5.0368,5.4058,5.4499,5.5809,5.9069,5.9257,5.8776,5.7862,5.767,5.743,5.7045,5.7021,5.6025,5.4022,5.4955,5.4432,5.2488,5.3362,5.3822,5.3723,5.1413,4.9693,2.2173,2.1831,2.1391,0.0,0.0,0.0,2.382,2.4664,2.5961,0.0,0.0,0.0,0.0,0.0,0.0,0.0,0.0,0.0,0.0,0.0,0.0,0.0,0.0,0.0,0.0,0.0,0.0,4.0454,3.9789,3.8258,3.5786,3.5184,3.4541,3.3809,3.4473,3.4844,3.4844,3.5449,3.5762,3.5762,3.5937,3.5977,3.6103,3.653,3.6726,3.6742,3.7264,3.7574,3.7746,3.7722,3.8131,3.8617,3.8632,3.8798,3.9091,3.9978,4.0631,4.1461,4.3572,4.4403,4.4787,4.6064,4.6492,4.6562,4.6562,4.6699,4.6914,4.7344,4.7734,4.8223,4.916,4.9726,5.0176,5.0605,5.043,5.0117,4.9844,4.9512,4.918,4.8906,4.8867,4.8867,4.8867,4.8867,4.8867,4.8867,4.8867,4.8867,4.8867,4.8867,5.0002,5.3013,5.4058,5.5615,5.8324,5.9082,5.9041,5.8199,5.7935,5.7574,5.7045,5.6254,5.5111,5.3509,5.4036,5.374,5.2781,5.3489,5.3822,5.3723,5.2041,5.0538,2.4766,2.3926,2.2683,2.2184,2.1288,0.0,2.3167,2.4238,2.5561,0.0,0.0,0.0,0.0,0.0,0.0,0.0,0.0,0.0,0.0,0.0,0.0,0.0,0.0,0.0,0.0,4.0166,4.0465,4.0626,3.9524,3.7907,3.5704,3.5811,3.5163,3.3437,3.3848,3.4082,3.4082,3.4941,3.5391,3.5391,3.5753,3.6005,3.6047,3.6438,3.6647,3.6686,3.681,3.7054,3.7296,3.7435,3.7936,3.8635,3.8651,3.856,3.8695,3.9634,4.0527,4.148,4.3611,4.4566,4.495,4.6229,4.6636,4.6636,4.6636,4.7087,4.7656,4.8086,4.8808,4.9551,5.0,5.0391,5.0762,5.1191,5.0723,5.0176,5.0117,4.9492,4.8926,4.8867,4.8867,4.8867,4.8867,4.8867,4.8867,4.8867,4.8867,4.8867,4.8867,4.8867,4.9656,5.1778,5.3526,5.54,5.7527,5.8769,5.9209,5.8632,5.8151,5.7646,5.7045,5.5264,5.3955,5.3335,5.2525,5.2484,5.3267,5.362,5.3798,5.3726,5.3269,5.1548,0.0,0.0,0.0,0.0,0.0,0.0,2.262,2.3624,2.5044,0.0,0.0,0.0,0.0,0.0,0.0,0.0,0.0,0.0,0.0,0.0,0.0,0.0,0.0,0.0,0.0,3.9454,3.9799,3.9864,3.8995,3.8024,3.6985,3.5993,3.4858,3.3418,3.3848,3.4082,3.4082,3.4941,3.5391,3.5391,3.5549,3.5596,3.5624,3.6093,3.6138,3.5859,3.6831,3.6923,3.6477,3.7466,3.7943,3.8149,3.8475,3.856,3.8731,3.995,4.0752,4.1517,4.3975,4.4038,4.3246,4.4538,4.4927,4.4927,4.4927,4.62,4.7656,4.8086,4.8574,4.9101,4.9531,4.9707,4.9883,5.0312,5.0293,5.0078,4.9726,4.9512,4.9297,4.8926,4.8867,4.8867,4.8867,4.8867,4.8867,4.8867,4.8867,4.8867,4.8867,4.8867,5.0185,5.3615,5.4235,5.5924,5.9388,5.9907,5.9618,5.8656,5.8512,5.8007,5.7069,5.5264,5.3624,5.211,4.9689,4.9124,5.0298,5.2676,5.3606,5.3221,5.3101,5.1797,0.0,0.0,0.0,2.459,0.0,0.0,0.0,2.47,2.579,0.0,0.0,0.0,0.0,0.0,0.0,0.0,0.0,0.0,0.0,0.0,0.0,0.0,0.0,0.0,0.0,3.9056,3.932,3.9585,3.9211,3.8493,3.7385,3.6703,3.5417,3.3481,3.3633,3.375,3.375,3.4609,3.5039,3.5059,3.5385,3.5632,3.5775,3.584,3.5896,3.5943,3.6553,3.6662,3.6586,3.7393,3.7723,3.7778,3.8322,3.856,3.875,3.9781,4.0565,4.1517,4.388,4.3653,4.2554,4.4032,4.4581,4.4618,4.4838,4.6439,4.8262,4.8476,4.8691,4.8965,4.9414,4.9531,4.9648,5.0078,5.0019,4.9785,4.957,4.9355,4.9121,4.8906,4.8867,4.8867,4.8867,4.8867,4.8867,4.8867,4.8867,4.8867,4.8867,4.8867,4.9656,5.1507,5.3348,5.529,5.716,5.9111,5.9834,5.9041,5.8752,5.8247,5.7454,5.4567,5.1939,4.9634,4.8192,4.7998,4.9126,5.1408,5.2424,5.2189,5.2189,5.1116,0.0,0.0,0.0,0.0,0.0,2.5081,0.0,0.0,0.0,0.0,0.0,0.0,0.0,0.0,0.0,0.0,0.0,0.0,0.0,0.0,0.0,0.0,0.0,0.0,0.0,3.7918,3.8288,3.9205,3.903,3.8412,3.7363,3.7067,3.5848,3.3481,3.3418,3.3418,3.3418,3.4199,3.4629,3.4576,3.5037,3.552,3.5916,3.5653,3.5721,3.6109,3.6256,3.6531,3.6785,3.6863,3.695,3.704,3.8152,3.8524,3.8621,3.9583,4.054,4.1612,4.3633,4.351,4.266,4.3959,4.4581,4.4875,4.5575,4.7246,4.8867,4.8867,4.8867,4.8945,4.9297,4.9394,4.9492,4.9844,4.9648,4.9394,4.9394,4.9121,4.8867,4.8867,4.8867,4.8867,4.8867,4.8867,4.8867,4.8867,4.8867,4.8867,4.8867,4.8789,4.9118,4.9911,5.266,5.4676,5.5552,5.8407,5.9907,5.9281,5.8824,5.8319,5.7694,5.3814,5.031,4.7333,4.7231,4.7465,4.8254,4.9728,5.0611,5.083,5.1139,5.0187,0.0,0.0,0.0,0.0,2.6354,0.0,0.0,0.0,2.6518,2.6625,0.0,0.0,0.0,0.0,0.0,0.0,0.0,0.0,0.0,0.0,0.0,0.0,0.0,0.0,0.0,0.0,3.5748,3.7847,3.6926,3.6597,3.7243,3.6215,3.4943,3.3418,3.3418,3.3418,3.3418,3.3906,3.4206,3.4247,3.4346,3.4671,3.513,3.5076,3.5265,3.5724,3.6457,3.6787,3.6709,3.5691,3.5288,3.5531,3.7758,3.842,3.8236,3.9814,4.0971,4.1954,4.3725,4.4003,4.374,4.3923,4.4545,4.5483,4.7248,4.8273,4.8867,4.8867,4.8867,4.8867,4.8926,4.8945,4.8945,4.9004,4.8965,4.8945,4.8945,4.8887,4.8867,4.8867,4.8867,4.8867,4.8867,4.8867,4.8867,4.8867,4.8867,4.8867,4.8867,4.8516,4.9743,5.3483,5.3953,5.5453,5.9233,5.9919,5.9738,5.8752,5.8632,5.8151,5.7141,5.3633,5.004,4.6501,4.6127,4.5957,4.6029,4.6927,4.7992,4.9091,5.0598,4.9641,0.0,0.0,0.0,0.0,0.0,0.0,2.6954,0.0,2.7796,0.0,0.0,0.0,0.0,0.0,0.0,0.0,0.0,0.0,0.0,0.0,0.0,0.0,0.0,0.0,0.0,0.0,0.0,0.0,0.0,3.588,3.577,3.5267,3.437,3.3109,3.3066,3.3066,3.3066,3.373,3.4102,3.42,3.4241,3.4659,3.5358,3.5097,3.5375,3.5981,3.6329,3.6604,3.6691,3.5215,3.471,3.495,3.5242,3.5839,3.6825,3.8633,4.0354,4.2049,4.406,4.4034,4.3426,4.4105,4.4875,4.5945,4.7957,4.8682,4.8867,4.8867,4.8867,4.8867,4.8867,4.8867,4.8867,4.8867,4.8867,4.8926,4.9199,4.9258,4.9316,4.957,4.9414,4.9258,4.9258,4.9023,4.8867,4.8867,4.8867,4.8867,4.8867,4.8476,4.9432,5.2524,5.347,5.5127,5.8275,5.9558,5.9535,5.7968,5.6329,5.4964,5.3984,5.1492,4.8787,4.6024,4.5762,4.5547,4.5293,4.6367,4.666,4.627,4.7736,4.7666,2.8867,0.0,0.0,0.0,0.0,0.0,0.0,0.0,0.0,0.0,0.0,0.0,0.0,0.0,0.0,0.0,0.0,0.0,0.0,0.0,0.0,0.0,0.0,0.0,0.0,0.0,0.0,0.0,3.455,3.4606,3.4712,3.439,3.3799,3.2969,3.2969,3.3027,3.3144,3.375,3.416,3.4393,3.4412,3.4866,3.5619,3.5299,3.5559,3.6219,3.6329,3.6249,3.599,3.4427,3.3626,3.3346,3.1993,3.2615,3.4631,3.7425,4.0029,4.239,4.4348,4.4489,4.3964,4.5106,4.5833,4.6541,4.8216,4.8775,4.8867,4.8867,4.8867,4.8867,4.8867,4.8867,4.8867,4.8867,4.8945,4.9121,4.9453,4.9629,4.9766,4.9961,4.9746,4.9492,4.9355,4.9082,4.8867,4.8867,4.8867,4.8867,4.8867,4.8476,4.9029,5.1301,5.2966,5.4562,5.6328,5.8228,5.853,5.6523,5.4204,5.2322,5.1142,4.9721,4.7996,4.5946,4.584,4.5703,4.5371,4.6028,4.5767,4.4551,4.5739,4.6022,0.0,0.0,0.0,2.8301,0.0,0.0,0.0,0.0,2.8906,0.0,0.0,0.0,0.0,0.0,2.9063,2.893,0.0,0.0,0.0,0.0,0.0,0.0,0.0,0.0,0.0,0.0,0.0,3.2936,3.188,3.2216,3.457,3.3514,3.3051,3.3379,3.3398,3.3613,3.4023,3.4062,3.4316,3.4768,3.4831,3.5148,3.5619,3.5576,3.5815,3.6237,3.6641,3.5897,3.435,3.2712,3.118,2.9917,2.8165,2.8921,3.1541,3.6593,4.0391,4.3206,4.4597,4.5503,4.6309,4.714,4.7476,4.7593,4.7969,4.8497,4.8867,4.8867,4.8867,4.8867,4.8867,4.8867,4.8867,4.8867,4.918,4.9512,4.9531,4.9863,5.0039,4.9629,4.9531,4.9394,4.8945,4.8867,4.8867,4.8867,4.8867,4.8867,4.8867,4.8476,4.891,5.0957,5.2773,5.3887,5.3996,5.6196,5.6437,5.4018,5.2927,5.153,4.9725,4.9224,4.8138,4.6289,4.6289,4.6269,4.6269,4.541,4.5,4.498,4.5881,4.5373,0.0,0.0,2.8301,2.8301,0.0,0.0,0.0,0.0,0.0,0.0,0.0,0.0,0.0,0.0,2.9634,2.8988,2.8816,0.0,0.0,0.0,0.0,0.0,0.0,0.0,0.0,0.0,0.0,3.0798,3.0723,3.119,0.0,3.245,3.2441,3.2598,3.2871,3.3223,3.3633,3.3926,3.4452,3.5258,3.4983,3.5299,3.601,3.5705,3.5834,3.6219,3.6366,3.5503,3.3881,3.2183,3.0807,2.9566,2.7988,2.9133,3.2312,3.6178,3.9128,4.169,4.5105,4.66,4.7266,4.7787,4.8209,4.8476,4.8585,4.8775,4.8867,4.8867,4.8867,4.8867,4.8867,4.8867,4.8867,4.8867,4.9199,4.9609,4.9902,5.0078,5.0215,5.0351,4.9922,4.9473,4.9336,4.9062,4.8867,4.8867,4.8613,4.8535,4.8828,4.8242,4.8712,5.1218,5.1815,5.2616,5.4149,5.3883,5.3686,5.3735,5.1157,4.9596,4.9593,4.8319,4.7177,4.6308,4.6308,4.6308,4.6308,4.5742,4.5449,4.543,4.5435,4.4822,2.8262,2.8301,0.0,2.8301,2.8613,0.0,2.8926,0.0,0.0,0.0,0.0,0.0,0.0,0.0,0.0,2.8828,2.8583,0.0,0.0,2.9023,0.0,0.0,0.0,0.0,0.0,0.0,2.9125,2.9374,2.9795,3.0412,0.0,0.0,3.207,3.2383,3.2656,3.3144,3.3867,3.416,3.4685,3.5489,3.5363,3.5581,3.601,3.5852,3.5962,3.6201,3.6201,3.4989,3.2842,3.1811,3.0414,2.8801,2.7975,2.91,3.1655,3.4554,3.8003,4.1601,4.4806,4.6651,4.7656,4.8066,4.8398,4.8652,4.8808,4.8867,4.8867,4.8867,4.8867,4.8867,4.8867,4.8867,4.8867,4.8867,4.9199,4.9648,5.0078,5.0293,5.043,5.0566,5.0137,4.9668,4.9336,4.9043,4.8867,4.8867,4.8613,4.8476,4.8613,4.8281,4.865,5.0134,5.0874,5.1893,5.3416,5.1778,5.1022,5.1967,4.9603,4.8413,4.8898,4.7612,4.6875,4.6758,4.6465,4.6445,4.6758,4.6035,4.5683,4.5664,4.5078,4.4492]}]]